GFSCGP_prec_cthk_000.txt.gz
RH
14 25 21 18 19 17 20 26 26 28 24 23 22 22 22 22 19 18 18 20 22 22 22 23 26 27 26 26 26 28 28 29 30 33 35 37 38 40 43 45 47 47 48 46
17 28 22 17 21 20 19 24 26 24 24 23 23 22 23 21 18 17 18 20 21 22 24 25 26 26 25 27 28 30 32 33 34 36 38 39 41 43 45 48 51 52 51 51
14 22 17 18 21 22 19 28 27 27 25 25 25 25 26 23 18 17 20 21 23 24 25 26 28 30 31 32 33 35 36 37 38 39 42 42 44 49 51 53 55 54 56 62
17 18 17 20 23 21 22 25 27 29 30 29 25 26 29 26 23 22 23 26 28 30 31 32 33 34 36 37 39 41 42 44 46 46 47 51 51 52 55 58 60 63 66 70
27 22 18 21 23 22 25 27 30 29 31 30 29 27 30 30 29 29 27 29 31 33 34 36 38 39 40 42 43 45 48 51 54 55 54 54 58 58 63 66 68 71 74 75
20 22 21 22 22 27 29 30 28 32 34 41 37 37 26 33 37 33 32 33 35 36 39 41 43 44 46 47 48 51 54 55 56 58 60 59 57 62 65 68 70 72 73 76
31 30 27 30 28 31 34 34 43 51 52 51 46 39 33 33 38 36 38 40 41 42 45 45 47 49 51 52 55 59 59 59 60 62 64 65 63 64 67 70 71 74 75 78
37 42 33 34 33 36 39 42 55 61 54 48 35 38 34 40 44 44 46 49 51 52 56 55 56 61 61 59 61 66 68 68 67 69 69 70 69 68 69 72 76 77 79 80
41 40 38 37 37 38 42 49 47 52 63 64 51 46 39 44 48 52 56 57 60 59 60 61 63 66 67 66 68 72 70 69 68 71 73 74 73 72 72 75 79 82 82 84
46 45 41 41 42 46 46 48 55 64 79 70 50 51 44 50 50 49 55 60 58 61 63 66 66 70 71 73 72 69 69 68 69 71 71 71 72 75 78 81 85 86 90 92
49 51 47 45 50 50 49 51 59 61 68 77 77 56 48 48 48 53 57 62 65 67 68 70 71 74 72 71 69 67 67 67 66 66 67 68 70 74 79 84 85 93 95 95
54 54 58 49 47 49 50 55 59 79 75 73 75 60 52 56 61 63 63 65 64 65 67 68 69 73 70 70 69 69 69 67 64 66 64 62 69 74 75 78 88 92 94 95
55 59 59 50 55 57 57 52 54 61 76 80 92 63 50 51 55 58 61 62 61 65 68 70 72 73 71 72 70 70 70 67 65 64 63 63 69 72 76 83 88 95 94 90
58 59 66 71 64 65 64 54 51 56 66 65 69 58 54 55 58 61 64 64 64 67 70 72 75 73 74 74 77 76 71 68 65 65 65 64 69 77 88 90 94 94 90 88
67 69 67 64 62 67 67 58 55 53 54 61 52 59 51 57 59 64 62 63 67 69 72 77 76 78 78 78 75 75 73 70 67 68 70 76 81 86 94 95 93 90 89 89
67 71 71 70 60 66 65 56 52 53 56 56 56 55 56 53 56 60 67 70 72 74 77 78 82 82 81 79 81 75 74 70 70 72 79 87 91 92 94 94 90 90 85 68
63 77 82 80 68 73 74 60 59 65 65 64 64 55 54 58 66 72 72 75 74 80 83 84 80 79 80 78 79 80 73 72 79 85 91 96 97 96 93 91 91 84 64 37
65 78 84 89 87 85 64 56 57 62 65 65 63 57 63 66 70 76 80 84 81 82 84 80 80 81 81 78 76 71 77 88 88 94 96 97 94 92 92 88 83 62 35 28
59 75 85 90 82 70 71 57 69 69 65 66 72 77 83 81 80 81 88 89 94 87 85 83 83 79 74 72 67 78 84 87 92 93 92 90 90 86 82 76 49 31 27 25
66 75 86 84 88 81 60 58 64 69 71 82 85 86 92 85 88 83 86 85 86 89 86 84 78 75 68 67 73 77 79 82 85 90 87 84 81 79 66 43 30 26 27 31
84 87 90 84 87 71 60 68 75 88 94 89 90 95 90 92 91 87 85 85 92 86 81 79 76 67 67 73 75 78 82 86 92 86 84 80 74 57 40 31 28 29 31 34
83 90 94 90 94 83 74 79 92 86 87 91 85 87 90 90 89 86 85 89 87 81 76 75 72 71 75 78 81 85 85 85 86 86 81 67 52 41 32 30 30 31 34 38
85 81 78 75 78 61 67 79 80 88 88 86 93 88 90 85 81 82 83 84 81 73 72 73 72 75 80 83 84 88 88 88 86 76 62 50 41 33 32 32 32 34 38 42
89 77 77 76 62 63 70 74 82 83 90 95 93 88 84 84 75 75 78 79 73 69 68 68 74 81 85 90 88 90 87 83 70 58 49 43 35 33 34 33 36 38 42 46
88 83 80 71 63 69 67 79 87 91 91 92 89 81 77 81 76 70 66 65 64 66 69 72 79 85 92 90 90 87 80 67 57 49 45 38 35 35 34 36 40 42 47 48
85 82 88 75 71 85 68 68 81 86 95 90 81 76 71 74 67 63 65 67 66 63 67 77 85 89 89 86 84 75 63 55 50 46 36 34 35 37 38 39 40 45 47 44

GFSCGP_prec_cthk_003.txt.gz
RH
16 25 23 18 19 20 18 20 24 26 24 23 22 21 21 21 19 19 18 20 20 20 21 21 23 26 28 30 30 31 32 33 35 37 38 40 40 40 41 44 46 47 49 52
18 23 22 19 18 19 18 22 26 24 23 24 24 22 23 22 21 18 15 18 21 23 25 27 28 31 33 34 34 35 37 39 41 43 45 46 47 47 48 50 52 53 54 54
17 20 18 17 21 22 19 25 26 27 26 25 26 24 22 22 21 25 26 26 25 26 28 31 34 35 36 38 40 42 45 45 47 49 49 50 50 50 52 54 56 57 57 58
18 21 20 19 24 24 22 22 25 29 33 34 31 35 28 27 27 27 26 28 30 31 32 35 38 40 40 41 43 44 46 49 52 53 53 54 55 56 56 58 60 61 61 62
21 18 19 21 23 23 26 27 29 31 34 35 36 39 33 33 32 36 35 34 37 41 38 40 42 43 44 45 46 48 51 53 56 58 59 59 60 61 61 64 65 65 66 66
25 23 26 26 25 27 28 30 28 35 36 49 40 39 38 32 36 42 45 46 47 45 44 45 45 45 46 48 50 52 56 60 60 59 61 61 60 63 67 68 68 69 70 72
31 29 27 30 29 29 31 36 50 50 56 57 45 43 39 40 43 46 47 47 46 48 50 49 49 53 59 60 60 62 66 68 64 62 67 69 70 72 72 72 70 71 70 74
43 46 34 33 34 34 39 40 61 62 65 56 38 42 38 43 46 50 53 55 54 54 55 58 63 65 67 66 64 68 73 71 67 61 62 67 70 72 73 74 71 69 70 73
47 44 37 36 37 40 45 52 46 55 67 68 57 44 42 49 51 61 59 62 64 61 63 67 69 70 70 67 70 76 76 69 64 61 61 61 61 61 64 67 68 70 73 77
47 49 43 43 42 45 47 46 59 69 80 80 59 50 57 53 50 55 55 57 57 62 62 62 64 62 64 68 73 74 72 67 62 60 60 60 58 60 64 70 72 76 83 88
50 53 51 45 51 55 52 58 64 69 80 89 93 69 53 55 62 64 62 67 68 71 69 68 69 72 75 74 75 73 69 63 61 58 56 56 55 59 62 67 74 82 92 93
53 53 62 53 52 54 56 62 65 85 89 82 89 69 49 56 58 55 69 73 67 68 66 65 68 72 72 70 70 68 65 65 60 57 54 54 53 54 60 70 76 82 87 85
55 61 68 59 60 63 65 58 60 69 75 75 92 70 59 58 60 68 66 62 60 64 71 74 76 76 68 68 70 70 68 65 65 61 55 51 51 60 67 68 73 80 84 88
55 56 61 66 61 66 67 55 52 62 72 67 69 64 59 65 68 67 64 62 67 69 69 69 72 74 69 67 67 67 67 70 69 62 54 54 60 66 67 71 77 83 85 82
55 56 59 57 62 65 66 58 54 60 62 69 57 65 60 68 68 66 66 67 67 70 69 70 70 67 67 68 69 69 70 65 66 64 66 66 69 71 72 76 82 86 83 84
57 63 63 62 56 65 70 55 55 63 66 64 61 64 69 66 69 67 68 69 74 76 74 75 73 71 70 69 67 68 68 68 69 72 73 77 82 85 88 92 90 89 88 84
56 65 72 69 67 75 74 50 57 61 60 63 71 70 73 77 77 77 82 83 80 80 78 78 78 72 66 67 70 68 65 65 69 78 85 89 90 98 94 91 89 88 81 61
55 63 73 80 84 86 58 54 55 60 66 68 67 74 81 79 79 86 85 87 81 79 79 76 73 68 66 70 69 66 64 68 72 80 85 87 93 92 88 89 86 80 54 35
59 73 80 83 84 71 57 56 61 62 61 72 76 77 79 87 81 74 77 83 84 81 80 74 69 70 70 69 65 63 66 66 70 78 85 86 87 88 88 84 75 49 36 26
65 69 77 81 84 77 55 57 62 66 66 78 85 87 85 95 88 71 78 79 76 78 77 71 67 64 65 70 69 70 70 71 76 85 91 93 89 89 85 61 47 38 31 30
77 78 78 79 82 70 57 63 67 77 72 74 80 82 85 89 89 88 82 71 69 75 71 68 66 65 67 69 70 74 75 77 86 89 89 90 87 71 56 47 43 35 32 30
79 84 89 88 88 82 64 66 73 74 74 81 78 81 87 88 88 89 79 75 73 65 62 63 63 66 68 69 70 69 78 87 93 91 86 76 61 52 49 45 38 34 31 30
85 82 82 81 75 61 66 72 68 77 80 77 83 83 87 88 89 79 75 71 61 63 65 59 61 63 67 67 77 84 93 91 88 81 66 56 52 49 46 39 35 34 32 34
85 84 82 82 66 63 73 67 69 70 76 79 81 95 95 86 79 74 74 68 73 70 61 64 62 59 63 71 81 89 89 85 73 60 55 53 50 45 39 38 38 36 37 39
90 91 82 75 72 71 65 71 74 76 83 86 90 87 82 78 71 73 74 73 70 72 71 75 65 61 70 80 88 88 81 67 57 55 53 49 44 40 39 40 40 41 44 44
85 80 88 79 72 81 70 75 84 87 89 87 82 76 79 73 74 74 68 66 74 74 72 73 68 75 84 88 87 74 64 57 56 52 49 43 40 42 45 41 41 46 49 50

GFSCGP_prec_cthk_006.txt.gz
RH
15 21 24 21 20 20 20 19 23 24 24 22 22 23 21 20 21 19 17 18 21 22 24 25 27 29 32 35 37 38 39 40 43 44 45 46 47 47 48 49 49 51 53 54
19 21 22 20 21 21 22 21 24 22 23 25 24 23 20 19 22 23 24 22 28 29 29 29 31 36 38 41 41 44 46 48 50 49 48 49 49 50 51 53 54 54 56 57
18 19 20 19 20 23 23 22 24 27 27 28 27 24 22 23 24 26 27 28 30 32 34 33 34 37 41 41 42 44 48 52 53 52 50 49 48 49 50 52 54 55 55 57
18 21 20 20 24 23 25 24 26 29 31 36 30 38 30 28 28 29 30 30 32 35 36 36 39 40 41 42 44 45 48 51 52 53 53 53 52 53 55 56 57 58 59 60
22 22 25 27 27 27 27 26 28 30 36 37 37 40 36 35 34 33 36 38 39 39 40 43 45 47 47 48 49 53 55 56 59 61 58 55 52 50 53 56 59 60 61 61
27 25 27 31 32 30 29 29 31 37 39 49 40 41 46 44 42 45 47 44 44 45 51 57 57 55 55 56 59 58 60 65 65 68 68 61 56 55 58 61 63 63 66 68
34 31 31 32 32 30 34 37 50 49 56 56 44 44 42 44 47 49 51 55 58 62 66 64 60 60 60 63 64 68 74 77 75 79 73 67 61 58 58 60 61 63 68 70
46 46 37 35 34 38 41 42 56 59 64 57 43 46 44 44 49 50 53 59 63 65 64 60 60 64 67 70 72 73 74 73 71 68 67 62 59 59 58 58 56 55 65 70
52 47 40 38 38 41 44 49 46 55 68 68 56 48 42 48 53 55 57 60 61 59 60 59 66 67 68 69 75 77 73 68 63 58 56 56 56 55 56 54 51 50 54 62
48 52 44 42 42 46 47 47 60 70 76 83 66 57 56 53 57 56 63 61 60 62 64 64 66 68 68 68 71 71 73 68 63 60 58 55 54 53 53 51 52 57 61 69
49 53 49 46 51 53 51 60 64 67 77 88 91 71 53 54 64 68 69 68 65 69 66 65 67 70 73 73 70 67 64 62 58 56 55 54 53 52 51 55 61 65 69 76
52 55 61 54 55 55 55 58 65 81 80 81 89 66 51 59 60 66 65 67 71 69 68 71 71 72 69 64 63 61 59 58 56 53 51 51 51 53 58 61 66 71 74 75
51 54 58 50 54 53 52 48 58 67 74 77 84 68 55 61 67 65 69 71 74 74 72 70 69 67 64 61 59 56 55 54 53 53 52 52 55 55 58 62 71 73 75 78
46 48 51 58 55 61 56 46 52 63 76 73 65 66 60 66 66 70 72 73 75 73 72 70 68 67 66 64 60 55 54 56 55 53 54 54 54 60 61 68 71 78 84 89
49 54 55 54 56 60 55 56 59 64 59 74 61 61 60 65 68 71 73 74 73 76 75 73 71 72 72 62 58 54 55 55 52 52 54 56 61 67 71 76 78 87 93 86
49 57 61 55 58 66 60 59 60 60 59 59 60 59 66 72 77 78 77 72 74 80 81 78 75 69 65 59 55 53 57 53 51 57 63 65 72 80 85 89 94 93 92 90
54 61 70 63 69 74 66 56 54 54 52 57 64 63 69 73 78 82 80 73 79 84 80 71 69 67 61 55 57 57 52 51 52 59 69 77 84 86 90 88 88 89 88 83
54 65 75 81 81 87 52 51 51 55 56 56 63 68 71 73 69 71 80 82 86 80 68 66 72 63 60 64 59 53 54 54 58 61 69 80 85 91 89 85 84 88 82 64
64 76 82 82 86 71 58 55 57 62 63 63 67 66 67 67 67 69 73 81 85 77 75 67 71 73 69 63 61 66 68 66 73 66 75 78 87 93 91 89 80 69 55 44
71 76 78 83 88 80 58 58 60 68 70 68 69 68 72 76 79 74 79 83 85 84 80 74 70 72 73 71 68 74 76 76 78 76 83 92 93 88 81 75 63 53 46 41
80 83 82 85 85 75 59 61 72 79 70 74 72 73 75 81 87 88 89 88 80 78 75 72 69 63 67 73 72 83 78 77 82 88 92 89 83 74 64 56 53 48 42 36
77 85 87 86 90 85 71 79 87 83 79 79 69 73 81 84 88 89 88 85 83 70 67 61 56 63 69 70 76 77 76 81 83 89 86 73 63 58 56 52 48 43 39 35
85 82 82 79 75 70 77 78 77 83 80 73 78 85 87 86 86 88 83 77 65 68 68 64 65 69 67 77 77 65 75 82 86 80 65 56 55 53 51 47 43 41 39 37
88 84 80 87 65 72 78 73 74 77 78 80 81 80 81 82 85 87 86 81 72 64 63 68 71 74 76 79 78 77 85 86 73 62 55 54 53 51 46 44 45 47 44 41
91 89 91 85 79 76 77 76 77 83 84 78 82 91 93 84 70 73 77 70 61 57 63 68 73 83 87 81 82 86 84 72 63 56 56 53 49 43 43 48 52 55 54 53
86 81 89 77 82 83 67 78 80 77 77 90 92 96 84 75 72 74 68 63 58 61 65 73 74 76 79 84 85 83 74 66 59 56 50 44 41 42 47 53 58 67 66 66

GFSCGP_prec_cthk_009.txt.gz
RH
16 20 22 21 20 20 21 22 22 23 22 23 23 23 21 19 21 23 21 21 23 26 29 30 31 33 38 42 44 44 46 49 50 51 51 48 49 48 46 45 46 48 49 51
18 20 21 20 19 21 23 24 22 21 24 26 25 24 21 21 22 22 24 27 27 29 32 33 35 38 42 44 45 45 49 53 55 56 54 54 53 52 50 50 49 50 52 53
19 19 20 19 21 23 23 23 25 28 28 29 29 26 25 25 24 26 28 29 31 34 38 40 42 43 45 47 50 53 53 53 54 56 59 60 57 55 53 51 48 49 52 52
21 21 23 24 24 26 26 25 26 29 33 36 31 36 34 29 30 32 32 33 35 38 39 40 42 45 49 53 54 52 54 56 56 56 56 56 57 56 56 54 50 49 54 56
25 24 26 28 29 28 28 27 30 31 38 38 36 38 36 34 34 35 36 39 41 40 40 43 46 50 57 54 55 58 60 61 60 63 62 61 60 56 51 48 46 47 50 54
31 29 29 32 32 30 29 30 33 38 39 46 39 41 39 40 40 42 44 46 47 47 49 51 53 59 60 59 61 62 64 62 63 65 64 62 61 57 51 50 49 49 50 52
36 35 36 36 36 34 34 36 47 47 54 52 43 41 42 43 46 50 54 57 57 57 58 58 59 62 64 65 65 64 64 63 62 60 60 62 60 57 54 53 52 51 49 48
46 43 40 39 37 38 39 41 53 52 61 56 45 48 46 47 53 58 61 61 58 58 60 62 64 64 68 66 63 63 63 61 60 59 57 56 57 55 53 51 48 46 44 44
52 45 41 41 39 41 43 49 47 58 67 68 56 51 46 49 54 60 59 57 58 58 62 65 66 67 67 64 62 60 59 56 53 52 52 52 51 49 46 46 46 44 44 46
49 54 44 41 42 45 45 48 58 67 74 75 61 55 51 51 58 52 53 56 58 59 63 66 67 70 67 65 62 62 62 62 60 60 55 49 45 41 41 42 45 48 53 56
47 51 46 45 47 50 52 58 60 63 72 77 81 61 50 49 53 54 57 60 64 66 68 69 72 75 70 70 68 63 63 63 60 56 52 45 40 38 40 45 47 52 56 61
49 51 53 46 45 46 50 57 58 72 71 72 76 59 49 56 59 59 64 66 66 66 68 72 75 76 75 74 70 64 63 60 57 53 51 47 41 40 42 43 45 55 64 74
46 49 53 46 50 47 49 50 55 62 70 74 79 63 50 56 59 60 63 64 66 66 65 67 71 72 74 77 78 70 66 60 56 55 52 44 40 39 43 52 59 61 74 81
43 48 48 57 48 49 49 53 56 64 75 74 67 60 54 55 55 58 62 65 67 70 71 75 76 72 73 76 71 63 53 54 54 51 48 47 49 53 62 68 70 73 82 90
46 50 48 50 55 56 52 55 55 63 61 72 58 58 52 55 62 67 68 71 71 69 68 74 79 71 70 74 61 55 53 53 52 51 53 58 63 60 67 72 78 83 92 95
50 52 52 50 54 57 58 56 62 58 58 61 59 56 53 59 65 69 68 71 72 71 69 72 73 70 71 68 67 64 61 57 53 52 54 61 68 72 82 88 88 95 97 98
58 62 71 64 67 71 59 58 58 58 56 57 63 57 58 63 66 65 63 67 68 69 73 76 76 73 69 69 73 75 66 57 56 59 67 74 82 77 84 90 94 92 93 92
59 68 75 77 78 82 51 54 54 57 57 57 63 63 65 68 66 68 72 73 76 77 78 75 71 71 77 79 76 67 67 70 74 74 78 83 80 79 81 92 91 85 82 76
63 72 78 81 87 74 57 55 57 58 61 61 69 71 72 74 74 68 74 80 80 79 78 78 87 83 75 69 66 68 65 71 79 79 84 83 86 83 84 83 79 75 70 63
74 78 82 85 90 85 61 61 62 68 75 73 76 77 78 81 85 77 85 88 83 82 77 73 77 74 70 69 70 68 65 75 78 77 80 83 87 84 76 69 65 61 57 53
81 84 85 87 87 78 63 63 67 81 78 75 78 80 81 87 86 87 88 88 86 78 72 71 66 63 61 66 71 67 57 67 74 78 80 83 77 65 60 58 56 53 48 43
82 85 85 85 91 83 68 76 81 78 78 78 76 78 80 83 83 79 84 83 80 86 80 70 60 54 60 69 76 63 61 70 80 84 84 71 62 58 56 53 50 43 39 40
88 79 82 82 82 74 77 78 77 80 76 76 78 84 86 83 83 86 82 77 81 80 69 61 62 59 63 71 77 74 75 84 89 82 70 63 58 56 51 42 35 36 41 44
90 81 84 89 80 75 80 78 82 83 80 83 87 84 78 80 87 77 80 84 80 65 57 59 63 63 69 78 76 83 88 90 81 74 68 60 52 40 39 37 41 45 48 54
89 85 95 86 83 76 74 75 82 87 98 93 84 81 79 77 71 74 74 75 74 61 59 63 64 63 62 61 66 77 84 83 76 68 58 43 38 42 40 43 52 56 68 70
83 79 90 84 76 78 72 81 96 94 89 86 76 74 69 69 61 58 59 60 57 59 53 55 60 55 60 70 79 80 82 79 67 47 44 43 43 41 46 55 62 79 76 75

GFSCGP_prec_cthk_012.txt.gz
RH
17 20 22 21 19 20 21 22 23 20 20 23 24 26 22 20 22 24 25 25 25 29 31 31 33 34 36 42 48 51 51 51 53 53 55 56 54 53 51 51 50 50 48 48
17 20 20 20 20 20 21 23 23 23 24 26 28 27 23 23 24 25 26 27 28 29 30 32 33 36 41 46 52 55 53 57 58 56 55 58 59 59 58 58 56 51 49 47
19 19 20 20 23 26 25 23 25 27 27 29 30 28 28 25 27 27 29 30 31 32 32 36 39 42 46 50 55 58 59 58 56 57 59 58 56 57 58 60 58 57 52 49
23 21 23 25 25 27 28 25 26 29 31 35 32 35 32 31 30 32 32 34 34 35 37 40 44 48 51 53 54 57 58 57 56 58 56 56 56 55 57 57 55 54 51 48
26 27 30 30 29 29 29 28 28 30 34 36 36 36 35 35 33 35 37 37 38 38 41 45 49 51 53 54 54 58 59 58 57 57 58 58 58 59 58 57 52 49 48 49
31 30 32 34 32 31 30 30 31 36 39 44 41 41 39 38 39 41 41 41 43 46 49 51 55 58 59 60 60 61 61 61 60 62 63 64 64 60 55 52 48 45 42 39
36 35 36 37 36 35 35 35 41 45 52 50 41 41 40 41 43 44 46 49 50 53 57 59 59 60 63 63 65 67 67 67 66 67 68 66 62 60 55 50 44 39 36 35
47 42 40 40 37 40 40 41 52 46 60 56 45 45 46 47 51 52 53 54 57 58 59 61 64 67 67 68 69 71 72 72 70 67 61 60 59 57 56 47 43 41 42 35
52 45 43 41 42 42 44 50 48 58 64 63 52 46 50 50 52 50 51 54 56 57 60 64 67 67 70 71 71 70 70 71 70 66 67 63 63 56 50 49 46 43 42 42
47 52 44 44 45 45 47 47 53 60 68 66 55 49 48 52 53 51 55 55 57 60 62 65 67 68 68 68 69 72 71 69 68 67 65 60 56 53 49 46 43 45 48 49
44 47 40 42 46 49 51 55 56 58 66 74 77 60 48 49 50 51 53 55 57 60 63 65 65 67 69 70 71 70 68 62 58 59 59 60 59 51 43 38 40 43 46 50
46 48 48 38 42 47 50 52 53 61 62 71 74 59 47 52 53 51 52 55 58 63 64 66 67 69 71 67 63 62 62 61 56 55 64 67 57 53 53 47 40 45 51 58
41 45 47 35 43 46 49 51 55 61 68 71 77 60 48 51 51 53 56 60 65 64 63 65 65 69 73 71 67 68 66 62 65 69 66 59 57 55 56 51 51 55 62 71
41 46 45 51 41 41 47 51 55 62 74 70 66 59 49 51 53 53 55 62 63 61 62 61 61 66 69 70 66 66 65 69 66 65 64 59 60 57 55 55 54 63 73 80
49 52 51 48 45 45 47 51 56 68 66 75 58 62 56 56 57 58 60 62 62 61 63 65 67 69 68 67 69 69 69 68 70 63 62 60 62 62 59 61 63 73 84 93
52 56 56 56 57 60 59 56 61 63 63 66 65 63 55 56 63 64 61 64 65 67 70 71 70 70 71 71 68 68 67 72 67 64 65 70 65 64 67 73 80 87 96 96
56 62 65 62 63 61 52 51 61 60 58 58 61 54 57 64 67 65 64 66 68 72 70 73 75 70 67 72 71 69 65 63 63 62 64 69 73 68 77 81 84 90 92 88
64 68 73 75 72 77 52 55 58 60 58 56 58 61 67 69 70 71 74 70 75 75 76 79 74 71 74 77 70 63 62 61 62 62 66 72 79 72 77 82 83 79 75 70
64 72 80 83 82 75 58 57 60 62 61 59 64 69 71 74 70 70 70 72 79 82 76 71 76 78 74 67 59 64 64 65 62 66 66 66 69 71 77 70 64 62 60 59
72 76 85 88 93 91 63 65 66 70 74 73 73 75 77 78 78 74 79 85 89 78 75 73 75 73 66 62 64 66 68 63 64 70 73 76 77 72 61 58 57 57 55 50
79 84 89 92 94 81 65 69 74 84 76 73 78 77 77 83 88 92 91 87 74 68 68 74 71 64 61 63 62 62 63 65 66 78 86 87 74 64 60 57 52 40 36 34
75 79 82 88 93 83 67 74 80 76 74 75 79 79 86 93 94 89 89 77 66 66 71 70 58 55 57 58 62 68 72 74 77 83 86 77 71 63 51 36 34 38 35 39
82 74 80 80 80 68 70 77 78 75 76 75 77 86 93 98 98 89 74 64 62 61 62 61 53 52 54 53 51 56 66 76 84 86 79 72 58 38 36 36 37 36 44 49
78 77 81 81 70 67 77 78 77 79 82 80 84 95 95 90 84 73 61 56 52 57 57 51 46 46 42 49 52 59 70 81 83 80 74 46 38 39 39 39 42 52 57 63
86 83 84 83 75 71 73 83 87 84 98 92 93 90 80 73 64 58 56 56 53 51 48 49 45 41 45 53 64 76 85 86 83 74 48 38 42 44 39 42 55 62 69 70
87 89 90 77 80 85 91 90 86 94 90 81 70 66 65 64 61 62 59 56 54 51 47 43 43 45 53 61 74 86 89 86 72 49 41 39 41 47 49 52 57 74 73 74

GFSCGP_prec_cthk_015.txt.gz
RH
16 18 21 21 19 20 21 22 23 21 21 22 24 25 21 21 22 23 24 21 24 27 29 29 31 33 36 38 44 49 51 52 53 54 55 56 56 56 54 54 56 55 54 52
16 19 19 19 20 21 22 22 22 23 24 25 27 25 23 23 25 27 28 29 30 29 31 32 33 36 42 47 49 51 53 54 55 55 58 56 54 55 55 56 54 54 53 50
19 18 19 21 23 25 25 23 24 25 26 27 28 27 27 26 28 30 31 32 32 32 34 35 37 42 47 51 53 56 57 56 56 56 56 56 56 57 58 59 58 55 54 52
22 22 25 26 25 26 26 25 27 28 30 30 31 29 30 30 30 33 34 34 35 37 38 40 44 49 52 55 56 57 58 59 59 60 61 62 62 59 58 58 57 53 53 52
24 27 30 30 30 30 30 29 29 30 32 34 34 31 33 34 34 35 36 37 39 40 42 46 50 54 56 57 59 61 62 64 66 67 67 67 68 63 61 61 54 53 52 49
29 29 30 32 32 32 33 32 32 35 37 39 39 36 39 39 38 38 40 42 45 48 51 52 55 58 59 61 62 66 68 70 71 71 71 69 68 72 67 66 64 57 51 44
33 33 34 35 34 35 35 34 35 40 44 42 39 38 42 43 44 46 49 51 52 54 56 58 59 62 63 65 68 70 71 69 68 70 74 78 75 70 63 61 54 54 51 47
41 38 38 39 38 40 41 40 45 43 48 46 43 45 46 47 49 51 53 53 54 58 61 62 62 64 67 69 70 68 67 69 73 78 79 75 68 64 62 58 60 58 56 56
45 41 41 42 42 43 43 48 46 53 61 56 45 48 50 50 50 51 52 53 56 58 59 60 62 63 67 69 69 71 74 75 67 62 56 56 58 59 56 58 58 53 47 49
44 46 41 42 43 44 44 46 48 53 58 56 45 46 44 49 52 52 52 53 51 52 55 57 59 64 67 70 72 71 69 66 63 62 59 60 59 61 64 54 48 47 50 56
40 43 40 41 46 48 49 51 54 54 59 64 70 46 44 47 49 50 52 52 52 55 59 61 62 62 62 63 64 62 64 66 66 64 64 66 65 62 53 52 54 51 51 55
40 40 37 34 41 45 48 50 49 51 53 59 65 48 42 49 49 51 50 52 55 56 59 59 58 58 60 63 64 65 66 65 64 63 64 62 59 57 51 47 52 57 62 60
39 42 40 33 42 45 46 46 48 54 60 59 69 51 46 51 51 54 55 57 58 59 59 59 61 63 65 67 68 68 66 65 67 65 63 60 57 54 58 60 61 62 61 67
43 45 43 43 38 42 45 47 52 58 69 64 60 56 49 51 54 56 59 62 62 60 61 65 66 65 66 67 64 62 61 63 58 55 53 55 59 60 63 64 65 66 69 78
42 48 47 47 46 49 49 52 57 63 64 74 59 59 54 56 58 60 61 63 62 64 66 69 68 64 63 59 57 56 63 64 60 58 63 67 67 71 70 67 70 76 85 88
47 51 52 55 54 54 55 52 57 62 63 66 67 64 58 58 62 66 66 64 65 67 71 71 68 67 63 60 57 56 55 55 60 65 65 65 68 68 64 68 67 74 76 81
51 57 62 57 59 57 55 53 61 61 62 63 65 57 60 63 68 68 67 69 71 73 76 76 73 63 67 66 59 57 52 54 56 61 62 59 55 56 63 69 72 71 62 60
58 65 70 71 67 67 50 58 61 63 59 61 61 62 65 67 70 71 72 73 77 78 85 79 70 70 74 62 53 50 49 50 60 58 54 57 62 68 70 70 67 61 59 58
58 68 76 79 79 70 58 59 62 65 61 61 63 65 69 71 69 74 76 79 83 82 77 75 73 75 71 57 44 42 46 51 53 57 58 65 71 74 72 68 63 60 51 40
64 71 77 84 89 84 65 63 64 66 67 69 74 77 80 80 79 78 85 90 85 75 73 71 72 70 54 40 39 40 48 56 59 61 67 71 73 71 69 64 48 35 33 34
74 80 82 86 90 76 67 69 70 82 79 80 85 83 81 81 86 86 89 81 79 75 72 68 61 51 38 37 38 41 45 49 59 71 74 81 78 74 57 38 35 33 35 35
70 80 84 88 89 82 69 72 78 75 81 86 84 80 81 87 92 92 87 80 79 67 58 54 51 49 47 37 34 35 39 46 59 71 82 82 77 50 40 40 38 37 39 46
75 74 82 83 79 72 75 73 79 82 83 85 91 93 88 88 84 79 74 70 62 55 50 55 54 44 40 39 42 40 44 56 70 79 87 78 53 44 43 44 43 42 52 57
73 77 83 85 75 77 76 77 80 85 87 93 93 87 76 82 77 64 62 56 54 57 54 50 48 45 43 47 49 52 56 67 78 90 83 55 50 43 44 44 46 53 60 65
77 84 87 83 76 76 76 77 87 86 87 88 86 81 67 59 56 57 56 59 58 55 51 48 47 47 51 54 52 62 67 76 92 89 58 50 47 44 45 47 53 62 68 68
88 89 90 83 82 83 82 87 94 95 85 73 68 58 59 61 58 55 53 51 49 47 43 43 46 48 50 53 59 58 66 80 87 56 48 47 45 44 46 49 58 68 75 86

GFSCGP_prec_cthk_021.txt.gz
RH
19 31 34 24 19 21 17 18 23 22 21 18 22 23 24 21 22 22 24 24 26 31 43 41 38 37 38 41 49 53 58 58 62 65 66 66 67 70 69 70 69 69 67 65
17 27 19 18 18 18 20 22 23 21 21 20 26 29 25 24 25 27 28 31 34 37 37 40 38 37 42 47 50 52 56 57 61 65 68 68 68 69 70 71 73 69 63 64
25 21 16 18 21 20 24 23 26 24 23 22 23 30 27 26 26 28 30 33 36 37 39 40 41 43 46 51 53 57 60 63 65 66 70 72 71 70 71 74 69 68 70 70
20 19 21 22 25 23 28 26 24 23 24 35 28 41 41 35 30 31 34 35 37 39 41 44 46 51 52 55 58 61 63 65 63 62 64 66 68 72 76 72 72 73 77 65
27 24 26 27 26 24 28 26 27 27 28 27 28 25 49 40 36 35 39 41 44 44 46 48 51 54 56 59 59 60 63 65 66 64 66 69 72 79 74 69 66 63 60 56
24 24 26 27 26 25 26 29 29 30 34 38 41 30 50 49 39 39 43 46 49 47 47 50 54 58 62 60 62 61 63 64 65 66 68 69 67 63 61 58 57 55 53 49
28 30 29 28 33 33 33 36 45 51 47 52 43 29 47 42 41 42 45 47 46 49 52 55 59 60 60 60 57 58 61 64 65 61 58 58 58 59 59 59 54 52 50 51
33 42 33 31 33 34 36 36 47 46 48 45 39 34 46 40 40 42 44 46 48 53 56 58 58 57 57 57 61 61 59 58 59 61 62 61 63 62 60 56 56 53 50 49
34 37 32 32 33 33 39 42 34 42 48 43 34 42 44 45 43 42 45 49 52 56 55 57 57 59 60 60 59 56 58 58 61 64 66 67 64 64 59 56 53 48 46 46
31 39 32 31 28 36 32 32 45 45 53 40 36 36 43 55 50 51 48 50 53 53 56 57 58 59 60 59 61 64 65 65 65 65 66 67 66 64 59 53 54 51 50 50
28 29 34 29 37 35 44 48 43 39 43 48 41 35 44 49 47 49 50 54 56 57 59 61 59 61 64 66 67 65 64 64 66 67 67 65 61 60 56 53 51 52 49 50
30 31 32 29 32 33 36 42 42 46 43 50 54 43 44 47 54 54 57 60 59 61 64 66 68 69 68 68 66 64 65 66 68 65 59 55 54 58 59 54 48 47 47 50
29 34 34 33 40 43 42 45 45 45 47 45 64 55 58 59 63 62 62 64 67 68 68 66 66 67 66 67 66 64 67 68 59 54 54 52 62 54 46 45 41 47 55 57
30 32 29 33 32 34 39 41 43 48 55 56 54 57 56 61 65 62 63 67 67 66 65 66 65 64 64 63 62 65 67 62 55 49 50 53 48 43 42 45 49 52 56 64
31 35 31 32 30 34 39 43 45 47 51 61 56 60 63 65 64 64 68 67 66 65 66 66 63 66 64 60 64 66 62 62 61 53 51 48 48 46 49 52 55 58 64 71
31 36 37 35 33 36 42 44 45 47 53 57 62 62 64 64 63 65 65 66 68 67 67 67 69 67 66 68 74 68 64 58 51 49 48 46 48 50 56 56 58 61 65 68
34 36 40 44 38 44 59 48 47 51 57 59 63 62 60 63 67 70 72 70 74 74 71 72 68 69 74 81 77 57 55 55 53 51 51 52 49 55 56 57 59 64 70 68
40 42 52 57 56 65 54 50 51 52 54 56 58 60 64 68 72 67 70 76 77 72 70 69 69 73 72 67 63 63 61 57 58 62 63 55 54 58 58 60 66 74 66 53
41 51 58 63 58 49 53 53 55 55 54 56 60 65 67 69 68 68 73 75 73 72 71 69 61 57 54 62 66 65 61 62 62 63 64 68 61 61 63 68 76 69 60 58
46 53 58 67 75 71 57 63 60 60 65 68 72 70 70 67 69 68 69 73 71 67 71 69 65 59 61 60 63 63 61 65 66 69 60 57 64 67 67 75 77 63 59 57
56 60 66 70 74 62 58 64 63 72 79 77 76 77 75 79 80 77 78 75 71 64 67 63 62 61 58 51 49 53 59 69 76 74 68 65 77 79 75 81 84 59 58 54
52 65 70 71 76 79 64 66 79 77 76 84 82 79 76 79 77 75 76 71 65 62 59 60 60 57 52 49 48 55 60 64 67 62 66 74 79 87 83 90 65 60 54 54
47 53 63 68 68 70 73 78 80 81 87 85 84 78 78 75 72 68 67 63 55 51 51 51 50 46 45 47 48 51 54 51 53 57 67 76 79 80 93 71 57 57 52 56
46 57 66 71 66 73 75 82 87 87 86 82 74 72 72 70 64 61 54 48 46 44 41 40 42 44 47 53 54 51 54 54 64 66 75 84 86 96 67 53 53 52 55 55
56 64 72 76 75 78 85 89 90 89 88 82 75 72 66 60 57 50 46 46 43 36 39 42 46 53 55 56 56 58 59 63 70 76 82 85 93 70 48 48 53 54 57 57
58 67 79 84 89 86 87 91 88 90 82 75 70 63 59 53 50 48 44 43 41 41 43 49 51 53 57 60 62 64 68 75 84 84 86 89 67 51 46 48 52 56 56 58

GFSCGP_prec_cthk_024.txt.gz
RH
19 31 40 34 26 27 28 24 24 31 22 20 17 23 29 23 24 24 24 26 33 37 40 46 48 47 47 44 46 50 53 58 61 62 63 65 67 68 69 68 70 68 69 70
20 31 35 31 17 19 26 23 28 27 22 18 26 29 29 26 26 28 29 30 34 36 39 43 48 49 47 44 46 51 56 59 60 62 65 65 67 68 67 67 70 71 78 75
31 29 15 14 20 19 27 23 29 26 23 20 20 29 31 30 30 32 32 34 37 38 40 43 46 47 46 48 51 55 58 60 63 63 63 63 63 63 64 68 69 73 76 71
24 22 18 21 23 21 26 27 27 21 23 31 35 40 45 43 43 41 35 36 38 39 41 43 45 47 49 53 56 59 60 62 59 58 59 59 62 64 66 67 67 62 60 58
29 25 26 28 27 22 26 25 22 23 26 27 34 36 47 45 47 47 47 40 41 45 48 50 51 52 54 56 59 62 64 61 56 56 59 60 59 57 55 54 54 54 55 54
25 22 23 25 23 23 21 26 27 29 29 41 33 42 56 51 54 58 53 46 47 50 50 51 52 55 57 60 59 58 56 55 58 58 53 52 52 54 56 57 58 57 56 56
27 28 26 23 30 33 33 36 50 68 60 57 49 43 51 50 57 60 56 49 48 47 50 53 57 60 62 61 56 54 54 55 56 57 59 61 61 62 62 62 60 59 57 54
41 48 32 29 30 33 34 34 52 53 63 59 48 39 52 45 49 49 43 45 45 49 52 55 56 57 57 58 59 57 57 57 57 58 58 62 63 62 63 61 58 57 50 48
35 40 28 29 29 29 37 46 31 37 49 46 27 51 57 57 58 56 55 53 52 53 55 58 60 59 58 59 58 57 59 60 58 57 57 57 59 61 56 53 52 48 45 42
29 40 28 25 31 40 33 30 43 58 59 47 36 44 64 63 61 62 60 54 52 55 59 60 59 59 60 60 61 61 59 59 59 59 59 58 59 56 52 48 42 41 39 37
27 31 33 31 34 29 36 43 41 40 48 54 52 43 50 58 60 61 58 58 57 57 59 62 63 60 61 59 59 61 61 62 60 59 60 57 53 50 52 47 43 39 37 35
24 28 34 28 27 28 30 36 39 53 48 56 57 43 43 47 55 58 63 64 66 66 62 63 61 61 61 63 61 63 62 63 65 67 61 58 54 47 44 44 37 36 34 39
25 32 38 37 40 38 33 37 39 45 51 52 58 48 57 58 67 72 69 70 70 68 67 62 60 62 63 59 59 61 63 66 67 62 60 48 47 45 43 39 36 36 39 44
28 29 27 32 30 29 30 31 36 43 60 56 56 55 55 62 70 71 71 66 63 61 61 62 61 64 60 59 60 60 64 65 63 55 50 52 53 48 46 38 40 45 52 54
28 31 28 26 25 28 31 33 37 42 46 54 52 57 61 66 66 64 62 59 59 60 62 61 66 63 59 58 58 61 63 62 57 54 53 53 52 53 52 47 46 54 57 57
29 35 32 28 28 30 31 34 38 42 46 50 54 56 60 63 61 60 61 61 61 62 63 66 66 63 61 61 61 64 68 59 61 61 56 51 56 61 64 53 51 54 54 58
34 35 35 40 36 37 55 47 42 47 52 56 61 60 59 64 64 67 65 65 66 69 69 70 67 67 63 60 58 56 62 67 61 67 61 71 69 58 55 49 52 56 57 66
37 35 44 49 48 54 42 39 43 49 52 55 58 61 66 71 69 68 68 69 71 67 69 67 67 64 60 54 51 54 56 54 56 60 70 62 79 80 62 58 62 59 64 73
36 41 50 55 50 39 40 46 47 51 53 58 64 68 71 69 68 68 73 71 66 66 65 63 63 61 57 58 66 55 49 48 53 60 63 81 95 96 80 67 80 75 73 85
37 45 49 55 62 55 45 51 52 52 61 67 70 73 74 71 73 71 65 62 64 64 57 54 56 59 63 60 55 50 43 44 53 58 75 69 75 83 88 83 95 89 86 91
47 51 56 57 58 52 46 51 54 62 75 77 76 78 78 77 76 68 65 64 60 56 54 52 49 48 48 44 41 42 42 45 47 51 57 62 59 72 91 93 97 86 94 64
46 54 57 56 63 64 55 59 72 72 77 84 83 82 80 77 73 69 64 57 54 49 44 41 38 36 36 38 43 45 46 45 44 45 47 53 67 74 82 81 88 92 53 50
46 44 51 52 55 59 69 71 74 80 84 87 86 83 81 78 73 65 58 53 45 43 39 34 35 33 34 39 50 56 58 49 51 56 61 68 77 86 87 96 97 53 47 48
35 37 46 52 51 62 68 74 80 83 87 87 87 79 74 73 69 62 53 44 42 38 36 38 33 38 44 46 54 57 55 55 61 66 72 81 85 89 97 89 47 46 47 52
38 39 42 50 57 67 82 84 87 87 84 80 77 73 69 67 61 49 43 43 40 39 39 32 40 40 39 39 47 53 57 60 66 75 81 84 92 96 73 49 45 47 50 55
35 36 50 61 65 75 83 90 90 86 79 74 70 70 66 55 45 42 40 36 34 32 28 31 36 38 38 42 47 54 59 65 75 79 85 85 75 52 46 43 43 50 50 56

GFSCGP_prec_cthk_027.txt.gz
RH
33 34 36 30 30 34 31 31 33 27 24 22 19 27 32 31 31 32 30 29 33 37 41 43 47 49 55 63 62 56 46 43 48 52 57 59 65 67 65 66 65 65 62 62
33 32 37 37 31 26 32 31 34 26 23 22 24 29 30 30 34 33 31 34 37 39 43 46 50 54 59 59 55 54 53 54 54 56 58 61 63 60 60 60 63 64 65 65
26 28 25 21 26 20 26 30 31 26 24 20 24 30 32 31 35 39 43 43 38 37 41 45 46 48 48 48 51 52 51 54 56 57 60 59 53 52 56 61 65 68 68 65
25 28 26 17 20 20 26 26 27 26 24 27 30 42 38 36 39 45 49 46 44 44 41 45 48 49 49 50 53 52 53 56 60 60 55 53 53 54 55 55 53 52 53 55
25 24 25 28 26 25 24 24 23 23 25 28 33 42 50 49 49 48 49 49 53 49 44 44 45 46 48 50 52 54 58 60 56 50 49 49 49 50 52 53 55 56 55 55
27 26 24 25 23 25 24 28 29 33 33 43 42 50 57 55 54 55 52 57 61 57 48 45 44 46 48 51 55 57 55 54 56 55 56 57 55 54 53 53 54 53 53 53
28 29 25 23 29 31 31 34 52 58 72 63 50 56 71 64 58 54 55 58 57 52 48 49 51 54 54 54 54 55 54 54 56 56 54 54 56 58 58 58 57 56 53 47
42 45 33 27 28 32 32 35 53 50 68 61 48 57 63 58 59 67 68 64 58 61 58 56 52 55 58 61 62 61 60 58 55 53 51 51 53 55 56 58 58 55 45 37
46 41 31 27 23 27 30 40 29 38 48 53 46 54 60 61 66 73 73 73 68 62 58 56 57 55 58 60 61 59 58 58 56 56 54 57 59 58 58 56 51 38 36 38
36 41 27 29 35 33 32 31 42 51 55 51 47 60 70 60 64 68 67 69 67 61 63 64 62 62 61 59 56 55 55 56 56 57 58 59 58 56 52 41 37 40 42 40
32 37 31 31 30 28 32 37 36 39 50 60 63 54 52 60 66 66 68 65 63 63 68 67 66 62 59 56 55 56 57 56 56 57 60 62 57 47 40 41 45 44 35 32
26 33 38 31 28 28 27 32 34 49 46 61 68 55 50 54 59 65 66 70 72 70 69 66 62 61 58 58 59 62 59 57 57 56 56 51 44 39 39 35 35 40 38 38
27 28 44 35 35 30 27 30 34 43 50 51 62 55 53 60 66 72 71 71 70 71 67 64 63 64 61 61 59 63 60 58 55 52 48 50 42 38 35 32 35 40 45 37
29 26 29 40 30 26 27 26 29 41 58 56 59 54 51 65 63 66 66 65 68 70 67 68 67 64 60 60 62 59 57 55 56 52 46 48 53 51 49 48 58 65 54 47
27 31 30 28 23 22 26 27 30 35 40 50 50 56 59 61 69 72 67 65 67 69 69 66 62 58 56 56 56 54 55 50 48 47 49 54 52 56 60 68 67 84 74 63
27 37 30 24 27 30 27 30 36 37 39 43 51 56 62 64 64 64 67 69 71 70 66 59 56 54 55 54 50 48 48 50 56 58 58 58 61 66 79 89 87 97 87 74
34 37 35 38 36 37 45 36 36 36 41 45 53 55 59 61 62 66 69 71 71 66 60 56 54 55 53 52 51 51 52 56 54 53 53 56 54 57 70 85 93 97 92 78
35 34 40 44 40 38 37 31 32 38 43 47 56 60 63 66 69 72 74 70 65 61 56 54 52 51 49 50 49 48 45 45 46 51 41 35 52 62 79 89 88 94 92 91
33 35 43 48 52 37 33 35 38 41 48 52 56 62 68 72 74 76 75 68 65 60 58 54 49 44 42 44 43 44 45 44 39 31 33 39 42 51 63 79 77 93 98 86
37 40 42 49 53 52 41 40 40 42 54 57 61 67 71 71 75 73 65 64 62 58 54 46 40 39 40 36 35 34 31 28 31 36 48 49 49 52 57 65 76 87 89 81
45 48 51 51 53 44 36 40 43 54 54 62 66 69 74 77 76 73 70 63 60 55 48 44 38 37 33 28 26 27 31 36 43 51 53 53 54 62 69 81 97 94 89 87
41 49 52 52 54 55 37 43 49 54 60 66 71 76 78 79 75 71 65 58 54 48 42 37 35 31 31 29 32 36 38 38 41 49 54 52 60 67 76 81 89 89 76 62
43 40 47 44 43 37 43 46 52 59 68 75 79 79 78 75 71 66 60 57 50 41 38 38 34 33 33 32 36 39 41 43 47 51 50 59 66 72 85 93 90 69 50 47
38 38 43 46 44 48 51 54 59 67 75 81 82 82 77 72 67 64 58 50 41 39 37 34 31 29 27 29 31 34 38 46 50 51 57 65 71 78 83 73 60 49 45 48
32 36 36 41 42 49 54 60 66 75 82 83 84 78 72 68 65 57 50 42 36 33 30 28 25 24 27 27 31 40 42 47 55 55 66 72 73 68 53 47 47 42 47 49
35 37 41 45 39 44 56 66 77 81 85 83 81 73 70 65 58 52 42 35 33 30 27 24 22 23 27 29 36 42 48 54 57 58 71 75 64 50 43 42 42 45 49 50

GFSCGP_prec_cthk_030.txt.gz
RH
35 39 36 32 38 36 35 32 32 33 28 28 28 29 29 30 33 36 38 40 40 39 44 49 53 57 71 75 76 82 79 77 66 66 68 67 70 71 73 72 67 64 65 67
37 35 35 34 34 38 39 38 38 32 30 28 28 28 35 36 38 38 38 39 38 44 47 49 54 64 65 68 70 66 65 67 64 65 65 68 70 71 71 65 65 67 69 69
32 33 34 35 36 34 38 39 37 35 32 30 28 33 34 36 39 42 44 45 52 53 52 54 56 55 56 56 53 53 54 56 57 59 62 64 63 60 58 60 61 61 60 58
28 30 30 27 23 24 29 28 34 32 27 25 24 41 41 42 44 45 43 46 49 57 53 53 50 48 46 47 48 48 51 54 56 55 56 54 49 51 53 54 54 53 53 53
26 29 27 29 27 25 24 23 24 25 26 25 33 43 47 48 47 47 48 58 60 58 58 56 52 48 45 44 44 45 46 47 47 48 48 49 51 50 47 48 48 49 51 51
29 31 27 24 25 24 24 24 28 32 35 41 38 46 50 52 51 57 60 66 63 62 60 53 46 43 44 45 44 47 50 51 52 53 52 48 46 47 50 54 57 55 53 53
28 31 24 25 27 28 28 34 50 55 63 65 53 57 60 57 61 64 68 63 62 63 59 54 57 52 51 49 51 53 55 55 55 51 49 48 49 52 55 58 59 58 54 44
38 42 31 24 31 31 31 36 48 47 61 58 49 61 64 63 60 67 60 65 67 69 68 66 62 58 59 61 60 60 56 50 49 49 49 49 51 55 58 57 54 50 42 36
40 42 33 24 26 30 31 37 30 43 50 52 50 52 56 59 66 73 79 79 79 74 69 64 63 70 70 71 66 62 57 54 53 54 55 54 57 59 61 52 40 36 35 38
37 40 29 29 30 29 28 28 38 43 46 50 51 57 64 64 66 67 67 67 69 69 65 65 71 75 74 67 64 62 59 57 56 58 60 59 58 55 51 44 36 33 33 34
35 37 31 31 31 27 29 31 32 37 46 52 60 54 50 55 57 59 59 63 67 69 74 77 79 74 73 67 64 60 58 56 60 60 56 52 48 42 37 41 40 33 38 41
33 36 38 33 28 28 26 29 32 43 39 54 57 55 52 55 57 57 60 65 70 76 79 78 73 74 69 65 62 59 57 54 53 51 48 43 43 44 39 39 40 41 51 65
30 33 42 35 33 30 25 29 33 39 44 44 52 47 47 52 57 63 67 69 74 75 75 74 73 70 66 60 56 53 51 51 48 43 40 42 45 48 51 49 48 55 59 85
31 30 30 34 27 23 22 25 30 34 48 45 49 41 45 53 57 61 63 68 73 74 73 71 68 65 62 58 53 53 50 44 38 37 45 48 49 55 63 72 68 60 75 81
32 32 29 28 26 24 23 25 27 30 34 42 40 44 48 53 58 64 67 69 71 72 70 71 69 63 59 55 53 48 41 37 39 43 46 51 57 57 50 51 54 66 75 82
30 35 29 25 27 27 25 27 30 33 31 36 43 52 54 57 61 66 70 71 74 74 72 66 62 58 57 53 49 45 40 44 45 45 45 49 47 40 34 31 34 42 65 96
33 35 34 30 34 33 33 30 31 31 33 34 41 48 54 59 64 68 71 72 71 70 67 64 57 56 53 48 46 44 46 46 43 38 34 29 26 32 39 36 38 42 55 68
37 40 40 35 34 29 29 28 29 36 39 39 45 51 55 61 66 70 72 71 69 68 64 60 56 50 45 40 40 42 40 34 29 27 25 27 35 41 44 39 47 58 67 74
35 38 42 37 44 30 27 30 31 34 44 46 50 53 58 63 67 72 74 73 73 68 65 57 48 43 40 39 40 34 28 26 26 25 29 35 39 43 43 46 54 65 77 90
39 38 36 48 36 36 31 31 33 35 45 47 50 54 61 67 73 74 74 77 71 66 59 50 45 42 38 36 28 26 26 29 33 37 37 42 46 45 48 55 61 70 81 89
46 47 48 50 49 40 31 34 36 47 42 47 53 59 67 69 72 74 77 71 66 61 54 47 44 39 37 32 32 32 31 35 33 34 40 45 45 48 56 63 75 83 85 82
39 45 48 50 52 47 30 36 38 35 43 51 55 61 68 72 75 78 73 69 63 55 48 45 41 38 35 33 30 28 28 28 30 37 40 44 46 54 62 70 79 80 70 57
36 32 39 39 39 31 33 35 34 39 49 55 59 67 73 75 75 76 71 64 58 51 47 43 36 33 31 30 30 28 28 32 36 42 45 48 49 62 68 74 73 59 53 47
33 35 40 41 34 37 39 42 42 51 56 61 64 71 76 77 76 74 68 62 52 46 42 34 33 30 29 29 28 28 30 34 40 46 52 51 53 66 69 61 48 46 46 44
32 37 38 43 43 45 46 46 48 56 63 66 72 77 78 81 75 72 63 52 49 41 36 34 32 30 29 27 26 29 30 37 44 51 53 53 60 63 57 49 44 43 44 45
35 36 40 41 39 42 42 47 53 63 69 76 77 75 81 79 74 62 55 49 40 37 35 34 32 30 28 27 26 27 34 41 46 48 51 55 62 61 53 46 45 46 45 46

GFSCGP_prec_cthk_033.txt.gz
RH
27 29 28 24 29 33 33 26 32 31 30 29 30 29 28 27 30 35 40 40 41 45 48 52 50 55 59 68 81 83 83 81 76 75 76 72 70 68 70 71 71 69 69 70
31 30 30 39 41 38 36 36 30 32 36 34 35 32 33 34 36 38 40 45 47 49 59 62 59 64 73 78 69 67 67 69 70 67 63 64 64 66 69 71 67 66 65 61
33 34 37 42 40 43 42 40 37 36 36 34 32 35 38 40 43 45 50 52 58 61 62 63 63 66 65 61 57 57 56 54 54 55 58 63 63 61 59 57 57 55 54 52
31 30 33 36 32 33 41 39 36 37 38 40 37 46 41 43 48 52 53 53 57 62 65 68 63 60 59 58 54 53 52 51 52 54 54 55 55 57 58 57 54 54 54 56
32 34 33 32 29 25 26 28 29 32 34 34 37 44 39 44 48 52 55 57 60 66 70 66 66 62 58 55 51 49 50 51 52 50 50 52 56 57 54 53 55 56 56 54
33 30 29 28 28 27 26 28 32 35 35 41 36 39 42 45 47 52 56 60 66 66 74 69 66 60 57 57 58 57 55 54 54 54 56 53 50 52 53 56 57 56 51 45
33 31 27 26 28 28 27 33 46 51 55 53 44 50 47 44 50 58 63 61 68 71 65 67 69 64 68 69 67 63 62 60 59 56 52 51 51 54 56 57 56 49 42 35
37 37 27 26 29 30 30 33 46 47 58 54 49 58 54 52 53 55 58 59 61 68 73 76 78 74 71 68 67 65 63 58 56 55 52 52 53 54 54 48 43 34 31 32
37 37 33 25 28 29 32 35 30 44 48 50 48 46 48 50 53 56 58 59 73 78 74 65 61 64 68 69 67 65 61 59 57 53 52 53 51 48 44 44 38 34 34 35
38 42 33 29 28 29 28 29 37 41 44 45 45 49 52 50 52 56 62 65 62 59 59 59 65 71 73 72 68 66 64 61 57 56 52 47 42 38 36 38 40 41 42 43
39 39 37 32 32 29 30 29 31 36 44 50 54 46 38 45 48 53 54 55 57 59 65 71 76 75 75 72 71 69 63 60 57 52 48 42 37 35 35 41 45 47 52 59
40 40 44 33 30 27 27 28 29 37 33 50 51 42 37 41 48 51 54 58 61 64 69 72 75 78 78 74 70 65 65 60 56 51 42 41 40 41 45 49 51 57 53 59
34 39 45 38 33 28 27 28 33 33 37 39 46 40 37 43 48 51 54 57 60 64 69 75 77 74 69 68 71 69 62 56 50 45 42 38 40 45 48 49 42 40 33 31
34 37 33 34 27 26 23 23 29 31 44 41 40 33 43 45 49 53 56 59 63 69 73 72 70 70 74 75 69 63 53 48 47 44 41 45 45 43 41 35 31 32 32 34
32 33 33 30 28 23 21 22 28 30 30 36 30 35 36 44 49 53 57 61 64 68 71 71 71 74 74 69 65 55 47 46 43 40 41 40 34 28 27 30 33 36 37 34
32 39 32 30 32 30 24 21 26 27 27 31 34 38 39 44 50 55 60 63 66 67 68 72 75 72 66 63 59 48 46 41 35 35 29 27 28 30 33 33 34 33 35 45
31 36 34 29 37 29 27 21 26 26 27 30 41 36 42 49 52 56 61 65 67 69 72 76 73 69 65 57 47 45 41 35 32 27 29 31 33 33 32 34 32 33 40 50
36 40 39 35 34 30 20 24 25 27 32 32 34 37 43 49 52 57 62 65 66 68 73 73 70 65 57 50 47 43 37 31 29 31 33 36 34 30 34 33 35 40 46 56
36 38 45 41 41 27 22 27 29 29 31 34 35 42 48 52 56 61 66 65 66 70 71 71 68 59 53 48 46 39 32 33 33 34 35 33 34 34 35 35 39 47 58 69
40 37 37 48 35 32 21 26 26 30 39 33 38 43 50 56 63 63 65 67 72 72 74 70 62 55 50 47 40 36 35 33 32 31 33 37 38 36 37 38 47 56 69 75
49 47 45 51 43 34 23 28 31 42 32 33 37 44 51 58 61 62 70 74 72 73 72 66 58 53 46 41 36 33 32 31 32 35 38 39 38 40 41 43 56 63 75 67
43 47 49 50 51 41 24 32 36 32 31 33 38 47 56 60 65 73 76 75 72 74 70 63 53 48 40 35 32 32 32 34 36 36 38 40 42 43 45 50 62 69 66 57
41 33 38 37 36 27 29 30 33 36 36 39 43 53 60 63 71 74 77 74 76 73 65 55 49 41 37 34 33 33 34 35 34 35 38 41 46 47 49 57 62 61 53 48
36 34 36 36 30 33 34 35 38 40 43 45 52 59 64 71 80 78 76 77 76 66 57 50 43 40 38 36 35 36 35 33 35 36 40 44 45 50 53 59 57 52 46 46
37 38 39 42 37 40 39 39 41 46 50 51 57 61 69 79 79 80 80 78 67 58 51 44 43 41 39 37 37 35 32 32 35 38 43 47 49 54 58 57 56 55 48 47
38 38 42 41 34 37 37 40 46 50 52 56 64 72 77 77 79 81 77 67 58 51 47 45 43 40 40 38 34 31 29 33 36 41 48 50 53 60 63 56 57 58 50 48

GFSCGP_prec_cthk_036.txt.gz
RH
37 39 39 35 29 26 22 29 28 28 27 30 35 36 36 35 39 42 42 44 47 47 49 52 58 60 64 75 81 89 93 90 87 87 81 75 74 66 65 63 63 62 60 60
32 33 32 31 31 34 29 30 33 33 32 33 40 39 36 34 39 41 41 45 48 52 56 59 62 70 76 83 82 73 71 69 69 68 64 61 59 58 56 55 53 52 52 50
32 33 32 34 40 40 40 37 36 35 36 37 37 41 42 38 36 38 41 45 49 53 58 63 64 70 69 68 65 62 59 56 53 50 48 48 47 49 52 54 54 52 50 51
34 33 34 40 42 36 42 38 35 35 34 40 38 44 42 42 43 45 48 52 54 56 58 59 61 62 61 61 59 57 54 53 51 53 54 52 54 55 55 57 56 56 58 55
30 33 34 37 35 29 30 32 33 33 35 36 38 42 39 46 50 50 52 54 55 57 58 60 66 64 63 58 57 57 59 61 64 61 57 58 59 58 57 56 56 57 53 46
33 33 33 34 31 28 27 29 34 39 40 46 36 35 37 41 40 48 51 55 58 61 60 67 70 65 66 70 71 70 72 69 65 67 65 63 60 54 55 54 52 48 41 33
35 34 31 29 29 28 29 33 44 48 51 49 41 44 41 41 44 50 55 58 59 60 62 62 67 74 75 80 82 77 75 73 72 71 66 60 58 57 54 51 47 40 36 33
40 38 30 28 28 31 32 33 49 47 57 52 47 51 45 46 46 51 54 56 57 59 66 76 78 83 79 72 72 75 76 74 70 66 59 59 57 51 48 44 37 34 34 34
38 36 31 27 31 32 34 37 35 47 49 50 46 43 41 40 41 45 50 54 57 60 66 72 68 67 69 70 73 75 74 69 67 62 61 54 51 49 45 40 36 36 38 41
35 39 34 33 29 29 32 34 39 42 40 40 40 43 44 41 43 45 49 52 55 60 60 59 62 66 70 71 71 74 71 68 63 64 59 54 49 44 41 40 42 43 44 43
38 38 42 34 30 33 33 32 33 36 42 46 49 40 33 37 40 43 47 50 53 55 56 57 59 61 65 70 73 73 68 69 72 65 58 50 44 43 44 44 46 46 42 40
39 43 47 39 33 31 29 30 29 34 30 47 47 37 30 35 37 41 46 50 52 53 54 58 62 65 70 73 71 68 76 77 66 61 55 48 47 46 45 45 41 37 37 34
35 41 50 41 34 31 29 31 31 31 36 38 44 31 29 32 35 41 46 51 53 55 58 62 65 68 70 68 71 83 76 65 62 59 55 51 45 39 36 32 30 30 31 31
33 39 38 41 31 30 25 27 28 27 41 36 36 26 29 32 36 42 47 50 52 57 62 66 67 67 66 74 84 69 68 65 62 57 49 41 36 32 30 31 30 31 32 31
33 36 37 35 33 26 22 21 26 27 27 30 25 29 26 32 37 42 47 51 55 59 63 65 66 67 72 74 72 70 67 62 54 48 42 34 33 34 33 32 30 32 32 31
36 40 34 34 36 33 28 24 24 25 25 29 28 28 27 29 36 42 47 51 54 58 62 65 68 73 74 71 70 67 62 55 47 42 35 35 35 34 34 33 31 33 32 34
34 38 37 37 37 31 28 23 25 23 23 25 30 24 31 34 37 41 47 50 55 60 64 68 70 68 67 69 69 64 57 50 43 37 36 37 36 34 34 35 35 32 30 36
36 36 35 35 33 28 18 22 24 24 23 25 27 29 32 34 39 44 48 52 59 62 66 68 68 69 71 71 66 59 53 45 37 36 37 36 33 34 35 35 34 35 34 44
38 37 42 37 38 25 19 24 28 28 24 28 29 32 34 38 43 45 50 56 59 64 68 70 70 68 69 68 62 55 46 38 37 37 36 34 35 34 35 35 36 38 41 53
44 41 41 48 35 31 20 22 24 25 34 26 28 33 36 41 48 44 51 58 63 67 70 70 71 71 71 65 55 47 40 40 40 37 35 35 33 36 36 38 38 42 48 59
55 52 46 52 44 33 22 25 27 35 29 28 28 32 36 40 42 46 52 58 66 70 71 74 77 74 67 56 49 42 42 42 37 36 35 33 37 37 41 40 43 48 55 63
50 54 54 52 52 41 25 30 33 30 28 29 34 34 36 41 49 52 57 64 74 76 75 81 78 68 57 50 45 45 43 39 38 36 33 35 35 39 42 44 48 53 54 58
45 40 42 40 37 28 28 29 30 32 34 35 37 39 43 51 56 64 65 77 76 74 82 80 68 59 50 47 47 43 41 40 36 33 35 35 37 40 45 49 53 58 57 56
39 36 38 36 29 31 33 33 36 38 39 41 43 49 53 61 64 71 78 78 81 84 82 68 59 51 50 49 44 43 41 37 33 34 35 36 39 45 49 52 57 57 55 55
36 36 38 40 37 37 36 36 37 38 41 45 51 57 62 69 73 79 85 87 84 80 66 59 54 53 51 47 45 42 37 33 32 33 34 38 45 50 55 59 59 61 59 58
37 39 44 44 36 38 37 39 41 43 47 52 57 64 72 75 84 94 91 88 80 69 60 57 56 52 49 46 42 38 36 33 33 35 37 46 51 55 62 67 65 65 63 60

GFSCGP_prec_cthk_039.txt.gz
RH
40 39 34 32 31 28 24 34 32 30 30 34 38 37 35 38 38 40 41 41 45 48 50 52 55 56 59 65 73 83 87 91 86 75 71 65 62 66 65 61 55 53 52 53
43 40 39 37 34 33 31 37 33 35 34 32 37 37 37 34 36 41 41 44 47 50 54 56 59 60 68 72 78 79 75 62 55 53 52 54 56 53 52 50 52 53 54 53
38 32 35 35 36 39 36 33 37 38 40 38 35 35 37 38 36 38 43 45 48 52 54 56 61 61 60 62 62 60 56 54 49 51 55 60 63 63 60 59 61 63 61 57
41 36 35 39 42 39 39 37 32 29 31 33 33 29 34 39 41 40 41 42 46 53 59 60 59 58 62 65 61 59 57 57 60 65 70 71 69 66 63 61 62 61 58 53
40 38 36 40 39 37 39 41 40 37 36 33 33 33 35 43 42 41 43 48 54 60 60 57 60 60 61 65 64 68 70 70 75 79 78 76 68 66 68 66 61 55 51 46
36 32 33 32 38 39 37 33 34 35 35 38 34 33 30 38 35 44 48 54 58 58 57 61 64 62 62 68 76 78 80 79 77 74 73 71 69 68 64 59 53 48 42 38
33 34 35 34 35 35 30 29 35 36 40 36 36 39 32 34 40 45 50 55 55 57 61 61 60 66 75 77 74 76 75 74 71 72 73 71 67 64 57 51 45 42 40 37
37 35 34 32 30 30 32 32 38 40 46 43 42 42 35 39 39 44 50 51 52 54 55 59 62 65 67 65 63 67 70 72 75 73 69 68 66 61 55 48 45 44 42 40
38 36 32 31 32 32 34 33 33 44 50 44 35 36 34 35 34 38 43 46 50 52 55 60 62 60 59 61 64 65 68 72 75 70 71 72 66 57 54 53 48 44 43 43
35 38 33 32 30 31 31 34 38 38 39 35 30 32 27 31 33 35 40 43 46 51 55 59 59 57 58 61 64 67 70 70 69 75 77 69 60 58 54 52 49 45 41 37
31 35 37 37 34 32 33 36 34 33 36 32 34 24 27 28 31 33 37 41 46 50 52 51 54 56 61 63 65 68 65 67 75 77 72 65 62 57 55 49 41 36 32 30
33 40 45 44 38 33 33 32 30 30 28 39 37 26 24 26 29 33 37 41 45 48 50 53 55 58 63 65 67 68 70 76 79 74 67 65 61 56 46 37 33 32 31 31
34 39 45 41 37 37 33 32 31 30 32 32 41 23 24 27 28 32 37 41 45 50 54 57 61 63 66 69 73 69 72 79 73 68 65 61 54 43 37 36 35 34 32 30
33 36 38 40 34 35 31 33 31 29 33 28 28 22 20 25 27 31 36 41 47 52 56 59 63 66 68 71 68 75 80 70 65 63 59 51 42 41 41 40 37 33 32 31
35 34 36 37 37 33 28 26 28 26 25 26 20 21 19 21 25 30 35 41 46 52 55 59 64 68 68 67 78 69 64 63 64 58 50 45 45 44 44 39 35 33 31 30
39 38 36 37 38 36 32 27 25 27 26 25 25 22 21 24 26 31 36 41 46 51 54 58 62 66 69 68 65 65 66 64 58 53 48 47 46 44 40 37 35 33 32 31
39 40 39 38 37 32 32 25 25 25 24 24 27 19 23 26 28 30 35 41 45 49 53 58 61 64 64 64 68 68 65 60 56 49 47 46 43 41 39 36 33 32 33 34
35 36 36 36 32 28 19 22 23 24 22 23 23 23 26 29 31 32 36 41 45 50 54 58 62 62 63 68 69 70 64 57 50 47 45 44 42 40 36 33 33 34 35 34
37 36 40 39 32 24 18 21 24 27 22 22 22 25 30 32 33 34 37 43 47 50 56 60 62 64 70 73 73 68 59 52 47 46 45 42 40 35 33 33 34 35 33 36
46 44 45 46 35 33 21 22 25 26 30 22 26 30 32 32 37 31 39 44 48 52 57 61 64 73 72 74 72 62 54 49 49 47 43 40 34 33 33 35 37 33 38 43
56 55 51 51 46 35 25 26 28 30 26 24 27 28 33 34 34 36 40 46 51 56 61 69 74 75 79 75 63 53 50 52 48 47 42 36 34 34 35 37 35 38 43 49
46 53 55 53 51 44 29 31 33 30 28 29 31 32 34 37 39 43 48 55 58 64 72 82 80 82 76 62 53 53 55 50 48 42 37 37 33 35 37 36 39 44 48 54
42 41 42 39 36 30 29 30 30 32 34 36 38 41 44 46 49 53 60 66 66 81 73 79 85 76 64 56 59 59 54 50 44 38 36 33 34 37 36 39 45 49 53 55
39 38 38 37 30 32 34 34 35 37 39 43 44 45 48 53 59 63 69 76 81 76 88 84 74 64 61 65 61 56 50 44 38 35 35 36 39 35 38 44 49 55 60 57
38 38 39 39 37 37 36 37 39 40 41 43 46 51 56 62 66 70 78 85 88 92 88 75 64 68 68 62 56 49 44 39 37 37 37 38 35 36 42 49 55 61 64 62
39 40 44 45 41 42 43 45 46 48 50 54 57 61 64 71 74 80 93 95 92 82 70 72 72 65 61 54 48 42 40 40 39 38 38 37 36 42 47 53 60 66 69 63

GFSCGP_prec_cthk_042.txt.gz
RH
43 40 36 34 30 29 27 33 30 27 25 26 26 32 35 41 44 43 39 41 44 48 49 49 51 55 58 62 66 73 79 81 82 87 73 64 56 59 57 54 51 51 51 51
42 42 37 35 31 29 28 32 40 39 32 32 34 34 33 34 37 39 41 42 44 48 51 54 56 60 61 64 70 72 75 67 60 58 53 55 57 62 64 65 62 60 60 62
44 39 39 37 36 35 36 35 40 35 39 38 36 35 36 35 37 36 38 42 44 50 52 54 56 59 63 65 66 66 66 57 54 59 60 63 70 74 73 72 70 67 68 65
42 37 34 33 35 37 38 35 30 29 34 38 34 34 35 36 36 36 40 43 46 48 50 53 55 60 60 63 58 59 62 63 64 68 72 76 80 79 73 70 71 71 66 59
41 40 37 38 38 37 42 41 41 38 36 33 31 29 38 34 34 36 37 42 44 46 50 55 59 60 60 56 57 60 65 69 70 72 76 78 76 72 70 73 73 67 60 50
43 43 40 37 38 39 42 40 35 37 37 34 29 26 24 31 29 33 38 45 45 51 54 55 56 59 56 53 60 71 71 67 68 68 68 71 73 73 74 74 70 65 55 52
43 40 37 35 36 36 40 36 32 33 34 31 31 28 23 27 30 36 41 46 50 52 53 55 59 56 56 62 65 66 67 65 68 69 69 70 72 72 77 74 63 56 54 54
37 36 31 34 37 35 32 30 30 28 32 31 33 30 32 31 32 36 44 48 49 49 52 56 56 59 63 63 66 64 67 69 67 67 67 64 70 75 74 63 58 57 59 58
33 35 33 33 33 31 32 30 31 34 40 38 27 26 28 29 30 32 39 44 47 48 53 55 59 62 63 61 61 63 65 67 65 66 64 68 71 72 65 60 58 58 57 53
33 37 33 32 31 32 31 31 32 33 36 27 21 22 21 24 27 30 35 39 43 46 51 55 60 62 59 58 61 64 67 67 66 66 65 71 76 66 60 56 59 55 46 41
31 31 34 33 32 31 33 32 31 31 30 25 22 18 20 22 23 27 32 36 40 45 48 53 59 57 57 60 65 68 67 64 68 67 74 77 67 60 58 57 49 43 41 39
28 30 35 34 34 34 29 31 30 27 26 32 31 19 17 19 21 25 29 35 38 43 46 52 54 56 60 63 66 66 65 70 76 76 76 66 59 57 53 49 46 44 43 40
25 31 37 36 35 38 34 32 29 27 27 28 38 17 17 19 21 23 27 33 37 41 45 49 53 56 59 63 66 65 70 76 77 72 62 60 55 50 48 48 47 46 42 39
31 32 32 35 36 34 35 33 30 27 31 23 21 14 17 19 19 22 24 29 35 39 45 51 55 58 61 63 62 66 78 75 65 62 61 53 49 49 51 51 47 43 40 37
35 36 33 33 33 34 31 30 29 28 23 24 15 15 15 18 18 22 23 28 34 40 44 49 55 59 61 61 62 72 73 65 62 61 55 51 52 52 54 49 45 42 38 36
40 40 36 34 35 35 33 29 27 26 23 23 21 18 19 20 21 23 25 29 33 38 44 49 54 57 60 59 65 71 62 62 63 57 53 54 54 55 52 47 45 41 39 40
43 42 39 35 34 33 38 28 25 24 23 24 25 22 23 21 23 26 28 29 33 39 44 48 53 57 58 61 67 61 66 68 62 55 58 56 54 53 49 47 43 41 41 38
42 41 40 38 35 47 20 21 21 22 22 22 23 23 24 24 26 28 30 32 35 40 44 50 53 56 58 63 59 74 73 66 59 61 59 60 56 53 50 47 42 40 40 36
36 35 42 48 32 25 19 20 21 23 19 20 20 21 23 27 29 28 28 32 38 44 48 52 55 59 61 66 74 71 74 68 63 61 64 58 57 53 48 44 40 39 36 37
44 42 43 47 56 58 26 26 27 26 27 21 22 24 27 29 31 29 32 36 42 47 50 53 57 58 63 71 82 76 73 62 61 67 62 61 54 50 45 41 39 36 40 40
55 56 58 52 55 37 30 28 29 31 28 25 26 27 29 34 35 37 39 44 47 51 53 56 60 69 74 82 80 69 60 64 72 60 55 54 51 45 42 40 38 40 42 43
43 50 55 50 57 51 27 29 32 30 28 29 33 35 37 41 43 44 47 50 53 58 62 67 73 83 85 78 68 62 71 71 61 55 51 49 46 43 40 41 41 41 41 47
39 36 37 36 35 29 30 29 31 32 33 36 39 42 45 46 48 50 53 58 63 65 74 80 88 88 79 69 67 77 68 61 53 46 45 46 43 39 40 39 39 41 46 52
35 35 36 35 31 31 32 34 35 36 37 39 41 43 45 50 53 58 62 65 71 79 85 93 91 83 69 77 70 64 60 51 47 44 46 45 44 43 40 40 39 44 52 59
37 38 38 35 34 34 37 39 42 44 46 48 50 53 57 59 61 63 67 73 82 92 92 86 76 77 80 72 66 59 52 49 47 46 44 42 42 41 41 41 45 51 56 63
41 40 40 41 41 43 45 49 52 53 55 57 58 59 61 64 69 75 84 92 95 93 88 90 87 76 71 66 60 54 51 49 45 43 45 44 42 40 40 44 50 55 59 64

GFSCGP_prec_cthk_045.txt.gz
RH
47 47 46 47 40 40 38 29 29 28 25 28 29 31 27 32 39 51 51 47 47 51 51 53 55 57 60 66 68 71 70 68 78 76 65 64 71 67 60 61 61 61 59 60
50 52 48 41 35 35 33 40 32 32 26 28 29 37 33 36 38 42 45 45 48 52 52 55 57 59 63 62 65 66 69 74 73 69 66 66 62 64 69 71 69 68 65 65
56 50 38 36 35 36 36 37 51 40 30 31 39 40 28 29 36 40 43 47 50 49 52 54 56 60 61 62 66 73 74 67 65 60 61 62 65 66 68 69 68 67 67 66
57 49 41 39 41 35 44 31 34 33 27 37 32 36 47 40 31 37 41 44 45 49 54 54 56 57 61 67 69 71 63 57 57 59 63 66 67 68 68 71 68 68 69 66
50 42 35 37 44 28 54 33 37 37 34 42 43 29 37 49 40 37 34 40 46 50 51 51 55 58 64 63 59 60 58 60 64 61 62 66 68 70 71 71 72 76 72 68
52 44 38 49 35 37 37 39 43 37 39 43 32 41 32 43 47 43 34 40 45 46 48 47 51 55 55 58 61 59 59 62 62 61 62 65 68 68 69 69 74 74 68 63
49 48 39 36 37 35 36 41 51 51 42 39 39 32 29 34 34 34 34 41 47 47 44 44 48 51 54 58 58 60 61 61 62 61 64 64 65 64 65 71 73 72 64 62
47 48 37 33 38 51 44 44 45 42 36 33 40 25 42 31 25 27 36 43 47 44 44 46 50 52 55 57 60 61 62 62 64 64 66 65 62 65 66 71 74 63 61 60
48 48 43 34 32 36 47 33 36 36 39 32 21 35 28 23 25 27 35 41 46 46 45 48 51 55 56 58 59 60 62 62 64 65 65 64 66 68 74 69 60 62 58 51
47 49 42 32 33 31 30 39 34 32 37 32 25 24 33 26 22 23 31 37 41 42 42 45 49 52 55 60 61 61 62 64 66 67 67 70 73 74 73 61 59 52 49 51
40 37 50 35 30 35 40 29 27 30 37 37 28 28 24 18 20 23 27 33 37 38 42 46 49 52 57 61 60 62 63 65 66 66 67 72 74 73 63 57 51 49 53 53
37 41 41 38 35 27 28 31 31 34 34 30 34 22 21 17 19 21 24 30 33 36 38 43 48 52 56 59 59 61 65 66 66 63 76 85 67 62 55 53 50 54 55 52
35 29 36 41 31 25 27 30 28 32 33 30 37 25 24 19 16 18 21 26 31 34 37 42 45 50 54 56 59 61 63 64 64 68 83 69 64 56 55 53 56 57 56 54
26 23 34 40 44 47 42 34 34 34 34 26 23 24 24 21 20 20 21 23 29 33 38 40 42 47 52 56 60 62 64 63 66 71 73 62 57 57 56 58 58 61 58 53
30 31 32 32 35 35 35 33 34 33 30 32 25 22 17 20 20 21 24 24 28 35 34 37 41 47 52 56 60 63 64 68 67 69 62 59 62 58 60 64 65 59 57 53
32 37 35 37 34 30 30 29 30 28 28 26 24 24 22 22 23 22 22 26 29 34 34 38 42 48 52 55 59 64 65 66 64 69 68 66 58 63 69 68 63 67 60 58
46 44 43 41 35 31 36 27 26 26 26 27 28 25 29 27 25 25 26 28 27 30 35 40 44 49 53 57 62 62 63 63 74 74 69 60 69 69 66 66 67 59 57 52
44 45 49 47 43 53 24 23 22 23 23 25 27 25 25 25 25 26 27 31 31 33 37 42 46 50 54 59 60 61 63 76 73 72 64 66 69 72 70 65 59 58 54 51
40 44 48 55 37 30 25 22 23 23 21 23 24 21 24 24 25 26 32 29 32 35 41 47 51 52 55 58 61 67 74 71 69 75 69 75 76 67 62 58 57 55 51 47
39 40 40 41 54 60 33 28 26 27 29 27 26 27 26 27 31 35 37 32 35 40 46 50 49 52 57 61 66 71 80 80 76 72 78 70 67 61 59 58 56 53 51 46
55 56 56 54 59 44 34 31 28 32 36 30 26 29 30 31 38 37 37 38 42 45 49 52 54 61 63 68 79 87 83 74 76 82 74 66 61 58 60 57 54 55 50 43
46 52 58 56 62 54 29 28 30 36 28 32 30 33 36 39 41 40 45 47 50 54 56 59 64 66 74 84 86 79 73 86 81 70 66 62 58 58 58 57 54 47 45 39
43 39 42 37 42 37 29 31 33 31 31 35 36 38 40 42 46 47 52 55 57 58 60 62 73 82 91 94 84 87 86 78 74 65 64 60 57 57 55 53 48 44 37 45
36 35 36 34 32 34 35 35 36 38 38 39 40 42 44 49 55 58 59 57 57 63 75 87 94 94 91 84 89 84 79 71 66 66 60 57 53 50 46 47 44 39 43 50
39 37 36 36 35 36 40 42 43 42 45 47 50 51 55 58 60 60 61 65 77 84 93 95 92 90 93 87 81 76 74 65 59 55 52 49 46 46 47 43 43 44 50 55
38 40 44 44 43 42 46 47 47 50 53 55 57 57 60 64 66 71 80 87 93 95 95 95 92 88 83 80 73 66 59 54 49 47 45 45 45 41 42 45 42 51 54 59

GFSCGP_prec_cthk_048.txt.gz
RH
49 51 51 52 45 44 43 41 39 37 31 28 32 39 29 23 38 52 49 42 40 40 43 46 49 50 52 54 57 63 66 67 67 68 72 63 57 60 60 59 51 49 48 48
52 58 51 48 45 43 37 40 38 32 27 22 32 29 26 20 28 44 47 47 45 44 44 45 48 50 54 54 57 63 64 66 71 75 63 52 55 55 51 48 49 53 55 59
49 63 54 54 44 37 37 45 41 45 32 21 36 29 33 29 32 34 36 43 45 46 45 46 50 51 55 58 58 63 68 69 69 66 54 53 52 49 50 54 57 61 63 62
56 57 51 49 42 39 48 48 45 47 44 34 35 51 46 43 36 42 45 40 41 43 45 49 53 56 56 59 64 65 66 63 63 58 54 52 52 52 60 61 61 62 62 64
61 49 52 42 41 43 41 44 46 39 37 40 46 51 49 49 40 39 44 46 45 48 50 50 52 54 54 56 57 62 64 58 60 56 56 58 61 64 67 70 69 68 66 66
51 58 55 46 46 32 31 33 35 37 39 44 48 54 55 54 57 60 55 45 41 45 53 52 55 56 53 53 59 62 56 58 58 58 60 60 62 65 66 65 64 64 69 71
42 41 42 38 34 28 27 35 45 81 74 46 33 39 36 48 54 48 48 47 45 47 48 49 51 54 55 53 52 54 58 61 60 60 59 60 63 67 66 67 67 68 72 68
50 56 45 32 31 45 45 44 64 66 62 51 43 41 39 31 31 31 34 37 41 44 45 44 46 47 51 51 52 56 60 59 57 57 59 60 63 64 66 68 70 72 67 60
49 53 55 45 34 31 54 47 45 41 47 42 22 17 38 38 25 20 28 33 38 42 43 42 42 44 46 50 53 56 59 58 56 60 60 61 63 63 66 71 75 69 57 55
48 58 67 47 35 24 25 33 40 37 38 34 33 31 48 43 32 19 28 33 37 39 41 40 42 44 47 48 53 55 61 59 58 59 62 65 64 64 70 82 77 73 56 48
40 55 59 53 34 24 39 43 29 27 42 52 44 43 36 33 26 20 25 32 35 36 36 37 41 43 47 51 53 55 62 64 63 63 65 66 66 67 74 82 79 55 49 48
29 44 46 41 39 31 33 40 39 51 36 41 42 38 34 28 21 20 22 31 34 36 35 36 39 44 45 48 55 61 65 67 65 64 67 69 71 67 70 84 75 55 52 57
36 35 41 38 44 35 29 21 25 31 42 38 55 31 27 26 24 23 20 26 32 35 37 39 43 47 50 51 56 60 63 67 65 69 72 80 74 79 69 67 52 55 61 66
32 36 33 38 32 49 50 47 33 39 49 38 35 26 33 29 28 26 24 22 28 35 39 45 50 53 51 52 55 58 61 60 65 71 77 70 81 64 63 68 60 63 73 67
26 27 25 26 35 41 40 45 43 39 39 42 34 31 30 28 34 31 28 26 27 28 40 45 51 52 50 51 53 57 58 61 71 74 72 72 68 68 80 65 65 80 72 67
26 30 37 38 37 36 35 31 31 30 31 31 32 31 31 33 32 28 28 26 26 30 37 42 40 45 47 51 54 56 60 68 71 69 68 71 76 77 67 67 79 73 72 64
36 38 45 44 37 34 38 26 24 23 26 31 32 30 31 32 31 30 27 27 28 28 30 40 43 47 51 54 56 58 64 67 64 66 74 77 80 71 63 80 77 69 65 60
52 52 57 53 48 54 28 25 24 25 25 24 28 29 29 31 29 27 25 27 30 35 34 37 42 49 53 56 59 61 62 63 67 71 75 76 77 75 84 76 70 65 66 68
51 53 56 63 48 36 32 29 26 27 27 27 25 25 26 28 24 30 34 33 32 34 35 39 45 49 53 56 57 60 65 66 72 75 83 79 81 84 76 68 69 69 69 67
39 45 50 49 57 61 37 31 28 27 33 30 30 31 30 28 33 38 38 37 35 36 39 43 47 50 54 58 61 64 68 77 83 85 85 89 80 76 73 71 71 67 64 63
50 53 59 56 60 49 40 36 34 39 43 36 34 29 30 33 39 38 38 38 39 45 48 49 53 59 59 59 64 75 85 89 84 86 89 81 77 74 69 66 62 58 55 52
48 56 63 61 71 63 35 33 34 40 36 32 31 33 36 36 38 41 40 47 49 50 54 57 58 58 64 73 81 87 86 86 90 90 82 73 67 62 58 55 52 51 46 43
45 40 47 44 49 37 33 34 35 33 34 37 36 36 37 39 43 50 50 54 56 55 55 60 67 74 81 88 92 92 94 94 87 78 67 62 57 52 47 44 42 44 41 38
41 40 41 39 33 37 38 38 39 39 39 39 41 41 43 47 50 56 61 57 56 62 69 77 83 89 92 93 95 93 84 78 70 63 52 47 44 41 39 40 39 39 40 40
43 40 36 36 36 40 45 46 44 44 43 43 46 46 48 53 59 59 60 62 67 76 84 91 95 96 93 87 83 78 71 62 52 47 44 41 38 38 39 36 36 40 42 46
40 39 42 46 45 47 52 49 46 43 44 47 48 52 55 57 61 63 70 77 84 90 92 92 88 83 79 73 66 57 51 46 43 44 41 38 38 34 34 36 36 40 47 50

GFSCGP_prec_cthk_054.txt.gz
RH
48 53 54 49 53 55 56 52 52 48 44 48 47 45 45 45 47 44 45 44 37 36 35 37 38 41 44 45 45 44 48 56 56 53 59 61 60 59 57 49 49 50 48 46
45 48 52 52 54 55 57 53 47 43 41 47 42 46 44 46 44 41 40 37 35 37 38 39 38 39 41 44 48 50 54 57 57 56 58 60 62 59 54 51 50 49 48 45
51 46 50 51 56 52 49 50 47 42 42 36 39 37 38 43 48 48 45 36 38 38 38 37 37 38 39 43 46 52 59 61 60 57 58 62 63 56 52 51 48 45 44 46
48 46 45 50 53 54 49 48 47 45 40 36 36 42 41 41 46 51 50 43 37 38 40 40 42 43 44 47 49 54 57 61 63 60 62 65 54 52 52 50 43 44 50 55
49 48 49 48 50 53 42 50 46 46 45 37 34 42 44 42 42 46 47 45 38 40 43 43 44 47 51 54 56 58 60 63 65 62 67 58 54 54 49 45 47 53 56 57
48 52 49 49 52 49 45 46 48 50 51 52 50 50 42 47 43 38 43 43 41 46 52 47 47 49 56 60 55 57 64 63 64 64 62 55 55 48 50 52 54 56 57 57
47 48 45 46 49 46 45 45 57 60 64 56 46 49 39 42 39 33 43 41 46 46 47 45 49 54 61 62 54 58 57 58 58 60 54 57 53 54 55 58 61 65 66 65
50 49 48 46 46 50 53 52 49 49 64 56 50 51 47 40 40 37 38 39 35 42 44 47 50 51 66 55 57 57 52 52 56 54 56 55 57 59 65 68 67 71 75 85
51 53 53 50 49 44 47 47 44 53 56 63 50 39 38 38 32 39 36 30 29 34 38 41 44 52 53 51 56 54 50 53 55 52 56 60 64 69 66 77 84 84 85 96
51 53 55 55 52 47 41 41 52 57 48 43 36 41 47 42 43 41 35 31 28 31 36 39 42 44 46 48 48 50 50 49 50 53 57 62 68 76 79 86 87 89 84 93
45 51 53 48 45 45 42 35 36 38 49 52 52 42 38 43 38 40 37 33 30 26 29 31 33 32 33 36 39 42 45 46 52 61 67 71 80 83 82 87 90 86 95 92
46 52 59 47 49 49 53 40 42 56 49 51 52 36 32 39 46 40 40 39 38 32 30 28 29 31 32 34 39 44 49 61 70 69 71 81 79 84 81 82 84 97 96 80
53 59 64 54 47 49 46 41 44 46 50 47 57 40 28 32 34 36 36 35 36 34 34 35 38 40 41 41 48 56 66 74 87 88 87 83 76 77 82 82 76 83 80 69
51 57 55 54 45 50 43 43 46 49 57 46 47 36 33 33 35 37 36 34 32 34 39 41 44 51 56 58 61 64 81 81 91 88 88 80 71 79 71 71 82 75 72 80
53 52 45 36 31 35 35 34 35 42 46 49 43 44 40 40 36 37 39 36 34 39 43 46 48 53 57 62 71 76 80 85 85 87 72 72 66 63 65 83 73 78 85 85
49 45 42 40 38 35 33 30 34 34 44 45 45 43 41 37 35 34 35 36 37 40 41 47 49 50 58 58 63 73 79 84 79 67 63 63 70 76 81 78 87 87 86 87
49 49 46 41 34 32 38 26 26 30 33 35 37 41 42 41 37 39 39 39 42 43 41 37 36 41 49 53 64 70 68 55 58 67 73 74 77 80 84 90 94 93 87 78
46 45 41 44 36 45 27 23 24 26 28 29 31 31 32 34 39 39 40 39 38 37 36 37 38 40 42 44 46 48 53 61 69 76 75 78 82 87 94 96 91 83 76 71
46 52 50 51 53 42 35 32 30 33 39 37 36 37 37 38 38 40 38 36 36 36 36 35 36 38 41 45 49 56 63 68 72 76 82 87 91 97 93 85 79 70 64 55
54 56 54 63 66 66 43 33 33 36 46 39 39 40 38 37 41 44 42 38 35 34 35 36 37 40 45 52 58 64 70 74 78 84 90 91 97 86 79 73 63 57 50 42
62 67 56 59 55 49 39 36 36 39 38 40 41 42 41 40 37 35 35 34 35 35 36 40 45 50 57 62 67 71 75 81 91 93 96 88 84 76 66 51 44 41 35 26
53 53 57 62 63 54 38 34 37 42 48 47 42 38 35 35 34 34 35 34 37 41 45 50 55 60 65 70 75 82 86 88 92 89 84 78 65 49 36 28 24 24 24 25
53 38 43 45 47 41 39 38 40 41 38 38 38 39 35 36 37 37 38 42 46 51 55 58 61 68 72 76 80 83 87 84 79 71 61 47 30 21 18 21 22 23 26 29
42 37 38 39 45 42 39 39 37 38 39 40 39 39 38 37 39 42 46 51 55 58 59 65 71 76 77 79 80 77 73 65 55 42 30 21 21 20 22 25 25 26 29 31
37 38 40 52 51 47 45 42 40 41 41 42 43 40 38 39 43 49 54 59 61 65 72 76 78 77 75 73 70 62 51 43 31 24 24 23 24 24 26 28 29 33 34 41
38 35 40 48 45 45 46 45 46 46 47 48 45 44 44 47 52 56 59 64 68 75 79 77 74 72 68 60 51 42 34 29 26 24 23 23 24 26 28 30 31 39 47 50

GFSCGP_prec_cthk_060.txt.gz
RH
42 45 46 45 48 47 49 54 55 53 54 53 52 52 55 59 58 61 55 51 47 42 40 42 42 44 46 51 52 51 53 55 56 57 57 58 61 66 65 66 62 60 56 56
42 50 47 50 55 53 52 56 57 55 52 54 47 43 49 56 56 52 53 48 43 40 39 40 41 42 41 45 46 48 49 52 57 56 59 57 60 63 68 67 64 63 62 56
41 43 46 47 50 54 51 53 51 47 48 49 45 39 35 40 45 49 49 43 44 43 39 38 39 41 43 44 47 49 51 54 56 58 59 60 61 65 66 68 67 65 62 55
35 41 43 45 47 49 51 49 51 49 45 44 41 43 34 32 38 39 48 50 53 53 51 44 42 46 52 52 52 53 54 56 61 63 62 66 67 66 69 75 65 64 58 53
34 42 44 46 46 45 49 50 51 50 52 48 46 43 36 34 40 38 44 46 50 50 52 46 47 51 52 60 63 61 64 63 63 61 69 73 79 78 74 73 66 62 58 53
32 40 43 44 44 45 47 49 49 53 52 55 49 46 39 39 38 40 42 45 47 45 48 49 49 50 53 59 67 65 63 66 66 65 72 81 81 78 77 72 61 63 59 52
34 39 41 42 46 44 44 47 51 49 57 52 45 47 39 39 39 40 39 41 44 39 43 49 50 49 50 49 58 60 69 69 73 71 79 82 72 72 77 61 56 58 57 59
37 40 40 43 47 48 47 46 59 48 56 49 38 40 34 36 41 40 38 34 31 33 35 44 41 41 43 54 57 52 65 84 78 80 82 74 67 71 64 55 56 63 70 78
37 37 42 48 48 50 53 52 49 59 60 63 45 35 27 34 36 39 39 39 29 26 26 29 33 35 37 42 48 50 59 79 65 63 64 60 67 67 59 60 69 72 78 80
32 38 44 46 49 49 52 52 56 60 56 55 48 43 38 30 39 36 33 28 28 26 26 27 27 29 31 37 39 45 51 57 51 53 54 61 62 60 64 73 74 81 88 90
32 31 38 47 44 51 54 52 53 54 60 59 60 44 39 33 32 31 30 30 27 30 31 29 27 27 28 30 39 43 52 51 51 52 57 59 58 67 71 81 89 89 96 88
29 34 36 36 41 44 44 44 49 62 53 62 58 44 34 32 33 33 33 33 34 36 37 33 30 29 30 36 39 43 48 56 52 56 63 63 67 76 79 84 87 96 93 94
35 35 37 34 37 39 43 43 48 52 57 59 60 45 33 35 31 29 32 34 35 34 40 42 40 40 39 41 44 54 63 65 70 74 79 77 84 83 88 90 89 94 92 87
37 43 38 37 33 40 46 44 48 52 65 55 54 43 38 35 34 37 35 32 28 30 32 34 37 39 42 46 54 62 60 66 72 72 82 87 85 88 92 96 92 85 81 82
39 42 44 40 39 45 50 47 48 48 50 51 48 47 36 29 30 35 37 35 35 36 36 39 43 46 50 56 56 57 57 62 66 71 73 78 81 88 94 91 76 92 95 83
42 43 44 47 47 47 50 44 42 41 50 47 44 39 35 32 29 31 37 38 40 41 42 42 45 48 51 51 51 55 56 54 52 62 66 69 78 87 81 79 78 84 73 88
47 52 51 52 50 48 53 42 41 33 29 29 33 29 31 30 30 30 34 41 42 43 43 42 43 44 44 46 48 48 49 52 52 55 61 70 75 76 78 78 79 79 89 96
50 52 56 64 62 63 35 36 33 30 24 23 23 23 25 26 27 30 32 36 39 41 40 39 40 40 40 39 39 41 42 44 49 58 66 70 69 77 77 79 96 91 92 93
48 57 65 67 65 54 41 33 30 27 21 21 23 29 32 36 38 40 41 41 41 41 40 38 38 40 38 38 39 43 47 53 61 63 66 69 71 76 88 90 91 88 83 77
53 56 65 69 65 59 46 32 28 28 29 28 37 36 37 39 41 42 41 40 39 40 41 41 36 34 37 40 44 50 55 60 65 66 67 74 83 90 90 87 86 80 71 56
66 65 63 72 64 55 48 41 36 41 31 22 27 33 38 40 40 40 40 42 44 42 35 34 36 38 41 46 52 57 58 62 63 69 83 87 85 82 84 80 71 59 42 29
60 68 69 69 68 62 47 52 47 32 25 26 30 34 38 40 42 42 44 42 36 36 36 37 39 42 46 51 54 56 60 68 80 83 80 79 78 76 70 62 48 35 27 23
63 56 61 59 56 48 47 52 45 29 26 28 31 37 41 43 44 42 37 36 36 37 39 41 45 49 52 55 58 64 77 78 78 77 74 72 70 63 51 38 30 25 23 22
58 56 63 64 62 59 56 53 50 29 27 29 31 36 39 39 38 38 38 37 37 39 43 47 52 57 60 65 75 77 77 78 72 69 66 61 54 42 33 28 24 22 19 18
64 64 65 66 67 65 61 57 45 31 32 34 34 35 37 39 40 41 42 42 43 46 50 56 62 67 73 79 77 75 73 69 63 59 54 46 37 30 26 21 17 17 19 20
67 61 67 64 63 68 60 48 39 35 37 39 37 37 40 42 43 47 49 50 51 55 60 67 71 76 78 76 73 69 63 58 54 48 42 36 30 24 21 20 18 19 18 17

GFSCGP_prec_cthk_063.txt.gz
RH
40 42 43 33 34 36 46 53 53 53 52 52 51 49 50 56 57 52 53 48 44 39 43 44 44 47 50 54 55 55 55 53 51 51 51 54 55 61 71 71 70 68 61 55
40 44 44 44 45 46 47 53 55 51 55 50 46 47 49 53 52 52 47 46 43 43 42 42 46 46 50 51 50 52 53 56 57 57 56 58 60 63 65 68 70 76 61 58
37 39 41 43 45 46 47 51 51 51 54 53 45 38 41 41 45 48 50 45 42 37 37 39 40 41 44 47 47 49 52 54 56 59 60 62 61 63 63 71 72 64 63 60
34 35 39 43 43 45 47 47 49 50 49 49 45 40 33 38 44 46 47 52 49 47 43 37 36 38 42 41 44 46 49 50 54 59 61 63 64 67 68 74 76 70 65 60
31 36 42 44 44 44 44 48 50 51 53 47 44 39 37 34 34 41 46 51 56 55 53 46 40 43 47 50 54 58 61 63 64 70 69 69 73 76 81 88 85 77 68 62
30 35 42 42 43 43 48 50 49 50 52 52 48 45 37 33 39 40 39 45 48 53 56 54 51 50 49 56 59 63 71 71 67 73 68 71 77 83 87 89 81 78 70 62
31 33 39 42 43 44 45 47 50 51 52 50 47 45 36 35 37 39 41 41 43 46 50 50 52 53 53 56 58 59 68 70 72 78 81 76 79 83 86 84 79 78 76 59
33 32 36 40 40 43 45 46 52 48 49 44 45 42 31 33 36 37 38 40 38 41 45 43 46 52 55 57 58 61 63 63 71 77 84 86 84 81 75 77 78 81 68 67
35 32 34 42 43 43 48 48 47 54 58 56 42 36 32 33 33 40 39 40 41 30 33 38 41 48 51 49 47 52 50 52 60 76 80 74 71 60 70 80 85 69 73 80
31 33 36 43 45 48 48 50 52 54 54 52 43 38 35 35 35 35 36 34 34 33 27 25 25 27 33 37 40 43 41 43 50 57 61 60 63 68 75 80 80 79 84 86
30 31 35 41 45 48 52 50 50 49 49 50 49 39 33 34 33 32 34 35 32 30 29 31 27 25 25 27 30 33 37 42 46 57 58 65 68 73 82 85 86 89 88 90
31 36 39 35 38 43 47 46 48 56 52 53 51 40 31 31 36 36 36 33 31 29 28 29 35 33 29 30 34 36 43 46 52 59 67 73 74 78 80 86 93 94 94 98
32 36 37 33 34 39 41 43 44 48 50 49 54 42 34 32 31 34 32 33 33 32 31 31 33 36 40 41 43 45 47 54 62 67 71 81 86 88 88 91 95 94 99 99
31 37 34 32 30 34 40 40 42 43 51 48 46 42 39 38 35 30 27 29 31 32 34 32 34 38 40 44 48 51 56 61 63 65 68 74 79 86 90 92 97 89 96 97
37 39 37 34 34 36 36 38 43 46 45 48 41 46 38 37 32 28 24 24 30 34 36 38 39 45 50 52 57 63 62 63 61 63 64 66 72 68 74 71 75 86 90 91
42 43 42 41 40 39 40 38 41 46 44 42 41 42 40 33 31 28 28 28 30 35 41 41 44 46 50 53 55 58 56 57 53 54 59 60 59 56 56 72 72 81 80 83
46 49 48 46 47 49 50 40 41 43 41 40 39 28 30 27 26 28 28 28 29 28 31 39 42 46 50 51 53 54 53 52 53 55 53 49 52 61 64 71 77 72 84 82
51 52 52 56 54 62 38 37 39 42 37 34 28 25 23 23 27 27 28 30 32 34 36 38 40 41 42 44 46 46 43 43 44 46 51 55 64 66 69 71 81 79 87 88
54 57 59 63 56 48 38 37 45 45 30 27 22 22 25 29 34 36 36 38 39 40 40 40 41 41 41 43 44 41 42 46 49 53 57 60 66 67 72 77 83 84 81 77
60 59 60 63 59 55 41 39 41 42 32 32 31 28 32 35 36 35 39 40 39 40 41 41 40 41 40 37 39 42 45 48 54 57 63 65 66 76 80 79 80 75 70 63
70 64 60 63 62 49 42 41 42 48 36 37 29 28 30 28 30 34 39 41 42 42 42 43 40 36 37 40 43 47 50 53 57 60 65 74 74 74 77 72 65 59 54 47
70 67 67 64 64 52 42 46 48 42 46 44 33 29 31 31 33 36 40 42 44 46 44 39 37 38 40 44 48 51 54 59 63 72 75 74 73 70 63 57 52 47 44 38
80 69 66 62 50 44 44 45 45 43 50 48 39 29 32 33 36 39 41 45 46 42 40 39 40 41 44 49 52 56 64 70 73 73 73 69 62 56 52 49 45 40 32 24
69 71 72 66 56 51 52 51 57 53 49 50 43 30 30 34 40 42 43 43 41 41 41 42 45 48 54 58 62 69 71 73 73 70 64 56 53 49 46 43 37 30 25 24
53 62 66 65 66 60 59 57 63 63 57 49 40 34 33 36 39 39 41 42 44 46 48 48 52 57 62 68 71 70 71 71 67 60 54 50 49 47 43 38 31 28 28 27
53 54 61 65 64 63 54 57 62 64 58 49 39 40 39 38 39 40 41 43 46 51 54 56 61 67 70 72 70 70 70 65 58 53 52 50 48 44 37 34 33 31 27 21

GFSCGP_prec_cthk_066.txt.gz
RH
31 36 40 37 35 38 41 44 49 50 48 49 53 49 47 51 51 50 53 54 49 46 42 41 45 52 50 51 48 47 48 55 58 55 54 54 56 57 56 58 68 71 76 81
33 36 41 39 40 41 43 46 48 48 47 45 47 43 41 45 51 51 47 45 44 44 46 47 47 50 54 56 58 61 62 60 56 56 53 53 54 56 60 63 75 73 75 78
33 36 38 42 43 43 45 49 48 46 46 45 43 41 43 45 44 47 44 43 44 44 42 46 45 47 50 49 50 53 54 57 58 61 59 59 60 63 63 65 77 82 82 72
31 34 37 40 41 42 45 45 46 44 43 48 40 40 34 36 37 39 39 39 38 40 39 39 40 39 42 45 46 50 51 54 54 55 59 60 63 66 68 70 77 81 81 78
30 31 34 39 41 41 45 43 45 46 48 44 42 39 40 32 34 35 40 48 45 44 45 40 39 37 40 42 45 47 52 55 57 56 59 65 71 76 75 72 78 85 89 87
32 31 33 39 40 43 44 46 46 47 49 50 44 41 39 38 34 38 38 39 44 51 52 51 48 46 45 48 51 55 58 63 72 71 70 72 74 77 79 80 84 90 93 89
29 30 32 38 43 44 45 47 49 51 49 47 40 37 37 32 32 35 39 45 47 46 49 56 56 55 49 48 54 56 61 66 72 76 73 77 82 80 80 82 83 85 87 83
31 33 30 31 39 44 46 46 50 46 43 40 38 34 35 27 27 32 38 39 44 43 45 52 58 57 58 58 59 56 62 63 68 69 75 79 87 82 84 80 79 77 78 85
30 30 29 32 37 41 49 46 46 50 49 45 38 34 31 28 27 29 30 36 43 44 43 44 52 56 57 59 64 58 56 63 67 60 66 67 83 70 72 69 80 75 83 92
28 31 28 34 39 44 47 48 49 48 54 48 40 37 34 32 29 28 29 32 36 41 43 37 37 47 50 51 55 59 58 54 54 51 51 59 59 72 75 79 83 87 94 96
29 29 34 34 38 44 47 47 49 51 47 49 46 39 35 33 30 32 31 31 33 32 35 34 36 34 32 36 41 46 50 51 49 50 52 54 64 65 72 76 84 93 98 96
28 32 33 32 37 39 47 49 49 49 50 48 49 40 33 33 33 33 32 32 29 30 32 32 33 38 38 38 38 40 43 46 49 52 58 60 60 70 78 81 87 92 93 93
29 30 36 35 34 37 37 39 44 46 49 46 52 39 35 36 35 34 31 32 32 31 29 28 28 33 37 44 48 50 52 56 60 60 61 62 65 71 79 84 88 92 92 92
29 31 32 33 30 33 33 34 37 41 49 42 40 37 38 39 42 37 33 28 25 26 29 33 33 33 34 39 43 47 52 54 56 59 63 67 68 68 69 76 79 83 87 93
33 35 33 31 30 33 30 28 31 33 34 39 37 41 36 38 43 41 39 32 24 24 28 33 38 41 43 46 49 51 50 55 64 65 66 66 64 61 62 63 63 60 63 66
36 39 36 35 33 33 34 30 32 34 37 39 40 35 34 34 40 38 35 32 30 29 29 32 36 43 48 53 58 63 64 68 64 63 63 62 58 62 64 60 56 57 65 74
42 42 42 38 39 41 44 33 34 36 36 37 39 36 35 27 26 27 30 30 30 31 34 35 35 38 47 53 56 61 65 64 63 65 61 60 59 54 52 53 59 69 72 72
50 45 46 46 52 65 29 32 35 37 34 33 35 33 29 25 22 22 25 29 31 31 32 36 39 41 46 49 52 53 54 54 56 53 48 47 51 53 57 62 68 70 74 74
52 51 52 62 50 40 36 33 36 40 38 36 36 31 26 26 25 25 29 33 35 37 38 40 42 46 48 48 48 48 49 49 45 45 47 51 55 61 65 67 70 73 75 72
59 57 56 61 56 65 34 32 38 42 38 33 38 34 29 29 28 28 32 35 38 40 42 42 43 45 47 47 49 47 42 43 45 46 51 55 60 64 66 68 72 71 67 61
72 69 69 64 65 49 37 37 37 46 32 40 37 38 36 30 28 32 34 36 40 43 45 45 45 47 49 47 42 41 43 46 49 51 55 59 64 65 68 69 65 60 52 46
72 71 72 68 74 68 40 42 43 34 41 41 40 43 45 41 31 30 34 38 42 45 47 46 48 49 46 43 42 44 46 50 52 55 62 63 64 65 63 60 53 47 45 43
77 68 66 58 53 49 48 47 44 41 46 47 46 45 51 48 36 32 34 38 41 44 46 49 47 43 42 43 46 48 52 55 61 63 62 62 61 60 55 50 45 42 45 44
53 62 73 68 54 52 57 56 52 51 52 52 55 53 51 49 42 37 36 39 42 45 47 47 46 45 46 49 51 54 58 62 64 62 61 60 57 53 49 46 46 47 43 38
43 51 54 56 57 63 61 59 58 63 58 55 54 58 59 47 43 42 41 43 44 46 47 48 50 52 52 55 59 63 65 65 63 62 59 56 53 50 48 48 46 42 41 38
43 46 51 53 52 57 61 63 59 63 60 58 57 64 59 51 49 45 45 46 46 46 48 53 57 60 63 66 66 67 66 64 62 60 58 56 54 51 50 49 48 44 42 39

GFSCGP_prec_cthk_069.txt.gz
RH
26 31 39 47 46 38 38 41 43 47 47 42 54 53 52 51 54 49 52 58 53 47 51 50 57 57 54 52 54 55 73 62 59 43 36 38 43 55 65 74 74 72 74 76
35 34 40 41 32 34 36 45 47 47 43 39 49 46 44 44 43 46 47 43 41 43 43 41 45 50 47 48 50 51 52 62 56 55 54 56 57 58 63 61 62 70 69 71
31 39 39 36 36 38 44 47 51 46 47 44 42 44 44 36 44 48 50 42 37 36 43 44 44 51 52 55 53 56 57 61 62 62 62 56 57 58 63 66 59 65 71 75
29 35 35 34 38 44 46 47 41 41 42 63 42 50 45 43 36 42 43 42 40 40 42 41 43 46 49 53 56 54 60 60 62 61 65 60 60 62 69 69 64 67 75 80
27 28 35 32 37 42 43 43 39 40 42 44 44 34 45 38 37 45 40 47 47 41 45 43 41 38 40 44 46 49 54 56 58 59 60 58 59 65 71 73 74 71 74 80
27 31 32 31 38 40 42 42 42 42 45 51 46 37 43 45 36 43 46 43 48 53 51 48 49 51 50 45 45 46 50 57 62 66 72 72 70 70 77 81 78 78 76 82
27 31 30 33 35 39 41 47 56 53 54 49 45 35 34 41 36 34 36 45 44 48 54 53 53 54 54 53 49 50 53 57 67 69 69 77 80 77 78 81 81 81 85 84
30 33 29 31 33 42 40 46 57 58 56 49 38 30 37 33 28 29 31 35 40 43 48 51 56 58 54 57 53 55 58 62 68 70 76 78 77 78 81 93 80 77 77 82
29 32 34 35 31 39 47 45 48 56 50 48 41 38 34 29 27 29 27 31 39 42 45 47 54 59 59 57 58 57 61 64 64 68 71 72 70 70 74 74 66 68 74 84
33 37 34 37 35 34 42 49 50 45 54 59 41 38 37 38 36 29 30 30 32 36 44 48 48 50 55 60 60 59 62 60 61 65 66 65 63 58 63 62 66 75 81 87
32 33 42 38 33 36 36 44 47 49 53 57 51 40 44 37 35 35 37 33 34 37 39 41 45 47 50 53 56 57 60 63 65 65 64 65 59 59 63 66 76 76 77 87
29 33 42 40 35 33 48 43 46 52 50 49 50 48 46 41 39 37 34 35 36 35 37 39 37 38 41 43 51 53 55 60 65 68 67 61 65 66 70 75 72 71 78 85
32 37 41 42 37 38 37 43 53 53 51 53 66 50 45 41 34 37 36 35 35 31 36 34 31 33 35 40 44 51 55 58 62 64 63 66 70 76 77 73 71 70 71 72
34 33 35 36 36 40 35 35 41 49 55 45 43 44 42 44 47 49 48 48 35 32 30 35 35 34 33 35 40 46 48 54 58 60 63 65 64 67 69 71 74 71 68 68
39 38 38 32 38 42 38 36 36 38 40 43 43 45 39 44 47 44 53 52 41 32 28 27 36 43 42 42 43 41 45 47 49 55 61 65 71 72 73 74 72 68 69 70
40 44 40 38 37 43 40 32 31 31 33 32 32 36 41 44 42 39 38 41 39 36 32 29 30 46 51 51 52 47 54 58 59 64 70 76 77 76 74 69 64 65 62 63
46 47 46 43 41 41 45 31 34 34 34 36 38 43 45 46 44 41 35 38 31 31 34 36 38 43 47 51 51 53 62 69 72 76 73 73 72 70 64 62 60 55 56 58
55 53 48 55 54 60 42 33 34 34 36 38 38 37 36 41 40 31 25 24 25 28 32 39 42 40 43 49 51 54 57 65 69 68 65 61 59 55 52 51 52 55 60 64
62 57 57 63 52 40 40 36 32 32 34 36 38 38 40 42 34 27 26 26 28 30 33 36 38 43 46 47 48 51 53 56 57 55 54 52 47 48 49 52 57 62 63 65
64 61 61 60 57 59 41 37 35 34 43 31 41 47 42 37 32 27 27 30 31 32 32 34 37 41 44 46 48 50 52 53 54 51 45 45 47 50 56 57 59 61 62 64
78 77 76 65 66 50 42 39 38 45 34 37 41 45 42 38 36 38 32 30 32 33 34 36 39 41 45 48 50 51 53 51 44 44 46 47 53 56 56 59 61 60 60 58
76 73 79 72 76 73 52 45 45 36 42 42 40 40 39 40 41 45 44 37 34 35 36 39 41 43 48 50 53 53 47 44 44 46 49 52 54 58 60 61 61 58 56 53
89 78 74 67 68 61 57 52 51 49 47 51 46 45 42 47 47 46 48 47 40 39 40 40 41 45 50 53 52 47 45 46 49 52 55 58 60 60 60 58 55 52 52 52
49 52 66 74 68 65 64 57 54 54 54 56 54 52 49 50 52 53 51 48 46 44 44 43 44 47 50 51 50 49 50 53 55 57 60 62 61 59 56 55 56 54 55 54
44 46 49 52 50 60 66 63 63 64 60 57 59 55 55 55 55 56 57 56 50 48 47 45 47 51 53 53 55 57 58 60 64 65 63 61 59 60 60 59 56 54 52 48
50 53 51 48 41 48 56 65 61 60 61 63 63 60 57 57 57 63 65 60 56 55 55 52 52 55 57 60 65 71 76 76 73 68 65 64 63 61 62 59 58 56 51 46

GFSCGP_prec_cthk_072.txt.gz
RH
29 26 26 34 47 44 40 39 41 43 48 43 39 46 47 49 48 42 49 60 55 50 57 53 56 50 51 54 71 75 75 77 74 73 63 55 47 44 50 50 55 67 74 69
35 29 26 37 45 34 32 33 36 42 45 38 42 49 48 37 34 31 37 40 45 41 44 47 48 49 47 44 45 57 57 66 57 49 42 39 38 43 47 54 61 63 65 66
35 29 36 35 39 32 32 38 45 50 47 46 43 48 45 43 44 41 39 38 37 37 41 42 45 44 42 41 43 45 54 55 51 46 48 48 48 48 49 57 57 59 63 67
36 29 40 39 33 38 40 45 47 40 42 50 41 48 48 46 48 44 52 43 35 34 38 40 42 43 42 38 42 50 51 55 53 54 57 51 50 50 53 56 63 61 60 63
32 31 32 36 29 35 37 38 43 39 40 43 54 51 44 46 47 52 54 49 45 42 38 44 46 46 45 43 42 44 49 52 52 54 60 58 55 55 54 60 64 72 70 72
34 32 29 32 33 31 35 38 38 37 40 46 48 42 48 51 43 41 50 50 47 49 49 48 46 46 49 52 51 47 47 52 55 62 64 67 68 71 73 76 79 83 84 75
37 31 32 33 32 36 35 40 46 57 52 51 50 49 37 42 38 37 41 48 46 46 49 51 51 50 49 51 52 50 50 50 58 63 68 68 69 73 72 75 74 76 80 76
42 35 26 32 31 34 36 40 52 85 66 53 54 36 26 37 33 28 27 31 42 44 49 52 55 54 51 51 52 55 53 52 59 63 63 68 72 73 74 75 74 73 73 66
44 32 27 33 31 35 43 39 38 57 62 61 47 47 34 39 34 29 29 35 40 40 42 49 53 57 54 52 49 52 55 56 58 61 64 62 65 68 68 69 66 66 64 65
45 42 33 33 36 29 41 51 46 47 58 60 40 40 49 46 41 40 31 34 32 34 37 41 53 58 60 56 50 49 53 56 60 60 59 62 64 67 69 64 70 73 67 68
42 45 40 40 35 34 31 41 50 46 45 50 55 52 50 46 42 42 37 36 36 35 32 34 45 57 65 64 70 69 55 63 67 65 60 62 67 67 70 69 69 71 73 79
43 46 47 46 35 35 37 35 40 49 47 58 59 56 43 44 44 43 42 35 35 36 36 33 30 37 48 61 67 66 62 62 68 69 67 71 72 79 81 78 79 79 83 82
47 44 52 53 46 43 32 36 43 39 39 46 63 50 41 41 39 34 38 34 34 34 34 38 33 30 30 36 46 59 62 60 57 66 73 77 72 73 73 75 74 75 76 74
53 48 45 51 51 40 39 35 48 53 55 51 45 47 46 47 43 42 39 46 55 49 41 36 37 36 29 26 30 39 45 48 53 57 60 64 72 71 68 70 77 76 77 82
57 59 51 49 44 47 41 38 36 41 45 50 52 47 41 44 41 43 46 54 45 54 51 39 38 45 43 35 33 34 35 38 42 45 53 61 66 65 76 81 82 84 83 79
56 61 56 55 47 45 47 48 41 35 35 39 41 42 40 41 39 45 45 43 43 42 45 41 37 44 49 42 41 47 47 50 51 59 61 64 68 77 80 84 83 83 80 73
59 57 50 53 52 49 47 47 43 39 41 40 40 37 35 46 44 41 42 40 37 37 37 43 41 45 41 44 42 41 47 52 56 61 65 72 78 80 80 80 76 73 68 62
67 60 52 67 61 59 43 39 39 40 37 37 38 36 36 36 38 44 40 40 38 32 28 24 30 38 39 40 41 40 45 51 59 64 66 68 72 72 69 65 63 56 53 54
72 67 76 69 64 49 42 42 44 39 34 36 36 35 43 46 49 43 40 37 32 27 28 29 33 36 36 36 35 41 47 52 54 55 58 62 63 61 59 54 50 50 54 57
74 72 77 82 66 64 52 42 42 41 43 37 31 37 41 45 51 46 40 32 28 29 31 33 36 38 40 40 40 41 43 46 50 53 55 56 57 55 48 48 52 55 57 60
78 82 77 75 81 65 53 45 44 48 47 33 34 39 45 45 47 37 36 35 35 36 34 35 38 40 42 42 42 43 44 47 50 52 55 54 48 48 48 53 56 57 58 59
78 82 84 77 81 72 57 53 52 41 43 44 46 44 42 44 42 38 37 37 40 44 46 45 43 43 42 43 44 45 47 50 53 54 50 47 48 50 52 55 57 58 60 60
77 93 81 72 68 60 57 60 63 60 55 53 54 52 51 48 44 46 46 45 49 48 49 51 52 50 49 49 48 48 49 52 52 49 48 49 52 54 57 60 63 59 59 60
65 67 80 73 70 75 72 67 64 61 61 59 58 54 53 55 52 51 49 48 51 54 56 58 58 57 54 54 53 51 52 53 54 53 55 58 62 65 65 63 61 61 63 63
55 60 61 62 59 62 68 66 72 69 64 60 58 56 58 58 57 58 56 53 56 61 62 62 63 64 61 60 58 57 57 59 59 63 69 74 74 73 69 68 66 64 63 61
51 49 56 62 49 53 54 56 57 63 67 67 64 63 65 65 63 64 62 59 61 63 66 68 68 67 65 62 64 66 65 64 69 74 78 81 78 75 74 73 67 64 64 63

GFSCGP_prec_cthk_075.txt.gz
RH
36 35 28 21 27 39 41 45 43 41 47 52 46 44 45 45 48 53 53 58 52 51 46 43 47 53 64 70 69 63 53 51 51 49 49 48 51 51 57 56 56 57 60 60
41 37 23 23 34 38 44 40 35 38 49 45 43 41 41 47 46 43 42 53 41 39 40 37 41 41 44 47 50 54 54 48 39 36 36 40 40 43 47 48 53 59 66 66
41 35 28 30 34 38 42 36 34 37 44 45 45 43 44 43 46 47 43 44 45 37 35 35 33 34 34 33 38 42 45 44 41 42 41 41 44 41 43 47 49 54 57 57
40 36 37 35 37 38 37 38 42 41 43 42 45 51 47 50 48 45 48 47 45 41 36 40 41 38 33 29 31 36 40 39 38 37 37 37 38 41 40 41 44 48 57 60
36 37 37 37 39 38 32 41 41 41 44 37 43 57 51 45 50 46 49 50 48 48 40 40 42 43 43 42 39 37 40 42 43 42 42 47 53 50 53 56 54 59 69 71
38 35 36 35 34 33 30 37 38 38 40 45 43 60 48 45 42 42 37 44 45 46 44 42 42 45 45 46 45 44 43 43 47 51 55 61 65 64 57 66 70 69 74 86
39 37 37 36 33 33 35 35 48 57 52 53 49 55 44 43 38 37 41 39 41 44 45 46 48 44 44 45 47 46 45 45 47 53 59 69 69 68 70 66 69 73 73 80
45 43 38 34 30 32 34 37 55 61 65 63 54 47 38 35 36 40 42 42 42 43 45 43 42 49 51 46 43 48 50 51 53 59 66 69 71 67 61 61 61 64 71 75
44 40 39 37 33 33 35 40 37 59 60 74 61 49 46 45 41 39 37 31 37 39 40 42 42 44 45 50 48 45 45 51 53 53 60 64 63 61 60 58 57 61 67 81
42 48 43 39 35 35 33 39 51 55 70 77 57 51 54 45 43 41 36 36 32 38 44 44 44 41 42 46 51 48 55 48 46 49 50 57 60 65 63 62 59 64 83 76
44 49 50 47 39 34 37 40 47 53 60 63 59 53 40 47 46 41 41 39 36 34 31 29 43 49 47 50 51 54 66 68 68 57 59 58 54 59 69 68 72 84 90 83
47 53 60 52 49 34 37 37 49 62 59 58 58 50 40 46 45 42 43 42 41 39 34 29 26 39 50 56 66 61 58 59 60 49 71 75 65 74 93 96 96 87 91 84
55 62 74 60 50 43 40 42 36 42 60 54 70 59 47 51 48 47 40 41 44 40 39 36 30 28 39 46 49 56 59 59 61 60 71 69 84 68 77 91 91 81 77 77
60 72 71 63 57 53 50 40 39 38 50 45 48 50 54 53 50 44 43 43 39 40 45 50 37 32 28 28 39 45 45 46 49 54 64 62 65 66 75 70 67 66 70 79
59 67 67 59 51 56 50 46 41 38 35 53 45 44 45 45 42 45 44 40 42 47 47 44 44 38 33 31 25 26 29 35 40 44 46 49 53 57 66 68 69 74 79 83
56 63 66 64 56 50 60 55 45 39 39 46 47 54 51 47 45 45 46 46 42 42 39 40 40 44 40 39 34 30 30 39 45 44 47 49 55 61 62 66 73 83 86 84
63 67 67 68 60 57 59 56 51 48 44 40 39 39 38 39 41 39 44 46 41 39 39 42 42 46 48 44 37 37 37 36 37 41 47 52 55 59 64 69 73 75 76 78
69 70 76 79 72 68 52 43 50 46 49 46 47 37 35 40 40 37 44 43 45 40 38 36 35 30 33 31 35 41 42 44 44 43 46 53 58 63 65 66 70 71 67 64
66 76 80 78 74 63 54 45 45 47 51 45 43 39 34 36 41 42 42 39 38 37 38 35 31 29 29 35 37 41 40 38 36 38 45 51 57 61 62 60 60 59 57 53
75 76 78 84 79 71 52 46 48 45 55 47 40 39 38 39 46 46 48 42 41 43 42 34 30 29 31 34 37 37 36 41 46 51 50 50 51 54 54 55 56 54 50 49
80 83 90 91 94 74 54 47 52 55 50 36 34 35 37 39 41 43 47 44 42 38 37 37 37 37 37 38 40 40 41 42 42 43 46 48 50 53 55 52 48 47 51 55
79 81 89 91 87 85 60 59 54 52 49 42 40 48 49 45 46 46 47 45 42 39 40 41 41 43 46 49 49 47 46 45 47 50 53 54 55 56 51 50 51 54 58 65
76 85 82 79 77 72 65 65 61 55 52 50 47 50 53 51 51 50 50 47 46 46 46 47 48 52 56 57 57 57 56 55 55 61 61 58 59 59 57 60 64 69 73 74
58 60 69 70 69 74 75 65 62 60 60 59 61 60 57 58 56 51 52 54 55 57 59 58 59 62 62 64 64 64 65 63 65 67 65 64 68 65 66 73 80 82 81 75
48 56 56 55 60 79 71 69 69 65 67 66 66 62 58 59 59 62 63 61 60 63 65 67 67 69 69 70 69 69 70 72 71 70 72 75 75 77 79 84 84 79 75 75
45 53 67 66 60 61 62 63 61 64 76 73 70 68 64 63 63 63 66 69 69 69 70 71 71 75 76 73 73 74 76 77 75 75 78 79 82 82 81 81 80 80 78 75

GFSCGP_prec_cthk_078.txt.gz
RH
38 36 39 26 24 29 36 42 40 37 38 43 46 46 48 57 53 45 40 35 39 45 41 40 48 64 68 73 77 75 72 73 76 77 75 74 74 70 64 69 68 65 64 62
40 37 35 25 25 23 39 42 38 35 37 41 42 43 45 53 52 44 42 38 34 33 38 31 35 42 54 60 61 59 56 56 59 62 60 59 57 56 57 56 59 62 62 60
40 39 37 30 27 34 39 39 39 39 39 41 38 41 38 44 49 46 44 37 38 35 34 28 27 29 35 41 44 46 43 37 40 44 46 45 45 43 43 45 46 49 48 53
38 39 40 38 36 39 39 36 45 44 43 45 39 43 41 39 46 49 47 47 43 43 42 41 36 31 27 29 32 34 35 33 34 32 34 34 34 35 38 41 42 45 46 49
34 39 40 40 38 38 34 40 45 43 41 39 39 40 41 43 46 49 50 48 48 46 46 39 38 37 36 31 31 32 34 33 32 32 32 33 37 41 44 46 44 44 48 55
35 38 40 37 37 38 35 40 43 45 42 46 38 39 44 43 38 43 42 38 44 48 52 44 37 40 39 40 38 34 34 36 37 37 39 43 44 47 46 48 51 51 54 60
34 36 37 39 39 38 38 45 48 53 55 49 45 46 42 37 36 40 42 37 43 46 50 51 43 42 42 39 40 40 40 41 43 46 47 51 56 58 61 62 61 60 58 61
38 45 39 37 38 41 37 42 52 53 56 53 46 45 39 33 32 36 38 40 39 46 47 47 45 48 50 47 42 41 42 43 45 47 47 51 59 60 62 62 62 60 58 60
41 38 37 38 39 42 39 44 40 51 53 60 55 52 44 39 36 37 38 43 45 42 42 43 43 44 52 55 52 45 43 41 41 45 48 50 53 60 62 65 70 57 59 61
36 41 39 41 40 43 42 37 48 53 67 64 55 57 51 41 41 38 36 40 44 39 42 45 46 46 45 49 57 62 59 51 50 45 44 47 50 53 63 73 69 68 64 69
40 44 44 43 45 46 47 40 47 49 56 62 57 55 50 45 42 39 37 42 40 42 38 41 38 38 41 43 49 56 58 59 66 67 67 63 57 61 67 71 78 85 88 92
39 49 52 46 45 45 42 36 39 56 55 55 60 46 44 41 37 37 39 39 36 34 37 36 37 32 30 36 44 55 66 72 74 65 61 62 61 74 80 85 89 87 93 95
48 55 60 49 50 47 48 42 39 46 49 59 71 53 42 41 40 41 45 40 38 38 37 37 43 42 32 27 33 40 44 61 72 70 61 66 66 78 76 75 75 88 89 83
66 59 49 47 43 53 55 48 41 50 54 53 61 53 48 46 46 51 49 43 44 44 41 37 46 45 40 31 26 27 31 36 33 40 46 60 60 62 67 74 76 79 74 73
71 63 54 50 53 59 60 58 48 50 50 49 39 49 45 43 48 50 47 46 45 43 41 39 40 43 42 40 40 38 38 37 34 32 40 52 52 52 58 61 63 65 71 70
74 68 66 65 60 63 72 65 60 54 50 51 45 43 36 37 42 47 48 42 38 38 44 38 38 37 34 37 38 39 39 35 35 39 44 46 43 46 50 56 60 62 66 66
95 77 71 64 63 71 83 64 62 58 54 53 47 40 41 50 50 47 45 40 36 37 39 38 37 35 33 33 33 33 34 36 41 44 48 49 50 49 50 54 61 63 66 69
97 97 77 75 72 93 64 56 55 57 56 48 48 46 43 40 46 44 40 38 37 36 37 38 38 39 38 37 32 31 34 36 39 42 44 46 48 48 51 58 62 64 67 72
89 96 86 81 75 73 67 59 56 60 60 48 52 50 45 38 34 34 33 33 35 36 40 42 41 42 41 41 39 37 38 42 50 52 50 49 48 49 55 58 61 67 62 58
82 91 91 88 77 76 54 60 56 60 65 53 46 50 47 42 45 40 37 37 38 38 41 42 40 43 40 37 40 43 44 47 50 51 45 49 54 59 61 58 55 56 56 57
97 96 87 89 85 81 69 62 58 66 61 52 50 49 50 48 47 46 45 42 43 40 42 43 44 41 39 42 44 48 49 51 49 50 54 53 53 53 56 58 57 56 57 55
88 98 95 97 93 83 68 68 62 60 56 54 52 50 52 51 46 42 39 39 41 40 43 45 45 44 47 48 50 49 52 53 57 58 57 58 59 59 61 63 60 60 60 60
76 82 92 83 79 78 71 72 72 65 63 57 52 54 51 48 45 44 43 43 45 47 49 51 50 51 52 53 56 57 59 61 62 61 64 65 66 66 69 70 69 71 75 73
60 65 76 75 70 66 67 68 70 70 69 68 57 57 53 53 53 56 54 55 54 54 56 57 58 61 62 63 64 68 68 69 69 70 71 71 73 76 78 78 78 80 82 86
61 66 66 62 54 53 50 56 64 70 74 74 67 61 58 59 61 62 65 65 64 63 65 66 66 68 70 70 72 74 77 80 79 78 78 80 84 81 79 81 83 87 91 90
39 52 65 60 55 61 56 55 62 67 69 71 68 67 68 70 67 66 68 68 68 70 71 72 75 75 76 77 80 81 83 87 88 88 86 86 87 88 89 90 91 88 85 86

GFSCGP_prec_cthk_081.txt.gz
RH
37 40 38 40 35 28 32 29 35 37 37 39 45 43 42 40 45 45 48 37 30 29 33 39 53 60 71 81 78 82 87 89 92 91 91 89 84 81 84 83 76 77 77 74
41 39 40 40 35 31 34 32 35 39 37 36 43 44 42 41 42 41 40 42 35 28 27 30 36 58 63 62 66 68 73 78 85 88 90 87 82 81 81 77 75 79 69 65
40 40 38 39 38 34 30 29 36 38 39 37 45 43 41 38 41 43 40 41 39 38 37 37 34 38 50 52 51 50 52 59 65 66 64 67 70 67 67 64 68 66 65 68
38 38 40 42 39 34 34 31 36 37 41 43 44 49 41 37 40 44 45 45 43 38 43 37 41 32 31 36 41 39 36 42 44 51 48 50 53 55 51 50 55 57 57 56
32 38 37 45 41 36 35 41 40 40 41 41 42 48 37 38 43 43 44 44 44 42 42 40 35 34 35 29 27 29 30 32 35 39 42 43 43 46 44 44 45 47 50 51
29 35 38 37 39 42 42 46 43 42 41 45 43 48 34 36 33 37 34 39 40 41 43 42 37 35 33 36 33 29 27 27 29 34 38 39 44 46 49 49 47 49 51 51
30 32 35 40 42 43 46 48 54 51 50 44 45 46 38 37 33 30 31 34 35 38 40 44 41 38 39 36 34 36 35 34 35 36 37 40 43 46 49 50 51 52 52 52
32 35 35 35 38 40 47 49 57 49 52 44 44 48 36 36 31 24 26 31 34 37 40 40 41 43 42 45 41 39 38 38 39 38 40 41 47 50 53 54 54 54 55 56
36 34 31 35 40 42 45 51 43 46 51 54 47 41 33 37 33 31 29 35 37 37 36 38 40 42 45 46 47 46 42 38 39 42 44 45 47 49 53 59 60 63 66 67
34 38 32 34 40 40 44 48 56 59 61 60 50 42 44 45 40 35 36 35 34 39 37 41 43 47 47 48 53 53 54 51 47 46 46 47 49 53 55 56 56 68 76 80
38 39 39 39 40 42 45 49 51 52 57 55 56 45 37 47 43 38 36 37 36 43 40 40 39 38 40 48 52 55 60 65 59 58 66 67 66 61 63 64 65 67 72 82
64 48 43 34 43 45 44 46 48 58 58 55 51 42 33 46 48 43 37 36 39 39 40 36 37 38 36 32 36 43 53 65 71 76 75 69 69 73 74 71 72 79 81 86
79 65 54 43 42 43 51 52 52 55 58 55 55 43 35 47 45 40 36 33 37 39 41 35 38 39 42 37 33 32 39 46 56 73 74 72 72 67 67 65 70 80 88 94
86 81 70 52 42 46 54 54 55 55 62 53 45 43 36 44 45 43 37 39 39 41 43 39 36 38 41 39 38 35 29 29 33 39 42 38 42 46 61 63 62 62 72 84
92 96 70 49 45 54 55 56 56 55 52 52 43 43 34 41 48 43 43 44 46 44 41 42 38 38 37 40 36 33 37 34 34 34 33 33 36 46 58 62 65 62 68 69
95 90 84 57 49 53 58 60 60 57 57 51 47 39 38 39 49 46 44 45 48 42 41 39 39 40 39 37 36 35 36 36 34 34 34 40 49 56 58 59 59 60 60 63
96 98 95 67 62 67 77 53 52 58 62 60 56 45 42 41 39 37 37 39 43 44 43 38 38 38 37 37 37 36 36 34 35 38 44 43 47 50 52 54 54 54 56 58
91 97 98 86 78 92 52 54 57 58 62 64 57 53 46 42 38 40 39 43 42 41 39 38 39 39 38 36 36 39 40 41 40 42 47 49 53 52 51 52 54 54 56 63
74 92 98 98 81 66 58 53 58 68 58 63 61 54 51 46 39 38 37 46 44 42 37 35 37 39 40 40 41 40 37 37 40 43 49 53 60 60 59 53 53 55 62 67
78 87 98 98 98 81 57 50 53 71 71 62 62 57 53 51 46 37 36 39 37 38 39 37 37 38 38 41 41 37 37 41 45 50 53 57 58 58 54 60 65 66 69 69
87 88 92 94 97 85 62 57 63 88 69 60 63 60 55 58 50 46 46 42 45 43 44 42 40 38 42 43 43 41 46 51 55 59 60 57 58 61 68 70 67 68 68 69
66 77 80 88 98 93 73 66 70 73 70 65 67 66 60 57 52 49 49 49 50 50 48 45 42 45 46 49 49 52 55 57 58 58 62 64 65 66 70 71 72 74 75 75
66 59 69 76 93 87 74 66 73 78 79 69 69 67 63 61 54 52 50 54 55 53 50 51 53 53 55 58 61 62 63 65 65 67 69 68 68 69 73 76 78 79 80 82
56 53 62 68 72 75 68 62 68 74 81 78 75 68 65 62 57 57 57 56 58 60 63 63 62 64 68 71 72 73 73 74 75 75 76 75 77 78 80 82 82 84 89 91
61 70 63 63 66 64 56 55 58 65 69 82 79 73 70 68 66 64 64 67 69 68 67 68 68 70 76 78 80 82 83 81 81 82 85 86 89 91 90 91 92 93 94 97
43 51 67 73 69 67 63 61 60 60 64 70 75 79 74 77 73 69 71 74 75 75 78 79 76 79 80 84 87 89 90 90 86 84 87 88 92 96 96 96 97 97 97 96

GFSCGP_prec_cthk_084.txt.gz
RH
43 42 43 42 44 42 38 34 30 26 35 36 33 33 32 40 43 43 42 40 38 36 34 36 55 58 76 75 74 73 80 82 89 92 92 94 91 88 90 89 90 93 90 83
43 43 40 42 44 44 41 36 34 28 32 37 32 30 32 37 40 42 39 39 37 34 31 35 42 57 66 75 78 80 83 93 95 94 94 93 89 89 96 97 96 91 88 82
40 41 39 42 47 46 44 40 35 32 38 37 35 30 31 33 40 40 39 36 36 38 40 37 30 42 53 54 60 65 76 84 91 97 96 94 89 87 90 91 88 90 88 85
35 36 41 44 45 45 45 39 32 32 42 46 37 39 31 30 33 38 39 40 38 40 41 41 35 26 32 42 46 49 55 62 69 75 76 78 72 72 78 80 86 88 81 78
30 31 38 43 45 46 43 41 37 42 48 47 38 45 27 30 34 35 43 44 40 39 40 41 39 35 31 31 36 36 39 46 49 53 54 56 60 61 65 70 75 70 70 70
24 27 34 38 42 47 44 42 44 53 53 57 40 41 30 29 33 34 36 39 39 38 40 42 41 37 36 37 33 30 29 32 37 40 41 42 46 48 50 49 51 51 52 54
23 21 27 36 41 44 45 47 60 63 65 58 40 41 27 26 31 38 34 31 31 33 39 44 44 41 38 36 37 37 35 33 35 38 42 42 46 51 52 54 52 50 51 52
18 19 19 29 37 45 46 47 64 65 65 56 51 46 30 26 29 36 33 29 31 32 35 38 42 43 40 43 40 38 36 37 38 39 41 41 49 53 56 57 58 58 57 57
35 30 20 23 30 40 46 50 47 59 65 67 56 42 26 25 24 32 32 33 35 34 33 35 38 40 43 43 46 45 42 39 39 41 41 43 46 51 54 54 55 53 52 53
36 40 31 32 29 36 40 46 55 66 68 70 60 53 35 28 26 29 33 37 35 38 38 37 39 43 44 48 48 49 51 46 44 42 42 43 45 46 49 48 50 53 57 61
53 40 34 32 35 37 43 44 49 55 61 62 63 55 40 28 32 34 40 40 38 36 36 37 37 41 42 43 49 52 56 58 59 59 52 51 52 54 55 59 66 68 73 77
58 66 56 33 31 39 43 45 47 54 61 64 57 46 38 30 41 37 37 40 36 38 35 36 40 40 38 38 34 36 48 55 57 65 69 65 69 72 69 72 73 77 76 79
61 75 70 49 34 37 45 47 50 51 55 56 61 51 40 34 39 41 39 44 42 37 38 36 39 35 37 39 33 32 32 37 45 51 61 67 71 73 75 75 78 75 78 81
53 62 75 79 67 58 56 47 49 54 59 51 45 47 42 40 40 46 41 43 42 40 37 38 39 36 35 38 40 37 35 34 37 37 41 43 48 51 51 58 59 66 70 70
68 66 69 73 76 71 58 55 51 53 49 52 45 47 45 43 38 46 45 43 41 43 42 43 42 38 36 36 36 35 33 35 37 41 40 39 38 37 40 46 51 60 63 66
74 73 73 68 65 73 62 50 53 51 52 51 49 48 47 44 39 40 45 52 45 43 49 48 46 44 40 36 38 36 35 35 38 39 39 39 38 39 41 49 57 62 64 68
72 91 79 64 73 79 88 44 38 50 52 49 51 50 52 47 42 43 44 48 48 43 48 44 46 45 43 41 37 38 38 36 39 42 42 44 46 50 49 51 55 58 61 60
53 78 90 84 86 97 57 50 43 41 46 48 46 46 53 50 49 46 47 42 42 39 37 39 43 44 44 43 41 42 40 39 39 41 42 45 49 50 52 52 60 64 63 60
50 57 78 86 89 93 75 69 56 54 41 44 45 44 48 54 53 48 49 45 44 40 38 46 44 44 42 42 42 44 43 44 42 40 46 49 50 53 56 61 68 68 65 56
57 60 73 90 91 92 66 79 78 67 59 46 51 53 50 60 58 51 50 47 44 40 37 47 46 41 42 44 45 45 48 49 46 48 52 54 60 64 65 66 65 60 63 67
80 81 77 90 90 78 66 79 89 81 60 61 61 59 55 58 55 56 54 50 48 44 44 44 42 44 49 50 51 52 52 52 50 53 58 60 61 61 63 62 67 70 72 71
58 90 97 98 97 90 77 80 97 90 80 70 67 62 61 60 62 62 59 57 52 52 52 50 49 54 58 57 57 59 65 65 60 62 64 63 65 68 70 74 75 74 73 75
60 58 74 83 83 75 68 79 83 83 91 80 67 69 73 74 73 70 65 63 62 59 61 62 62 63 65 67 68 67 67 67 66 67 70 72 74 74 76 77 78 80 81 82
53 54 62 67 58 60 66 65 73 69 68 78 78 77 82 82 79 73 71 73 69 68 67 68 66 68 71 72 72 72 74 73 74 73 74 78 79 79 81 84 85 84 86 89
58 52 61 66 63 62 59 71 74 68 62 67 76 85 88 87 86 82 76 77 74 75 77 76 74 74 77 76 82 81 80 79 78 81 83 84 85 87 85 83 87 90 92 93
60 58 54 59 69 74 60 59 71 67 63 63 70 86 88 86 89 85 81 79 85 84 84 80 85 85 85 84 87 90 90 89 89 87 86 86 85 83 84 86 88 89 91 92

GFSCGP_prec_cthk_087.txt.gz
RH
49 47 48 44 43 41 40 40 35 33 29 29 30 29 31 33 38 42 40 40 36 34 34 33 44 55 70 74 79 80 74 81 90 94 96 95 97 97 96 95 88 87 81 86
49 49 47 47 44 44 44 42 37 33 33 31 32 28 29 32 35 37 38 39 36 36 35 32 34 51 64 70 72 72 76 81 82 92 92 94 96 98 97 94 90 94 90 89
41 45 46 47 46 48 47 45 41 37 35 34 34 30 28 30 34 36 38 34 37 33 36 39 28 39 52 59 64 72 79 81 85 90 94 94 93 92 93 96 96 91 90 88
32 32 43 46 44 44 46 44 43 40 40 36 39 37 27 28 28 32 34 35 37 37 36 38 38 29 36 44 49 56 67 79 86 91 96 96 90 91 91 91 91 94 92 90
27 24 27 39 49 51 46 44 44 43 41 40 39 41 27 29 29 28 31 37 40 40 35 36 36 32 28 32 38 41 47 58 68 76 83 86 80 77 79 87 87 91 90 90
25 23 26 32 38 46 47 48 49 48 46 48 42 43 29 26 28 31 32 36 40 41 38 37 37 34 32 33 29 30 34 39 46 50 56 58 59 58 66 71 72 74 70 69
28 24 19 26 37 45 48 53 53 56 54 46 46 50 35 26 28 27 33 36 36 37 37 36 38 34 32 31 32 30 29 33 36 37 40 44 46 45 49 49 56 56 59 62
29 27 21 18 23 39 49 52 54 53 56 48 54 50 39 30 25 27 34 34 26 34 35 36 37 37 35 33 32 33 32 31 34 37 41 46 49 51 51 54 55 54 56 60
38 26 20 18 15 18 42 53 48 53 62 62 54 47 41 32 24 23 33 34 33 36 38 37 38 40 38 37 37 34 34 36 37 38 40 43 47 50 54 57 57 58 58 61
46 42 31 31 26 27 32 43 54 55 52 55 51 52 40 38 30 23 31 33 37 37 44 44 41 44 46 45 45 43 41 38 38 40 41 41 41 43 46 49 51 53 53 55
44 54 39 34 36 34 34 39 48 51 52 48 51 48 41 39 36 28 28 34 36 37 38 39 41 46 50 48 49 49 50 51 48 45 46 45 44 44 46 45 47 52 57 62
51 57 61 45 39 42 39 41 44 50 48 60 53 43 40 40 41 38 32 34 39 39 38 37 40 44 47 46 43 44 47 52 56 59 58 56 53 52 53 57 60 62 63 65
40 58 52 44 36 40 45 50 48 50 51 45 53 46 41 42 43 40 39 36 37 41 41 38 34 39 45 41 43 37 35 37 45 55 58 64 66 66 67 72 74 76 77 79
36 45 39 44 61 56 50 50 56 66 53 47 44 43 44 40 42 43 41 42 39 44 47 41 37 36 42 39 41 41 38 35 36 41 44 44 49 57 54 63 62 66 74 77
39 56 55 52 51 53 55 48 51 53 52 48 41 42 44 39 40 43 44 45 42 44 48 45 42 39 42 45 40 42 40 37 35 38 40 42 44 42 43 47 51 54 56 59
57 61 64 62 57 58 54 44 41 45 49 48 48 44 44 46 44 46 47 48 46 45 48 49 48 50 44 43 46 40 41 41 38 36 36 43 44 45 45 44 45 48 52 58
50 54 55 50 53 58 56 43 55 46 40 37 41 42 50 52 47 47 49 49 49 47 51 55 53 52 48 46 47 45 42 42 41 43 45 47 47 48 51 53 56 58 58 59
59 63 59 54 52 65 23 39 55 54 37 47 43 39 46 50 53 47 46 49 47 46 41 50 54 54 50 49 45 47 43 41 44 46 47 48 47 47 52 57 57 59 59 58
61 62 59 62 53 40 30 47 73 75 50 52 50 45 42 44 49 41 40 47 49 49 46 45 47 46 46 51 49 50 47 47 50 52 53 50 49 51 53 57 60 61 63 67
65 65 66 65 72 66 44 61 69 72 66 76 69 62 54 48 46 30 43 49 52 49 51 49 48 48 53 50 51 50 48 51 54 58 58 53 50 52 53 57 61 65 68 69
80 78 76 78 78 52 61 69 75 80 67 86 80 76 70 60 49 43 48 44 49 49 50 49 49 50 52 55 53 52 54 58 59 60 60 59 65 64 63 65 68 69 71 75
74 76 75 81 91 84 79 80 80 78 81 91 89 85 77 69 63 56 53 58 55 57 56 52 53 58 66 61 61 62 63 65 66 63 66 67 67 67 69 71 76 78 79 83
69 64 63 65 73 91 77 74 75 75 77 82 91 87 78 77 74 70 66 65 64 64 64 63 65 65 69 70 70 70 73 75 73 72 71 69 72 77 77 78 83 84 85 86
57 58 58 56 45 52 69 71 76 76 78 78 80 84 87 83 77 76 73 74 74 72 76 78 75 74 77 79 79 77 79 76 73 71 73 75 80 83 86 87 88 89 88 87
56 55 53 48 44 51 54 68 74 72 76 81 77 78 81 91 86 83 80 84 85 86 87 87 83 83 82 83 79 80 77 77 77 76 78 85 89 90 90 87 86 87 88 89
60 57 59 54 48 49 57 72 70 72 75 80 77 74 80 89 93 94 93 92 92 95 98 96 95 93 87 84 81 84 83 85 88 91 93 93 94 90 89 89 88 87 86 88

GFSCGP_prec_cthk_090.txt.gz
RH
47 52 46 46 47 43 42 40 37 35 37 33 28 26 26 25 30 32 37 38 36 33 30 30 27 42 59 65 64 68 71 76 84 94 98 98 98 97 97 93 88 84 82 80
41 44 48 50 49 49 42 42 40 38 38 36 30 27 28 24 27 32 34 38 37 34 30 32 28 37 49 65 67 69 70 69 80 90 94 94 97 98 96 93 91 86 84 89
34 38 44 51 54 53 44 46 45 41 41 38 32 29 28 27 24 29 30 34 36 34 30 31 33 29 42 53 60 65 68 70 73 83 92 96 97 98 97 95 93 89 89 89
32 30 37 45 50 52 47 46 47 45 43 40 36 31 31 31 25 27 26 30 33 35 33 28 33 32 29 41 49 57 65 72 74 80 90 91 94 95 96 95 92 91 87 86
36 27 22 32 44 49 51 46 47 45 45 43 36 32 30 28 26 26 28 28 31 37 36 30 30 33 31 29 37 43 50 65 76 83 88 92 94 95 93 94 92 90 91 87
36 37 26 22 35 41 51 55 54 48 48 50 39 34 30 31 26 28 28 31 33 37 38 36 30 33 34 33 31 30 38 46 57 70 78 83 85 81 80 84 84 86 90 87
28 28 25 24 35 37 40 49 56 60 57 49 35 38 32 32 27 27 29 33 35 37 35 36 32 32 32 34 33 31 32 34 41 46 52 57 59 65 65 67 72 75 75 73
22 32 28 23 24 28 38 46 54 59 53 47 40 43 34 38 35 25 29 36 36 37 35 32 33 34 31 32 33 33 33 36 37 39 43 45 49 49 53 55 57 60 63 65
33 21 30 27 24 19 29 42 48 55 52 54 47 46 38 38 36 27 24 32 34 33 35 33 30 34 35 35 33 32 36 37 39 41 42 46 47 51 54 56 59 58 59 61
41 38 32 33 34 33 24 32 38 53 58 54 44 44 41 36 37 36 22 29 34 37 36 38 39 34 36 38 41 36 35 37 39 42 44 45 47 49 52 54 56 56 57 59
43 45 37 38 35 32 33 39 34 40 48 49 47 41 37 37 39 41 32 30 36 39 36 38 39 41 41 43 45 43 41 40 39 42 46 48 48 48 49 51 52 54 54 55
41 52 47 43 41 45 41 35 34 38 44 49 47 44 41 39 42 42 43 35 36 39 38 39 42 45 45 48 47 43 40 43 47 50 47 49 53 55 54 55 56 56 55 59
31 48 46 37 41 48 52 51 47 45 43 42 52 52 42 39 40 43 43 43 42 40 38 41 44 44 45 45 43 42 43 40 47 54 56 55 52 52 55 58 58 61 64 68
32 34 28 32 44 46 45 48 47 49 57 48 43 45 42 39 40 42 44 47 48 47 43 41 42 44 43 43 42 40 39 37 34 38 47 50 50 53 56 55 55 60 72 70
27 31 36 41 33 33 41 41 42 43 46 53 49 49 43 40 36 38 42 48 48 50 49 46 43 47 45 43 48 46 41 39 39 38 42 47 51 52 52 51 56 54 52 52
51 48 47 42 34 31 28 25 30 38 40 39 41 40 38 38 37 37 38 43 45 50 56 53 52 48 43 44 45 49 47 44 39 37 39 40 43 47 49 50 49 51 51 55
51 53 53 43 43 40 37 28 23 23 27 38 44 40 37 35 32 29 38 41 46 48 48 49 46 47 48 44 50 52 53 50 46 40 39 40 43 46 48 49 50 52 53 57
51 57 59 52 45 40 22 29 32 30 35 41 43 40 39 38 35 31 33 42 47 50 51 48 49 54 55 52 52 54 55 51 50 48 46 48 50 52 52 49 51 57 64 64
56 62 64 60 44 30 29 38 30 49 48 53 47 52 52 42 44 40 38 37 43 48 49 49 47 46 51 58 57 56 54 56 55 52 48 49 52 54 57 56 59 64 65 69
57 63 64 59 60 45 50 47 50 56 56 77 70 74 65 58 54 45 42 36 35 40 43 48 51 47 45 51 55 54 55 59 58 57 54 57 61 62 60 58 59 61 63 67
70 74 72 68 66 49 43 41 51 68 72 74 78 79 74 72 67 61 51 41 34 36 44 48 52 55 55 53 52 55 58 58 66 66 65 64 64 67 66 64 68 70 71 76
72 73 72 69 75 65 53 60 73 82 81 80 77 78 89 83 76 71 64 58 49 41 44 45 52 53 58 59 61 66 66 68 69 70 73 75 72 69 69 72 75 76 78 79
69 66 70 66 61 52 56 74 77 78 79 78 77 80 84 91 83 78 73 67 63 58 55 50 57 58 61 66 67 66 73 75 77 78 78 78 75 75 77 80 78 80 86 88
60 59 60 64 55 47 48 48 61 75 80 78 80 85 88 92 92 87 85 83 75 69 68 69 66 68 71 73 73 77 78 80 82 81 78 79 80 81 83 85 87 89 91 94
63 62 59 58 55 55 46 50 51 61 77 76 81 83 87 91 87 85 90 86 88 85 84 81 79 77 79 80 86 86 82 79 80 81 83 87 86 88 88 90 95 97 96 94
66 64 62 60 58 57 54 53 58 63 71 73 79 80 92 92 87 88 98 94 90 86 87 87 90 90 91 89 90 85 85 88 89 89 89 88 93 94 98 97 96 96 95 93

GFSCGP_prec_cthk_093.txt.gz
RH
38 38 43 48 48 47 47 41 42 40 38 37 35 31 28 30 30 31 32 33 39 41 40 36 35 30 38 52 60 63 65 66 65 72 82 90 91 94 96 98 95 91 87 84
32 36 36 47 52 54 52 47 43 41 40 41 38 33 28 28 25 31 31 36 39 40 39 35 35 31 33 49 58 63 64 65 67 75 82 89 93 98 98 98 95 91 90 87
38 34 41 35 45 53 55 52 50 47 44 44 40 35 30 28 28 29 27 26 31 39 40 35 34 30 33 41 49 58 66 66 66 73 83 87 93 95 97 97 94 92 91 90
38 36 42 42 38 44 52 55 53 51 47 48 44 37 30 30 32 35 29 27 28 34 39 37 34 31 33 30 41 51 58 67 72 70 78 86 90 92 93 93 92 92 93 91
35 39 35 35 31 41 48 54 54 53 50 50 45 41 31 31 30 32 27 25 27 32 37 38 35 32 32 33 30 37 48 61 73 76 82 83 87 91 90 91 92 92 92 90
35 43 40 37 31 27 40 49 53 57 55 54 49 43 33 32 37 35 33 24 28 31 37 39 37 32 35 33 32 31 36 50 62 73 83 86 88 92 89 86 86 92 93 93
27 40 38 34 39 34 33 47 57 77 75 56 48 44 36 38 32 30 33 27 29 32 36 39 37 32 34 31 32 32 33 39 48 57 64 71 74 75 75 75 84 90 93 93
25 28 39 30 37 36 31 39 42 58 67 63 50 42 35 38 39 37 32 28 31 31 36 37 34 33 31 28 30 31 32 35 38 44 49 52 56 58 61 67 70 77 78 80
36 24 31 30 32 28 31 39 42 49 59 61 56 45 42 40 42 38 36 35 30 32 34 34 38 33 31 26 27 28 29 32 36 38 42 47 49 51 54 58 61 62 63 66
46 44 32 24 26 34 29 35 43 42 60 66 51 47 44 43 42 41 39 33 29 32 34 36 37 36 34 31 30 32 31 31 33 38 41 44 46 49 52 55 57 58 59 60
44 44 46 36 33 35 37 33 36 39 43 52 57 49 47 46 45 48 46 46 35 35 37 36 38 41 42 39 35 37 37 35 34 35 40 46 46 49 51 53 55 55 61 60
44 48 49 43 45 44 47 43 37 50 47 47 49 49 52 46 43 50 55 51 38 38 42 40 41 41 42 45 43 42 39 37 36 37 38 41 49 54 58 60 59 59 59 60
43 47 44 31 37 38 44 46 44 46 54 54 60 58 45 48 46 45 46 46 47 42 45 43 43 43 44 48 47 45 42 41 40 38 41 42 45 47 53 58 61 62 64 64
29 33 40 40 53 50 50 45 51 52 53 51 44 41 41 44 43 45 45 45 48 50 47 47 45 46 48 46 47 47 42 42 44 42 42 44 47 49 49 49 52 56 60 59
40 37 32 26 25 37 40 43 39 42 52 54 51 50 48 47 44 38 39 43 48 51 48 46 45 48 48 47 47 46 46 40 38 39 40 40 47 48 49 50 51 51 50 58
58 45 32 29 26 23 22 21 24 27 31 39 49 47 40 36 35 35 33 34 38 46 51 55 49 48 49 46 47 48 45 44 42 41 41 41 43 47 51 52 52 53 53 57
53 52 52 35 29 35 38 24 20 18 18 26 33 36 40 46 41 38 28 28 34 40 49 52 54 52 50 53 53 52 51 52 47 46 46 43 43 47 46 48 51 53 56 59
55 52 57 48 45 43 23 23 23 23 34 28 21 34 49 48 47 38 30 28 30 41 48 51 51 55 55 54 52 51 55 57 53 52 48 46 45 44 46 50 54 52 53 56
56 68 62 55 47 34 29 32 45 33 37 53 54 53 53 53 48 35 33 38 45 35 43 49 52 51 50 51 51 55 61 66 65 59 58 57 55 52 51 50 53 56 57 60
57 61 66 61 57 51 53 53 39 41 52 63 64 69 75 71 55 51 54 48 47 40 36 42 48 50 53 51 52 56 62 63 69 72 65 63 62 59 59 60 62 64 64 63
61 72 67 65 64 50 43 44 40 53 73 65 60 58 59 62 62 57 64 59 55 47 37 37 42 47 52 52 53 59 55 53 61 66 69 69 69 68 68 67 70 71 72 69
69 76 74 69 74 65 47 57 57 63 62 56 60 57 54 57 64 63 68 68 60 54 47 44 46 46 47 49 51 55 57 58 63 66 69 72 73 79 77 79 79 79 77 73
83 57 68 65 63 63 62 56 50 53 61 65 62 63 62 64 71 76 76 81 73 67 61 51 45 46 47 51 55 60 63 64 67 69 73 74 79 84 85 84 86 85 81 80
65 70 67 67 67 62 65 51 48 45 56 61 64 74 73 77 80 82 97 95 85 81 76 68 61 56 54 57 57 62 68 72 74 76 80 85 84 87 88 87 89 84 84 88
68 71 72 62 58 58 56 53 52 52 52 54 62 64 77 78 88 92 97 94 87 86 84 81 76 73 69 67 68 75 80 81 82 84 86 89 90 91 91 86 85 90 91 98
72 71 68 65 64 61 58 57 60 59 57 57 54 68 84 84 96 95 98 95 89 88 89 91 88 85 85 85 88 87 91 91 90 92 94 92 88 91 93 94 97 98 98 97

GFSCGP_prec_cthk_096.txt.gz
RH
33 32 28 37 45 48 51 49 47 39 39 42 42 40 32 34 32 35 35 34 35 41 44 40 38 29 28 34 46 59 62 63 66 66 70 78 87 91 96 95 98 98 97 95
34 26 33 38 41 47 49 50 49 47 41 42 41 37 33 34 31 30 27 32 37 40 41 40 37 29 29 36 44 52 60 63 64 68 78 84 88 92 94 96 99 98 98 93
32 28 31 36 38 44 48 51 54 57 52 48 46 45 35 33 33 32 29 33 35 39 39 39 37 32 29 35 37 48 52 61 62 63 74 81 86 91 95 97 99 99 98 93
34 35 38 35 43 39 42 49 54 58 62 54 50 48 40 33 32 33 30 29 30 27 39 37 38 33 29 33 35 41 48 55 65 67 71 76 82 85 90 95 97 96 93 89
33 35 40 42 41 48 46 42 50 60 62 62 53 51 40 33 33 31 36 36 32 29 36 37 37 33 29 32 34 35 41 47 63 71 71 76 82 86 88 90 90 92 92 91
34 35 34 43 44 39 44 47 50 54 58 61 57 57 45 36 34 36 35 33 31 35 36 36 37 34 30 31 32 34 35 39 49 62 74 77 79 81 84 85 87 88 91 94
34 39 36 45 49 43 45 47 51 62 68 68 54 56 47 40 39 39 44 36 30 31 34 36 36 32 30 29 31 31 34 38 44 48 57 66 74 76 75 74 78 79 85 89
42 36 28 39 40 42 42 47 46 52 66 61 66 60 47 41 41 37 40 37 36 32 34 37 35 32 30 27 28 29 31 35 40 44 46 50 51 53 54 56 67 77 83 86
59 48 32 29 40 45 45 54 45 43 54 82 70 63 53 44 46 44 40 38 42 40 35 38 35 33 30 27 26 27 30 33 35 38 43 46 47 49 49 53 56 62 68 74
63 68 39 37 32 43 44 53 54 45 56 60 56 70 62 55 49 50 42 42 42 43 36 38 38 36 32 28 27 27 30 32 35 38 39 43 46 46 49 53 54 55 55 58
58 57 70 38 29 32 38 38 39 46 48 48 56 61 65 60 56 54 53 49 45 47 39 39 40 37 37 36 32 32 34 35 36 36 38 42 46 48 48 47 50 51 53 55
57 49 54 63 44 48 55 35 39 45 50 49 50 50 62 63 61 60 58 56 54 47 46 44 42 41 41 39 41 39 39 38 36 34 37 41 44 51 54 57 56 54 55 54
45 42 46 53 56 48 52 52 48 43 41 50 64 54 56 56 57 53 53 51 49 51 50 49 51 47 43 43 43 46 42 41 39 36 37 39 44 47 53 59 60 61 62 62
46 38 42 56 64 57 55 62 62 62 68 57 50 49 62 63 57 53 53 51 50 51 56 56 57 57 50 49 48 46 48 45 46 44 42 39 41 45 50 53 55 59 61 63
45 40 31 35 52 48 44 44 47 50 54 56 46 50 53 56 55 51 49 51 48 51 54 55 54 56 61 55 52 52 51 54 49 48 43 41 40 41 45 46 48 50 53 56
49 57 46 33 27 32 38 39 38 40 43 43 44 41 41 38 38 35 36 44 44 47 46 51 53 57 54 55 53 53 54 52 51 47 43 43 43 43 44 47 51 56 58 59
67 61 48 46 35 26 27 20 22 20 21 24 28 27 35 38 35 37 39 37 48 48 45 45 51 55 61 57 55 54 52 49 50 49 47 48 48 49 48 51 55 56 56 58
68 61 58 50 52 58 33 27 31 31 30 29 39 29 21 35 41 42 48 48 41 45 46 47 52 56 60 62 60 58 56 54 54 52 55 58 56 54 55 56 59 56 53 53
51 53 67 57 46 38 35 33 36 52 48 53 55 48 45 46 45 40 45 43 46 45 46 46 44 49 51 51 52 56 60 61 59 53 55 57 58 59 61 61 58 56 59 60
57 55 66 61 60 54 56 50 42 40 51 55 52 55 53 49 51 45 51 47 44 48 48 50 45 46 47 45 52 58 63 63 65 65 63 61 65 63 63 65 64 66 65 68
60 70 70 72 72 49 70 58 52 50 64 62 57 57 57 57 56 54 58 51 48 48 48 49 48 46 46 45 50 56 61 63 62 64 67 67 66 66 70 71 75 73 75 77
65 72 80 70 67 63 43 49 55 58 56 57 62 61 56 55 54 52 47 49 53 54 56 50 50 48 47 49 51 55 58 59 64 68 68 72 73 71 79 81 83 81 82 84
91 63 64 61 56 52 59 61 56 51 47 47 55 54 53 54 56 57 65 67 60 66 61 59 60 56 53 54 58 59 63 66 68 71 74 76 78 79 81 85 88 89 93 87
80 76 81 86 76 78 77 70 68 58 50 48 52 54 55 50 58 70 70 76 77 74 76 75 68 64 61 55 58 64 66 69 69 73 77 82 84 85 87 90 91 93 91 91
81 88 82 90 72 67 67 64 60 60 60 56 53 52 48 47 58 73 78 89 92 90 84 90 82 73 69 67 64 57 60 64 68 74 78 83 86 88 91 93 97 99 99 99
73 81 82 81 79 72 81 72 74 66 60 56 54 48 49 48 62 73 81 93 96 95 96 92 84 81 79 77 75 75 70 69 71 76 83 89 92 94 96 98 97 97 97 99

GFSCGP_prec_cthk_099.txt.gz
RH
22 21 20 26 36 41 44 44 40 40 39 49 43 45 45 42 37 35 32 34 37 39 39 39 40 40 31 24 26 37 50 55 56 57 60 73 82 87 87 99 96 95 97 89
24 19 23 28 31 33 36 39 39 39 45 50 47 44 47 42 37 35 34 32 33 39 42 41 41 39 32 22 29 33 45 54 55 57 61 75 82 87 91 93 95 94 93 92
33 24 26 26 28 31 31 37 42 43 47 49 55 47 45 43 36 35 34 32 31 34 40 42 40 38 32 22 30 32 39 47 58 55 66 74 79 84 92 96 95 94 97 95
33 34 32 25 25 32 31 35 39 47 54 56 59 57 49 46 40 36 34 33 33 38 41 38 36 37 32 24 31 33 34 41 57 58 62 71 79 80 89 95 96 99 99 98
22 29 35 33 33 33 33 44 40 46 51 54 55 61 48 48 46 40 34 32 33 36 37 33 32 36 32 24 31 33 34 38 50 66 65 73 75 78 85 91 96 99 98 98
22 27 30 32 34 37 42 46 48 47 54 60 58 59 50 48 48 45 39 38 35 37 37 30 34 38 33 25 31 33 34 40 46 55 69 72 75 79 83 87 87 92 95 95
21 22 26 33 37 38 42 45 60 70 67 58 47 54 50 44 46 48 43 39 35 40 40 32 34 39 32 27 29 31 34 39 47 52 57 67 72 76 78 83 87 89 87 92
29 29 21 26 34 41 43 45 61 71 72 61 53 67 56 55 52 48 48 47 44 44 36 31 35 35 31 27 27 27 30 34 41 48 54 55 57 59 62 67 71 78 87 91
37 29 29 29 33 45 44 51 45 54 56 77 68 59 51 63 54 54 52 50 45 43 42 35 33 31 32 27 27 25 30 33 38 42 46 51 53 52 52 55 67 76 81 84
47 44 35 42 39 35 37 43 54 55 63 70 61 66 71 71 62 60 56 50 53 50 47 43 33 30 32 29 27 27 30 34 38 42 45 45 48 52 53 52 57 64 70 77
55 46 57 55 40 39 44 50 55 58 66 63 57 54 62 72 69 67 62 56 56 57 50 41 34 32 34 35 30 28 31 32 38 40 41 43 45 48 50 52 52 55 56 58
65 56 68 61 56 52 47 50 50 65 60 58 52 44 60 59 71 65 67 59 56 54 60 54 41 39 36 39 40 38 37 39 37 38 40 42 44 47 52 52 50 48 48 50
71 62 63 70 67 60 55 49 46 48 49 51 61 57 64 65 64 74 73 68 62 57 57 61 55 47 40 41 42 43 44 44 44 41 38 40 41 46 49 51 54 58 58 59
61 52 47 60 78 76 61 66 69 70 56 47 50 51 64 71 74 71 64 63 69 60 54 69 66 51 48 43 43 48 47 46 45 47 43 42 43 43 45 51 54 55 58 61
60 58 46 46 51 53 52 50 57 75 67 62 53 50 60 70 78 64 58 64 66 62 57 48 59 73 56 55 49 48 52 52 45 48 48 45 44 44 42 45 49 53 55 56
56 57 55 42 44 49 58 40 39 53 58 54 53 50 52 54 57 58 61 65 65 65 63 58 57 58 71 60 54 51 51 54 54 48 50 47 45 44 44 45 45 47 48 53
60 57 56 59 42 38 48 43 38 31 33 37 40 41 47 44 55 66 63 59 57 58 59 63 58 59 63 73 80 62 56 57 56 53 49 49 47 49 49 49 49 51 52 55
60 59 59 67 63 69 28 29 29 30 34 39 39 45 47 48 52 57 56 55 53 50 51 51 56 55 53 54 62 79 66 53 54 56 52 54 52 54 58 56 55 57 57 58
53 62 73 77 79 49 40 42 42 42 56 50 47 46 50 41 37 47 52 52 53 52 48 46 52 57 54 56 50 52 62 73 60 57 58 60 59 57 61 63 62 64 66 67
39 56 73 74 72 61 54 55 47 47 66 65 56 50 56 50 48 44 43 39 37 43 46 44 47 49 53 54 56 52 55 64 70 65 64 71 71 65 61 65 70 70 71 75
45 57 67 63 82 57 65 60 49 56 65 56 54 56 53 55 54 48 45 43 44 46 48 42 42 43 52 54 55 56 54 59 68 76 73 73 76 75 73 71 74 79 81 78
59 69 79 82 79 70 55 68 72 74 63 54 53 51 51 51 49 46 44 42 40 46 45 42 40 37 40 47 53 59 58 61 61 71 76 77 77 80 82 82 85 89 90 87
83 63 66 61 54 50 61 67 80 70 63 52 48 47 47 46 41 40 42 41 42 46 45 44 43 42 43 45 49 54 58 61 67 72 70 74 78 83 86 88 90 91 92 94
95 84 78 71 61 59 59 65 71 68 63 53 49 47 45 46 44 42 43 44 50 58 57 55 52 48 49 53 59 60 54 55 61 71 81 82 84 88 92 96 96 97 98 99
88 96 92 83 83 80 86 81 75 71 66 62 58 55 49 41 40 42 46 50 59 70 73 72 69 63 61 62 68 71 69 62 61 63 75 86 88 92 94 93 96 97 99 99
80 92 97 96 94 93 87 76 80 73 69 65 58 54 47 40 43 50 57 66 72 84 84 85 80 79 82 79 81 83 81 78 75 70 67 79 87 89 92 94 96 98 98 98

GFSCGP_prec_cthk_102.txt.gz
RH
21 21 22 22 29 33 38 39 37 36 39 43 43 37 36 38 38 36 34 32 35 37 37 37 38 40 45 41 32 22 27 41 53 53 60 65 78 88 91 96 97 96 98 91
28 21 19 20 22 27 34 37 33 34 36 40 43 33 35 40 40 39 36 34 35 37 39 39 42 43 45 42 30 22 27 37 49 56 59 66 80 89 91 99 97 98 98 92
30 23 21 22 23 25 26 30 31 32 37 37 40 32 36 40 44 42 37 34 34 36 36 37 42 42 46 42 29 22 27 31 44 54 56 68 82 86 94 98 98 97 94 92
26 26 30 27 23 26 24 27 29 30 34 37 45 41 38 41 45 45 40 38 38 38 38 40 42 42 46 41 29 23 26 27 41 54 55 68 75 81 92 99 98 98 98 95
18 25 27 31 28 29 22 29 33 36 33 37 42 51 36 40 44 46 41 40 42 40 39 41 42 46 45 36 29 23 26 28 38 53 58 65 73 79 89 95 98 99 97 94
17 21 25 29 33 33 32 36 40 42 45 48 48 56 40 43 43 43 44 44 46 43 41 43 44 50 42 34 30 24 25 27 38 47 60 64 70 77 85 91 97 98 98 96
20 18 19 25 27 33 37 44 54 55 57 50 43 52 39 41 43 45 43 42 43 39 41 41 45 50 39 34 29 24 25 25 36 44 51 64 73 77 83 88 93 95 97 98
31 28 20 20 24 32 41 46 57 59 67 55 48 55 48 56 57 48 47 45 45 44 44 42 43 46 40 34 25 23 24 25 31 38 46 51 62 71 75 82 88 91 95 95
39 29 26 22 21 33 36 51 48 54 57 64 64 57 47 50 58 59 55 54 52 49 52 52 51 43 41 33 24 20 21 26 31 36 39 42 43 46 49 56 67 79 88 96
49 46 32 32 32 27 34 42 54 54 59 63 59 55 60 61 66 70 65 62 63 68 60 56 47 40 39 32 25 21 21 24 32 35 37 40 44 46 49 52 60 70 79 88
61 58 45 44 43 38 36 43 57 57 60 56 64 54 55 61 60 79 75 67 64 66 74 70 54 47 40 35 27 23 23 24 34 36 36 38 41 45 48 50 55 61 69 78
74 64 58 57 63 53 47 48 53 63 62 64 67 56 55 62 63 74 81 73 67 63 61 69 64 56 42 38 35 28 27 27 30 36 36 37 41 43 45 46 50 55 56 61
88 84 79 63 71 67 57 61 60 59 61 65 71 65 67 70 73 74 72 83 79 70 66 74 73 71 62 45 43 40 35 33 36 38 38 36 38 43 49 53 52 50 50 52
84 84 66 72 83 77 67 61 73 74 72 64 65 55 72 79 77 78 76 78 85 79 73 67 78 76 74 71 61 47 43 39 39 40 42 40 38 40 47 51 56 59 59 60
77 81 72 64 64 64 68 60 65 75 83 70 64 65 65 67 70 76 77 74 80 87 80 70 72 82 77 77 72 71 59 53 51 44 42 44 45 42 42 47 51 56 60 63
76 78 70 61 57 62 62 59 61 59 62 76 59 54 57 55 63 64 75 76 83 88 84 77 71 72 80 79 80 73 71 70 65 60 50 45 45 46 46 44 45 48 51 53
72 77 73 67 54 46 54 52 53 54 52 63 68 68 61 67 64 66 70 71 77 75 79 83 78 75 70 72 81 73 69 73 74 72 64 56 52 49 46 48 50 50 51 54
63 71 72 69 51 62 46 42 45 63 65 55 56 65 72 75 71 62 68 66 67 69 70 69 74 69 70 62 59 64 78 78 78 72 68 67 59 56 54 55 56 57 61 63
47 63 68 68 62 47 45 57 57 58 68 61 55 54 59 65 69 69 63 60 58 57 58 59 56 58 62 64 59 57 57 58 69 74 71 70 67 67 63 64 63 66 68 70
38 46 56 65 63 64 55 63 54 53 70 61 57 53 49 45 56 56 62 61 58 57 54 53 51 47 47 52 56 56 58 56 58 65 80 80 76 73 71 72 72 71 74 75
41 49 53 60 71 67 61 61 52 62 64 59 57 52 51 49 49 53 52 46 46 43 42 41 36 38 43 42 44 47 56 63 62 63 68 75 81 85 84 86 88 86 83 83
65 48 59 67 77 67 60 49 57 70 59 52 52 50 44 43 44 44 42 40 42 43 42 39 37 36 40 40 39 42 47 57 61 62 60 65 83 93 89 92 95 96 94 91
96 59 52 58 63 57 60 66 76 72 67 64 59 52 46 42 42 39 38 40 41 43 44 43 40 40 37 34 36 38 40 47 58 62 66 66 67 78 90 92 92 98 98 97
98 80 75 65 58 71 72 71 76 85 76 73 66 59 50 45 38 33 33 35 37 42 43 41 43 44 43 41 43 43 43 43 46 55 63 67 68 75 82 86 91 94 97 97
97 94 87 87 81 78 73 73 74 79 75 72 67 62 57 45 35 35 36 40 43 45 45 45 48 47 48 49 51 54 53 51 51 54 58 63 66 71 75 82 86 91 95 93
98 99 98 98 92 86 85 85 81 79 78 74 68 63 54 47 39 36 39 42 48 53 52 51 53 52 51 53 59 64 67 67 65 66 67 69 72 73 76 80 87 89 92 96

GFSCGP_prec_cthk_105.txt.gz
RH
26 23 23 23 28 30 34 38 39 36 36 40 35 31 32 34 34 34 33 36 35 32 31 31 33 37 41 41 42 42 35 24 28 36 50 52 61 67 85 92 96 97 95 96
28 26 21 22 25 29 32 34 35 36 37 40 34 27 29 31 33 33 34 37 35 33 35 34 35 42 43 42 45 44 35 26 29 32 44 54 57 67 83 90 97 96 98 95
25 23 22 21 22 24 25 28 32 33 34 34 32 27 25 28 30 32 34 37 37 37 37 34 37 39 42 41 45 44 34 27 29 30 42 53 54 71 80 86 93 98 98 96
20 18 25 26 21 24 23 22 25 30 36 40 37 33 28 28 27 29 32 36 37 39 40 37 37 40 39 39 45 45 33 29 30 28 41 50 53 67 73 84 94 99 97 96
9 22 23 25 25 26 21 27 28 33 35 36 32 43 29 29 29 28 31 38 41 41 43 41 39 41 43 42 45 43 30 30 30 29 41 51 57 66 74 86 94 98 97 97
8 16 21 25 25 25 27 33 35 37 41 43 34 41 28 30 31 33 33 34 37 40 44 43 42 44 45 48 48 41 29 30 31 31 43 54 59 67 75 85 95 99 98 97
15 14 15 23 23 26 32 39 47 53 59 44 38 46 32 34 33 45 45 40 40 41 42 43 44 44 43 44 48 41 30 28 29 33 43 51 62 66 72 82 93 97 99 97
27 18 15 15 23 27 32 38 48 50 56 51 47 48 38 36 54 55 50 48 47 44 45 48 46 46 43 46 50 39 28 26 26 31 39 48 55 67 72 78 86 97 98 95
47 34 23 19 16 22 25 43 32 49 54 61 52 45 40 42 50 54 57 56 54 58 59 57 55 51 45 49 48 35 28 25 25 29 35 41 45 52 60 67 77 86 91 96
56 51 38 36 35 25 25 28 51 57 56 61 53 52 48 45 52 56 65 65 62 59 57 57 59 54 56 54 48 32 28 24 26 30 34 37 39 41 43 50 59 68 77 86
60 56 46 42 43 41 31 34 48 53 62 56 58 54 43 46 51 58 66 73 68 66 64 62 61 58 61 62 51 32 28 27 30 32 34 35 36 40 44 45 52 59 67 75
74 65 62 50 49 49 50 41 40 58 57 58 58 53 55 58 65 67 68 79 77 73 71 64 61 68 70 66 56 44 34 27 29 32 35 34 36 38 43 46 49 55 61 69
85 77 71 62 63 57 56 49 50 46 55 62 68 67 61 64 66 66 70 78 87 81 76 75 79 75 76 72 63 51 38 40 40 37 37 35 35 38 40 44 46 50 55 60
67 81 89 89 84 78 68 56 60 56 63 74 73 68 70 71 79 79 82 81 85 83 82 77 85 83 85 80 70 59 53 48 47 46 47 44 37 35 40 46 50 50 51 54
72 91 91 85 71 77 84 68 66 72 74 73 68 57 59 70 77 76 77 85 85 88 87 82 78 86 85 86 81 73 65 59 55 52 52 53 52 47 40 42 48 53 57 59
66 88 95 88 76 71 80 78 68 68 74 77 77 62 66 74 81 73 83 87 85 89 89 86 85 80 85 88 85 81 78 74 73 64 57 55 55 53 53 50 46 49 52 55
53 76 92 87 70 60 65 68 65 62 70 70 81 78 73 75 75 76 80 81 84 85 86 83 84 83 78 81 83 82 77 81 82 80 76 75 64 56 56 55 54 52 50 49
41 58 82 80 70 60 58 57 64 66 63 60 66 80 86 77 78 77 76 75 77 79 75 79 76 80 77 74 74 78 80 80 87 85 82 81 80 75 64 60 58 58 60 59
35 42 63 70 73 57 54 68 65 66 75 71 70 74 86 78 78 81 82 81 78 72 72 74 73 71 68 65 63 66 72 74 76 79 75 73 76 81 83 77 67 65 65 66
47 40 50 67 72 69 50 48 53 66 86 77 84 83 78 77 73 80 84 75 70 67 68 64 61 61 56 52 56 55 54 57 64 65 67 68 75 81 83 86 83 77 76 74
71 60 55 64 68 52 51 49 47 70 81 79 80 79 72 74 72 70 64 56 52 54 58 59 57 52 47 43 39 41 46 45 48 60 61 63 69 81 84 85 89 90 87 85
97 81 62 61 67 57 39 47 50 72 74 72 72 68 62 66 64 55 51 43 42 43 42 42 48 47 48 47 44 37 40 44 43 51 53 60 65 68 78 89 88 93 95 95
97 91 69 46 40 34 44 60 66 72 67 66 64 63 61 61 55 45 42 41 38 41 44 45 45 42 38 36 36 37 38 41 42 43 46 55 60 65 66 71 85 93 93 97
96 90 80 57 40 48 63 65 76 74 70 77 77 70 64 60 53 44 39 42 45 48 48 47 44 43 43 40 38 38 39 42 43 43 44 48 53 60 66 71 77 80 79 82
99 99 92 74 71 60 72 82 80 82 89 84 80 75 67 60 52 46 41 39 38 40 47 50 50 49 48 46 44 46 45 50 51 51 51 49 51 55 58 66 73 79 79 81
96 99 96 94 95 97 93 85 82 84 85 84 77 72 65 55 46 42 39 40 38 37 40 46 50 51 51 48 45 45 47 49 54 58 58 60 60 59 63 66 68 73 74 76

GFSCGP_prec_cthk_108.txt.gz
RH
20 23 21 23 26 27 32 37 39 38 40 41 41 34 35 34 31 31 29 28 30 31 33 31 32 34 33 34 34 37 41 44 41 33 31 37 44 56 63 70 88 99 99 98
22 23 20 21 23 26 29 33 32 35 38 40 38 28 30 31 28 27 27 28 31 33 32 32 34 36 35 38 38 40 43 43 42 35 31 37 42 56 61 70 87 95 96 96
20 16 17 23 25 25 26 29 32 35 34 32 34 24 23 23 22 23 25 27 30 34 34 33 36 37 37 38 39 41 45 44 42 35 32 35 42 57 60 74 87 93 98 97
16 12 18 23 25 26 24 23 27 31 34 35 31 30 23 22 21 24 26 27 29 32 32 31 37 37 37 41 39 43 46 48 43 34 31 34 45 56 60 72 82 88 96 99
10 17 16 18 17 22 21 23 26 29 33 32 31 33 26 27 28 27 28 30 30 30 30 30 37 39 38 41 42 45 46 46 43 34 31 35 48 57 62 71 79 87 95 97
7 10 13 12 14 17 22 27 31 37 39 41 33 34 28 26 25 31 35 34 37 31 29 31 36 40 42 44 45 45 46 44 40 33 30 36 49 58 65 69 80 86 98 98
10 11 12 17 21 26 29 34 48 56 52 42 35 39 26 29 31 37 38 41 41 42 36 34 40 40 45 47 47 48 47 44 35 31 30 38 49 58 66 69 76 88 98 98
36 23 13 15 21 25 29 33 43 50 58 45 42 40 33 30 36 42 41 42 42 44 44 43 45 47 51 50 51 52 45 44 32 28 31 37 45 56 66 71 76 88 98 97
58 43 27 15 11 21 29 37 30 42 49 51 45 41 35 36 38 40 44 49 48 50 52 52 54 52 56 54 53 53 53 45 31 26 31 37 43 48 55 62 71 84 90 97
67 60 50 33 28 23 24 26 42 51 50 52 45 46 44 44 41 47 51 54 54 52 57 58 56 60 62 57 57 56 56 43 32 31 36 40 42 43 46 48 57 66 78 93
83 63 54 60 54 45 30 29 36 42 52 47 44 44 40 38 41 47 51 55 57 54 66 71 66 72 67 63 62 60 56 39 33 34 39 47 48 45 45 46 52 58 67 78
96 81 62 60 66 61 50 39 34 44 40 49 49 44 51 53 47 48 55 64 67 58 69 84 83 82 75 69 70 65 56 40 35 35 40 45 48 47 49 49 50 56 64 71
98 91 77 62 71 69 68 63 53 38 43 52 62 49 55 58 53 52 54 57 66 67 71 88 90 88 84 80 71 69 55 41 37 38 42 44 46 48 49 51 53 56 56 62
96 98 91 87 84 84 86 62 58 54 53 41 53 64 67 65 65 63 61 66 69 80 81 87 93 91 89 83 76 78 62 49 39 39 42 43 44 45 47 51 54 55 56 58
90 98 94 88 79 82 85 83 65 65 57 54 55 52 54 62 78 74 67 71 78 84 89 93 89 91 96 87 87 83 78 55 47 46 46 41 41 45 45 45 52 56 61 60
77 78 89 87 72 63 72 86 94 68 63 69 61 63 62 60 70 76 73 78 83 83 87 92 92 92 84 87 90 84 80 66 59 58 57 55 50 45 45 44 45 52 55 60
66 77 66 77 76 66 73 76 82 73 66 70 68 73 77 77 77 80 79 83 88 84 86 84 84 89 89 83 87 91 82 78 73 71 72 71 67 61 54 51 48 47 50 55
55 57 67 62 70 68 59 74 68 75 70 66 68 73 80 91 88 82 79 77 83 80 84 84 80 82 81 82 85 87 87 80 80 79 79 80 79 77 73 67 61 53 51 52
47 52 54 62 66 57 59 75 78 81 77 68 70 74 82 92 93 90 85 82 78 73 75 76 78 76 75 73 73 73 77 84 82 78 78 79 80 80 78 78 75 74 62 57
52 47 49 56 59 68 59 58 58 77 87 85 85 85 87 95 97 97 90 79 80 75 78 74 72 72 66 65 64 61 60 60 62 67 75 85 87 82 77 76 78 79 80 75
79 72 55 55 59 52 46 61 62 71 70 83 85 87 93 86 83 83 75 67 64 59 54 54 59 57 55 58 57 56 49 48 52 55 60 66 72 72 73 73 79 84 81 84
75 81 81 63 58 54 37 54 65 68 75 82 85 80 77 75 73 68 63 58 51 51 46 45 47 47 50 51 48 51 53 51 48 45 45 51 57 61 68 73 73 81 88 84
96 98 88 67 51 32 33 48 55 64 63 74 77 81 77 73 66 57 53 47 46 47 49 48 47 42 42 46 44 44 41 42 46 44 39 41 46 55 62 66 69 74 78 78
94 97 96 79 55 48 46 48 63 84 77 84 85 82 77 72 67 60 53 50 44 42 45 52 52 47 42 38 36 37 39 36 37 38 39 42 44 43 48 61 67 72 75 76
97 97 98 86 74 62 51 68 86 91 89 90 88 83 82 76 69 60 57 50 46 43 42 43 44 49 50 49 47 44 41 41 40 40 43 48 49 49 48 51 57 68 74 82
98 98 98 99 86 88 84 88 95 92 89 95 92 89 82 73 65 58 54 51 46 42 42 42 43 47 48 47 46 43 43 44 47 48 50 52 53 55 57 56 60 61 65 73

GFSCGP_prec_cthk_111.txt.gz
RH
11 12 16 17 21 23 25 30 31 34 37 40 38 35 34 35 35 35 34 32 29 26 25 26 28 28 28 31 33 34 37 39 44 48 51 44 36 36 39 53 63 70 83 98
19 20 11 12 17 22 24 25 23 27 31 35 34 28 30 29 28 29 29 28 26 25 24 27 28 28 27 32 34 38 40 43 49 52 51 42 37 36 40 54 61 68 89 94
14 9 12 13 15 19 22 24 25 26 30 32 33 24 22 21 23 23 22 23 24 24 25 26 26 26 26 33 36 40 42 43 47 53 49 42 38 37 43 57 61 68 87 89
12 7 13 16 17 19 21 22 25 27 33 30 28 22 23 22 21 22 23 23 24 24 22 22 26 26 26 34 40 42 45 45 47 51 47 39 37 37 45 58 61 72 82 90
13 15 13 14 14 20 19 20 23 27 30 31 25 27 21 26 26 25 28 28 28 27 26 24 25 27 28 36 39 44 49 49 50 52 45 37 36 38 49 60 65 74 80 88
20 17 18 12 13 13 16 18 22 29 32 32 25 26 23 24 25 32 34 33 33 32 32 30 24 26 28 38 42 46 49 52 53 55 45 34 35 41 50 62 66 71 77 88
26 24 14 17 16 15 16 22 32 39 42 34 32 32 22 30 34 36 36 37 36 34 33 32 30 27 30 38 46 50 54 55 57 57 47 33 36 43 50 61 66 71 79 92
55 36 22 12 19 17 17 19 28 32 40 31 34 33 27 29 31 40 42 38 36 35 36 36 35 34 35 42 47 54 59 61 61 60 42 33 37 43 51 60 70 69 83 95
77 48 39 28 16 24 29 32 19 31 40 43 38 34 35 36 42 48 44 39 40 38 39 40 39 42 42 47 54 58 63 66 65 60 35 32 39 44 47 50 54 63 81 90
91 85 61 52 31 28 32 23 39 39 42 45 41 44 38 48 49 51 49 46 44 39 41 43 45 51 54 52 59 63 67 70 66 51 33 32 40 44 46 47 50 60 70 84
98 89 57 61 41 22 27 37 41 34 36 34 35 36 38 44 54 52 47 45 44 43 46 49 51 61 64 63 66 70 71 73 67 48 33 33 42 44 46 46 50 59 64 72
98 94 78 52 80 78 46 28 36 38 35 34 35 36 44 47 50 50 52 49 49 48 47 52 58 69 73 73 73 74 78 78 69 47 33 33 43 46 46 46 49 58 62 74
96 93 91 62 63 81 89 72 45 37 39 35 41 31 43 50 57 57 55 56 56 51 47 53 61 74 84 82 82 83 86 80 69 49 34 34 42 45 46 47 48 54 61 66
93 98 98 84 70 75 85 93 84 56 41 31 39 49 57 56 56 60 59 58 58 57 55 59 64 75 86 92 93 91 90 85 72 51 35 32 41 44 46 49 50 51 55 60
85 97 96 93 76 69 81 80 79 81 64 47 29 36 49 57 65 64 61 63 64 65 64 66 71 79 83 92 97 95 91 91 76 60 42 38 39 43 44 49 51 53 56 57
67 88 83 89 81 67 68 78 75 64 72 67 59 58 57 55 63 67 62 66 69 74 74 78 82 79 90 94 97 98 97 91 78 69 53 48 48 45 45 46 48 51 54 56
57 74 62 54 68 78 77 81 77 70 69 65 60 61 64 69 69 71 70 71 78 80 79 75 81 82 86 94 93 96 96 91 85 82 64 58 60 58 54 50 48 49 51 54
47 56 60 56 65 79 63 81 70 75 81 77 71 73 74 77 79 80 81 78 81 81 79 72 80 79 80 87 91 93 93 95 89 83 71 76 76 72 69 65 61 56 52 50
52 52 56 57 56 59 71 77 81 80 85 77 76 82 85 85 81 84 86 84 80 77 73 70 74 76 75 75 82 87 85 85 92 88 80 80 82 86 83 78 74 74 70 66
63 53 55 48 55 62 68 62 62 80 80 87 81 86 80 84 94 95 91 86 78 86 75 74 72 68 63 68 73 71 70 74 80 90 85 86 83 83 86 81 84 85 83 82
81 79 68 55 52 38 52 62 64 79 81 92 90 95 95 96 93 85 81 70 64 58 57 55 55 58 56 61 62 61 66 62 65 75 78 81 79 85 84 79 78 82 80 80
93 89 82 75 64 44 44 55 72 82 86 91 87 87 88 88 79 74 66 60 57 53 52 52 49 51 51 50 57 57 56 65 58 53 56 57 63 68 77 75 79 76 74 76
97 98 91 72 59 41 46 60 67 71 87 90 85 83 80 83 75 66 59 53 51 51 50 50 46 46 51 47 52 55 52 51 54 58 53 48 48 47 55 64 67 73 74 75
95 96 95 89 73 63 53 57 66 68 76 80 83 82 77 76 73 65 61 56 52 49 44 41 39 39 45 43 42 45 48 44 44 45 49 49 50 50 45 49 60 65 71 76
98 97 98 88 83 88 63 59 64 71 89 87 81 78 75 75 73 66 60 54 50 45 43 43 40 42 46 45 44 43 42 44 42 43 44 42 41 42 44 47 49 53 62 68
98 98 98 98 88 90 76 63 77 85 94 94 89 91 84 77 74 67 61 56 52 48 44 41 39 40 38 40 45 46 47 47 47 49 48 49 49 49 53 54 54 54 57 63

GFSCGP_prec_cthk_114.txt.gz
RH
13 21 16 12 11 20 24 25 26 26 31 38 34 32 33 34 33 33 32 32 33 33 31 29 27 26 24 24 27 32 36 38 37 40 44 47 51 50 36 33 36 45 59 64
11 12 9 14 10 10 14 20 22 23 26 32 30 25 27 27 29 29 29 29 29 29 29 28 28 27 24 25 27 32 36 40 39 42 48 51 53 49 35 34 35 46 59 62
13 5 13 12 16 16 14 13 16 22 26 26 26 23 24 23 23 23 23 23 23 23 24 26 27 28 27 26 29 33 35 40 42 48 51 54 57 50 36 33 37 49 57 63
17 11 10 12 16 14 14 14 15 18 22 24 25 21 21 23 22 21 22 23 24 25 27 24 25 26 27 28 30 31 37 41 47 51 52 53 58 52 36 34 42 52 60 68
18 20 22 16 9 22 15 18 17 19 22 25 23 24 19 19 19 22 22 27 29 28 29 28 24 24 24 28 30 30 34 42 47 51 55 57 61 53 35 36 47 53 63 70
31 30 30 20 19 14 21 26 20 21 22 26 20 24 19 20 24 24 32 34 34 35 35 33 31 27 27 30 30 32 36 43 48 53 58 60 61 45 33 37 47 55 63 66
59 32 25 24 23 21 23 31 27 29 29 20 21 26 19 22 27 31 37 38 38 37 37 35 36 33 32 34 34 35 41 47 50 53 56 59 58 40 33 40 47 54 62 67
84 52 48 32 26 20 30 29 26 24 24 24 31 26 21 22 27 37 39 41 41 40 41 38 36 38 38 36 35 38 42 51 53 55 57 61 54 39 35 43 45 52 62 68
89 78 53 55 27 21 26 36 17 24 30 36 29 27 24 26 26 37 41 43 43 46 44 40 39 39 41 42 39 39 43 52 58 60 65 66 49 39 38 42 41 43 50 70
96 82 63 69 42 35 27 25 30 30 32 25 19 27 35 36 34 42 45 46 47 50 46 42 42 42 43 47 46 43 46 55 62 66 69 65 50 40 39 41 41 41 50 66
96 97 71 66 55 42 35 43 43 28 28 29 32 31 44 52 44 49 51 51 49 47 47 47 43 45 45 53 53 52 53 61 67 70 72 60 49 40 39 40 41 42 52 63
97 97 85 72 78 58 39 43 47 44 36 30 35 34 52 48 55 58 52 50 49 51 48 46 46 47 49 54 60 60 60 66 73 76 71 58 51 42 41 40 42 44 53 60
89 93 78 70 72 82 71 46 54 53 44 44 40 35 55 52 49 52 55 56 57 54 50 48 46 48 54 59 68 70 73 74 79 79 70 61 55 44 43 42 43 44 52 57
81 97 97 96 97 86 95 85 63 49 55 43 42 40 62 58 53 57 64 61 53 53 55 53 51 54 57 67 76 77 79 83 82 79 72 63 57 46 45 44 42 44 50 56
74 81 90 83 84 69 82 92 90 68 51 55 38 40 53 52 59 64 64 64 62 61 58 58 55 59 64 72 79 86 85 85 87 82 74 64 58 47 45 45 45 46 48 52
59 75 68 68 82 69 65 77 76 79 74 55 48 39 51 64 63 82 73 67 68 59 59 64 60 64 68 80 79 85 91 93 92 88 77 69 61 48 45 45 46 47 49 51
61 62 55 65 73 79 76 77 70 70 72 71 70 63 56 53 63 73 70 67 66 65 62 62 65 66 69 74 89 85 90 95 97 95 85 77 66 54 48 46 48 48 49 51
63 55 58 58 72 88 76 78 74 70 69 73 67 64 73 72 81 77 73 73 77 79 70 69 69 72 72 73 84 88 91 97 99 95 89 80 74 69 62 53 50 50 52 52
61 52 57 64 67 61 83 78 83 78 70 72 75 82 87 85 81 85 86 81 77 75 74 72 68 72 70 72 71 82 89 89 95 98 95 88 84 84 77 77 74 66 59 57
64 63 55 50 59 68 76 70 75 79 93 90 86 87 91 89 92 92 90 85 81 81 79 75 73 69 63 65 70 67 80 85 88 91 95 93 93 88 84 84 86 85 83 77
70 68 64 56 52 40 61 65 71 90 94 94 94 94 91 88 96 98 95 85 74 69 66 62 59 58 59 60 65 64 67 83 82 84 88 93 90 88 86 87 87 87 90 88
88 82 74 64 58 54 39 66 79 82 85 98 96 94 92 93 91 88 79 67 60 56 56 55 54 53 53 54 58 65 63 65 82 72 76 86 88 83 83 83 89 90 90 89
90 98 91 74 60 58 51 62 82 86 89 98 95 92 90 90 80 73 66 58 55 52 49 46 47 42 45 53 52 58 63 61 60 76 71 70 79 83 81 82 81 86 93 92
89 89 95 87 84 76 64 57 75 86 96 99 95 85 85 79 76 70 63 58 54 51 47 46 43 40 42 49 45 46 58 55 53 53 62 71 62 56 64 68 70 76 84 84
97 97 95 91 86 82 77 63 65 77 86 92 90 84 75 71 68 66 62 58 54 52 51 49 49 44 41 39 43 42 44 50 48 45 50 53 55 55 55 53 54 57 58 58
96 98 97 97 93 91 89 73 63 68 82 94 96 85 84 78 75 71 64 59 54 52 49 46 44 44 43 40 40 46 48 46 46 48 50 50 48 49 54 54 51 52 52 54

GFSCGP_prec_cthk_120.txt.gz
RH
12 12 14 14 16 14 15 14 12 13 14 30 40 39 39 39 38 42 42 42 41 39 39 40 37 35 32 32 29 29 30 30 30 30 34 36 37 35 39 42 42 45 48 36
14 15 16 17 17 14 12 13 13 11 11 18 28 35 36 35 36 36 40 40 39 39 41 43 43 39 36 35 34 33 31 32 31 29 34 38 39 36 38 41 44 46 50 42
21 19 20 18 17 17 15 17 13 14 15 20 23 29 28 28 30 33 35 33 33 37 37 39 41 40 39 37 35 34 33 34 34 33 37 40 43 41 39 41 45 46 50 45
25 24 33 35 31 29 26 17 16 20 22 24 21 22 23 24 26 29 26 23 25 28 33 36 35 37 35 35 33 32 34 35 37 37 36 37 40 39 41 40 44 48 50 46
24 29 32 33 32 38 41 26 27 22 22 31 27 20 13 22 23 22 24 27 27 27 25 28 30 31 32 33 31 31 32 37 39 36 38 41 45 43 45 44 46 48 52 51
31 35 39 47 52 56 52 52 43 37 28 37 26 21 15 16 21 21 26 31 31 30 33 32 33 34 36 37 37 35 34 38 38 36 41 44 45 49 47 47 49 48 54 50
35 30 42 60 66 53 63 72 56 54 44 36 22 26 18 19 18 23 28 38 41 42 43 42 48 52 49 46 46 42 39 41 42 40 43 44 48 55 55 51 52 51 55 49
54 39 50 51 65 79 85 74 64 63 52 32 24 38 18 20 19 29 42 55 50 50 53 54 61 57 51 53 45 42 40 40 50 43 45 46 52 59 62 56 56 56 57 51
68 37 48 64 65 69 75 66 51 54 48 43 36 33 23 20 23 25 48 59 61 59 59 54 50 46 44 41 42 39 41 39 41 44 46 52 59 63 64 59 60 63 59 54
58 55 45 55 64 67 81 67 63 54 56 53 43 34 27 20 25 31 50 53 62 65 69 53 49 43 39 39 39 39 43 43 43 45 50 56 60 63 61 62 64 65 57 55
56 68 48 66 94 91 89 84 68 55 39 48 53 43 24 26 27 37 45 52 44 82 52 54 48 42 39 39 40 41 43 48 49 46 55 60 62 64 65 66 70 66 59 56
56 67 69 68 76 77 76 87 75 53 48 41 42 38 29 39 40 45 55 69 57 67 55 51 45 42 40 42 43 43 43 48 52 55 56 58 63 66 67 71 73 63 59 54
53 60 77 53 58 59 61 61 68 68 59 51 48 34 33 40 52 43 53 73 80 79 59 50 43 41 41 43 45 46 49 51 57 58 59 61 63 66 70 75 68 64 61 55
51 70 83 85 76 65 72 73 79 69 66 45 43 31 29 46 64 90 70 72 92 89 62 58 48 42 43 45 50 51 56 55 59 62 66 67 67 69 74 74 67 65 65 57
58 69 73 66 59 57 72 74 80 67 64 70 41 39 34 52 74 88 70 72 73 68 51 47 47 44 45 45 48 56 60 61 63 69 71 70 70 74 79 71 71 68 72 58
51 69 67 61 59 55 52 78 89 64 58 70 56 59 74 63 68 84 96 84 76 76 60 58 43 44 46 49 50 54 62 67 70 74 76 75 74 76 77 75 76 70 76 58
59 70 68 70 62 59 79 97 89 97 77 75 69 72 80 80 81 81 79 99 89 80 73 66 58 49 47 51 50 51 54 63 69 79 79 81 82 80 77 77 77 82 80 60
63 67 74 74 73 86 94 80 73 78 97 92 78 81 84 87 79 86 88 91 93 91 86 80 65 54 50 47 49 50 51 59 65 81 82 84 85 86 81 78 84 86 81 67
57 69 77 74 64 69 89 74 67 72 82 95 92 84 88 81 77 87 94 86 82 88 89 81 72 64 56 52 48 50 52 53 57 62 82 88 85 85 82 82 87 90 84 73
70 63 86 76 88 75 90 75 66 66 91 93 81 75 70 90 74 80 83 74 79 79 74 72 71 66 59 54 52 51 52 50 51 55 67 97 97 95 95 82 88 90 83 76
69 66 82 85 84 82 88 70 67 83 94 98 98 93 88 98 94 91 84 74 72 72 73 72 65 60 56 54 52 51 53 53 49 52 58 71 91 96 97 93 90 91 87 78
83 79 85 87 77 87 83 68 84 95 86 98 99 99 97 93 98 89 93 83 76 73 72 65 62 54 50 51 51 49 50 53 52 53 53 61 79 94 97 96 98 97 88 84
92 95 97 97 96 92 86 84 84 90 86 96 98 98 97 93 89 83 81 80 77 74 67 64 61 54 49 50 50 50 50 50 51 53 57 61 69 83 97 93 89 97 92 88
78 87 92 84 90 77 73 72 77 81 81 90 98 99 96 94 92 88 82 77 72 71 64 61 53 47 46 47 47 49 52 52 51 52 60 62 64 73 84 98 97 99 98 96
85 85 83 84 77 75 74 75 74 72 77 82 96 97 97 93 91 91 86 80 78 71 65 62 57 51 46 46 46 47 46 50 53 57 64 63 63 62 69 76 94 92 94 99
87 93 89 82 82 83 80 81 77 76 70 72 92 92 97 95 93 88 83 78 75 71 65 60 57 53 49 48 50 50 51 52 54 54 56 66 68 61 63 70 75 88 95 92

GFSCGP_prec_cthk_123.txt.gz
RH
12 14 16 15 18 18 18 19 18 13 11 16 14 13 14 23 39 45 50 46 49 47 46 46 41 39 37 32 28 27 28 29 28 32 31 31 29 33 32 33 38 39 43 50
16 19 19 20 19 21 20 21 18 15 13 18 17 17 13 13 32 43 38 38 46 47 47 46 44 45 42 38 33 29 27 28 30 33 33 31 29 32 37 36 38 41 43 49
22 22 25 25 20 23 23 26 28 28 20 19 18 16 12 11 14 38 39 32 40 40 42 44 48 48 46 40 35 33 30 32 34 36 37 36 35 38 41 40 41 42 44 49
23 25 25 20 23 26 32 32 37 37 36 32 23 24 16 11 11 21 33 31 32 37 42 42 43 48 47 43 40 39 36 35 37 37 36 35 32 35 38 42 44 44 45 49
26 28 27 25 30 41 48 46 48 48 48 48 31 33 10 12 10 11 16 26 26 31 40 40 40 41 47 47 44 41 39 36 37 38 37 36 35 39 41 44 48 45 45 50
27 28 26 33 37 53 56 63 56 50 52 68 39 35 14 14 10 11 20 25 25 29 32 30 37 37 36 36 37 39 39 36 35 37 36 38 38 42 44 46 48 47 48 52
25 26 27 39 46 44 60 72 87 75 63 60 44 38 23 20 14 13 25 30 49 35 39 38 34 39 38 37 38 38 39 37 39 40 37 40 42 46 46 47 48 51 52 54
45 44 36 37 52 57 61 73 84 96 74 54 45 41 21 20 19 20 28 40 49 42 47 45 43 42 43 45 44 45 46 45 45 47 42 44 48 50 49 49 50 50 54 56
52 41 38 38 46 81 89 92 88 95 80 69 57 45 26 20 18 25 32 54 60 68 57 53 51 50 46 45 47 50 49 47 50 48 46 49 53 53 54 55 56 56 59 59
51 47 34 35 40 71 85 90 93 82 78 61 53 46 33 33 34 26 33 51 56 57 64 57 60 57 57 52 45 42 40 41 46 52 51 52 55 54 56 59 61 64 61 61
44 54 37 39 48 60 73 86 96 97 76 61 57 39 39 42 42 38 34 49 49 55 61 65 62 51 45 43 41 40 39 40 45 50 53 55 55 55 58 63 66 69 62 64
48 51 49 39 39 57 69 76 90 97 94 79 50 38 35 49 46 49 62 60 62 71 70 71 78 57 48 48 43 42 40 42 45 48 50 52 51 59 67 66 66 68 66 67
46 52 63 42 37 52 63 72 74 84 82 70 60 42 44 58 60 81 74 69 73 77 77 79 77 62 54 49 47 46 45 44 47 51 55 57 63 66 68 71 68 70 69 71
43 54 76 77 62 55 64 64 70 81 93 67 45 59 72 72 80 83 94 93 85 84 80 93 83 63 57 50 47 50 51 51 51 52 56 64 66 68 68 70 75 73 74 68
39 48 53 61 57 57 63 66 90 97 83 73 61 74 83 84 77 86 89 96 98 92 86 85 85 66 53 51 47 48 55 59 58 59 61 66 68 71 70 72 74 74 71 68
33 55 56 54 56 60 65 95 97 99 93 77 74 74 86 83 80 77 86 92 97 95 89 71 63 58 53 50 51 48 49 55 60 61 62 68 74 76 77 78 76 75 74 70
50 59 61 61 62 66 95 96 96 98 98 90 84 80 79 81 91 90 88 91 95 96 93 85 68 60 49 46 47 48 47 47 52 62 67 69 76 80 78 80 77 80 79 75
52 59 69 73 72 81 93 78 84 96 98 97 93 96 90 83 88 92 93 96 97 96 95 87 77 62 55 49 48 45 46 48 49 55 64 75 77 81 81 83 80 84 83 77
66 75 86 87 90 70 92 80 83 89 98 96 98 96 93 92 92 89 90 88 86 87 82 76 76 68 62 54 51 48 43 49 47 48 54 60 74 80 84 83 84 85 86 83
72 84 78 79 94 97 97 82 67 75 96 94 98 98 96 95 95 94 92 92 88 84 77 75 69 64 62 57 52 51 49 45 46 48 49 54 60 75 83 87 87 81 84 86
74 70 74 78 90 97 95 77 68 80 93 98 99 99 98 95 94 89 88 89 83 74 70 71 66 62 56 53 48 47 48 45 47 48 50 50 53 64 78 92 96 91 88 88
92 92 85 82 94 89 85 74 79 89 93 98 98 99 98 98 95 94 94 96 88 76 71 67 65 63 57 51 49 46 46 45 44 46 48 50 52 55 62 73 79 84 90 90
92 93 94 95 96 92 86 85 80 81 90 89 96 98 97 96 96 97 93 89 83 81 75 68 63 59 54 50 47 45 47 47 45 45 47 49 54 54 57 64 76 82 86 97
78 82 86 89 96 85 85 77 75 74 86 85 91 97 98 98 98 96 91 83 79 75 71 69 65 58 54 51 47 45 48 52 52 50 52 51 55 56 60 61 79 88 94 97
75 81 83 87 82 76 80 77 74 78 79 78 78 93 96 97 97 94 90 86 80 74 71 67 63 56 55 54 48 47 49 56 56 54 53 54 57 60 59 61 69 89 97 99
73 78 83 85 81 82 76 70 71 77 77 79 72 85 97 95 96 97 92 84 80 77 71 67 66 66 61 53 49 51 52 56 56 56 51 54 55 61 66 65 65 72 83 97

GFSCGP_prec_cthk_126.txt.gz
RH
14 15 17 19 20 21 22 24 23 18 18 22 19 17 13 10 11 10 9 14 25 39 41 47 49 44 40 37 31 30 29 28 29 34 34 36 33 34 33 31 33 38 40 43
17 19 19 19 20 20 19 21 19 17 18 25 24 23 18 14 10 9 9 11 20 44 44 45 47 51 47 42 38 32 30 29 29 33 32 36 36 35 36 35 36 39 41 44
20 21 22 21 20 21 19 25 27 31 22 21 27 24 20 15 14 10 9 9 17 42 46 46 49 45 51 48 43 38 33 30 29 30 35 40 43 43 41 38 40 42 43 44
20 23 22 22 22 23 24 29 36 33 38 46 39 50 26 21 17 12 9 9 15 38 42 46 48 47 50 49 45 43 39 35 33 32 36 38 39 39 37 36 37 42 46 50
23 24 24 21 21 28 33 35 35 42 51 59 41 56 31 23 19 13 10 10 15 31 38 41 46 46 49 51 50 44 42 39 35 35 39 42 44 41 40 41 40 46 48 51
22 20 19 22 25 32 36 44 51 49 60 74 39 65 48 34 22 15 12 11 14 21 38 39 42 51 53 50 51 51 48 43 40 42 43 43 43 43 44 44 44 46 49 51
21 24 23 28 27 28 41 58 78 65 63 64 51 62 44 32 23 19 16 16 18 17 26 38 38 51 53 53 49 51 50 44 46 47 47 46 44 44 46 46 46 47 49 51
38 35 27 28 37 38 45 80 96 95 84 75 58 57 38 30 22 25 21 25 31 36 39 43 38 43 46 49 53 52 50 49 49 51 48 46 47 50 51 52 49 51 50 51
41 37 26 28 32 42 60 82 84 97 84 87 69 42 31 29 33 33 35 30 47 58 55 55 51 51 50 52 51 51 50 47 48 50 53 51 53 53 58 58 55 51 49 51
36 39 25 27 31 48 65 68 85 84 95 94 62 47 52 41 37 42 39 44 58 96 70 59 61 61 61 56 54 57 55 55 55 55 55 55 56 61 66 61 56 55 58 56
33 43 34 28 42 53 65 70 84 93 89 96 90 55 75 71 67 64 56 39 41 89 85 79 77 76 71 72 61 64 60 57 55 55 57 57 55 54 55 56 56 60 59 59
36 43 44 34 42 53 62 68 79 95 79 84 96 67 68 63 84 81 81 71 64 77 80 74 76 78 70 70 69 68 60 51 47 48 51 53 62 61 62 63 61 57 60 63
38 44 50 34 44 49 54 53 68 85 88 87 94 67 60 65 82 85 94 93 84 87 81 75 81 76 68 66 63 57 52 47 45 45 46 51 57 62 65 67 62 71 72 69
37 44 49 62 56 58 61 63 88 98 97 90 78 69 74 75 79 93 90 97 99 97 91 80 84 78 73 67 61 54 51 50 51 50 51 51 54 59 64 59 66 74 75 74
31 41 37 46 51 63 65 92 94 98 98 97 86 76 90 93 92 96 96 95 94 98 98 97 93 83 79 72 59 53 52 52 53 55 57 57 59 60 68 81 79 74 73 75
25 37 46 50 58 64 74 86 88 95 96 85 77 83 76 91 97 96 97 95 90 97 95 97 94 88 84 74 61 50 46 48 56 60 60 63 62 68 71 73 76 73 72 71
38 48 56 52 58 63 96 91 84 95 97 96 85 87 94 97 97 96 98 98 98 97 98 97 94 89 80 68 53 47 45 44 44 51 64 66 68 70 69 82 88 82 74 72
54 73 68 64 69 84 89 86 79 85 96 97 95 94 86 92 94 91 87 88 92 96 98 96 92 88 82 72 55 45 42 44 44 45 50 65 69 71 70 75 79 76 81 82
74 89 87 95 85 71 91 78 76 84 95 94 96 98 90 91 95 95 92 83 84 89 89 88 88 88 83 73 62 53 46 46 44 43 43 47 52 64 76 77 75 79 80 83
70 77 81 89 89 88 91 77 69 81 95 92 93 98 98 95 96 95 88 85 89 87 87 83 77 81 78 73 63 54 49 45 43 42 44 44 45 52 57 70 78 82 81 87
74 80 85 90 86 88 87 72 67 72 84 94 95 94 98 97 97 98 95 88 86 89 80 77 70 69 70 64 60 54 50 47 44 41 41 42 44 46 47 62 71 77 85 86
77 82 89 89 84 78 78 67 71 81 82 93 96 96 97 97 99 98 95 91 89 86 80 72 68 64 62 58 52 48 47 45 44 41 42 43 44 45 48 53 60 69 81 90
76 77 82 85 84 79 76 74 76 80 78 86 93 96 96 98 97 96 92 88 86 83 74 70 67 62 59 57 53 47 46 47 45 44 44 43 44 45 48 52 53 60 71 75
62 73 81 82 86 81 80 73 75 78 72 82 87 92 97 98 98 97 85 84 84 77 74 71 67 59 57 53 49 49 50 49 49 49 49 48 48 47 48 51 54 59 71 76
63 67 78 83 83 82 84 77 69 76 77 77 82 79 95 97 96 97 94 82 77 73 68 66 64 62 60 56 53 53 54 54 55 55 55 53 53 53 53 54 55 58 68 82
56 61 76 83 78 80 80 79 71 66 76 76 78 81 76 95 97 94 95 92 82 80 73 68 67 65 63 58 53 54 54 53 51 51 52 54 54 55 56 57 61 61 63 72

GFSCGP_prec_cthk_129.txt.gz
RH
15 18 21 20 20 21 23 23 22 15 15 17 20 18 15 13 15 12 10 10 9 8 7 7 19 41 44 44 44 39 38 33 36 41 43 45 36 34 36 35 35 33 35 37
18 23 22 21 22 22 22 22 19 15 17 21 21 18 12 11 12 12 11 9 9 9 7 7 9 25 44 45 44 43 38 37 33 33 35 41 39 37 39 41 40 38 38 40
20 23 24 22 21 21 21 21 21 26 18 17 27 22 17 15 19 15 13 12 8 10 9 7 9 19 35 47 44 44 43 38 34 33 36 41 45 48 51 47 42 40 40 42
23 26 23 22 21 22 25 21 24 24 27 38 28 53 31 25 31 25 23 19 12 9 9 8 10 24 42 47 46 45 46 43 39 37 33 36 38 43 44 44 44 44 45 46
25 24 21 22 22 21 23 23 25 27 33 49 31 69 35 46 46 38 34 29 19 10 9 8 11 31 45 51 48 46 50 50 45 41 37 36 38 39 42 46 47 47 49 47
24 21 21 21 21 21 23 26 26 33 47 62 46 62 57 50 49 44 37 26 17 11 9 10 12 24 53 45 55 51 53 54 52 48 42 41 45 42 47 50 49 52 55 52
30 26 22 19 20 20 24 34 60 57 54 47 47 67 55 55 53 50 35 29 20 15 13 13 14 24 46 46 58 54 55 59 57 55 53 52 48 47 54 55 54 56 57 54
38 33 25 21 22 26 31 56 83 92 74 63 54 68 53 58 66 66 56 46 35 32 26 26 27 27 46 45 53 56 54 58 65 62 59 58 56 62 70 63 56 58 57 55
38 37 27 23 21 26 41 63 65 92 76 87 58 49 45 57 71 80 70 57 47 47 41 41 48 41 49 54 53 62 61 59 65 66 71 67 67 68 66 62 60 59 59 58
32 40 27 22 21 32 46 56 72 88 90 79 61 55 59 61 73 72 78 77 71 62 61 72 67 65 58 57 62 73 70 68 67 74 77 74 67 66 66 65 60 60 63 64
30 36 30 22 33 41 56 67 73 78 92 92 84 54 60 76 77 76 79 87 83 68 77 98 93 80 69 64 65 65 70 72 72 74 72 67 63 65 68 66 66 65 72 66
33 39 41 26 31 39 53 61 73 97 88 83 94 64 72 78 82 80 80 97 87 86 80 98 97 90 85 81 80 72 70 68 72 76 73 71 71 71 72 69 70 72 74 64
32 38 43 27 32 34 53 65 76 97 97 96 97 69 66 81 85 86 88 94 96 94 98 98 96 89 87 90 89 79 74 74 71 67 65 66 67 63 63 63 61 67 64 61
30 35 33 41 35 49 61 65 78 92 97 91 88 86 85 86 88 91 89 95 95 98 96 98 98 90 85 90 82 79 76 76 71 65 60 60 61 59 60 73 73 72 73 74
23 30 35 30 37 53 62 72 85 94 98 97 86 91 90 90 91 97 95 97 96 98 98 97 97 95 89 90 85 81 77 71 69 66 60 56 52 54 53 62 65 71 70 71
21 24 32 32 44 58 67 85 86 85 95 87 88 83 90 93 95 96 92 92 91 98 97 98 99 94 84 80 78 77 70 66 64 59 57 57 58 57 61 57 69 70 89 76
27 39 43 46 51 63 88 86 84 80 90 96 93 92 94 92 97 93 87 86 90 95 99 99 98 94 87 82 75 68 64 59 49 47 55 59 59 62 61 69 65 85 78 82
41 52 64 63 70 76 77 79 75 78 92 98 98 98 98 97 95 94 94 88 88 90 93 98 98 93 88 80 71 66 59 56 49 43 44 52 62 62 66 65 68 74 77 88
51 62 73 78 79 69 79 86 78 79 83 93 96 97 97 98 98 97 97 94 94 92 93 88 90 88 82 74 71 63 50 45 43 41 41 43 48 57 63 67 66 63 69 87
57 62 75 79 83 81 74 78 70 76 81 80 91 94 96 92 90 89 89 86 86 86 84 79 80 76 71 69 67 59 55 49 47 45 43 42 42 43 47 58 64 67 68 72
63 68 73 83 81 74 74 72 66 80 71 78 92 96 97 96 93 89 91 94 85 86 80 77 75 70 64 63 64 62 57 53 49 45 44 42 42 42 43 44 48 55 65 74
61 69 76 79 80 69 68 58 69 73 78 79 88 91 89 95 97 92 91 90 88 85 84 79 74 76 65 57 55 54 51 52 50 48 46 43 42 43 45 46 45 46 54 61
64 62 67 68 71 69 68 67 66 71 75 78 85 89 90 93 94 92 91 92 91 87 79 77 73 67 63 57 53 53 52 50 50 48 47 46 45 42 42 45 45 46 47 53
50 59 67 65 62 71 73 70 66 63 74 77 80 87 84 95 95 92 93 90 90 87 81 77 72 67 62 57 53 50 51 51 51 50 49 49 47 45 45 45 44 46 49 53
50 60 62 64 65 73 77 76 72 66 69 75 75 83 83 83 96 95 94 95 90 84 81 74 70 66 61 59 57 55 52 51 50 51 53 51 50 50 48 48 47 49 50 53
45 48 57 57 65 71 78 77 72 67 67 69 75 75 77 78 85 94 95 94 93 89 83 78 75 70 65 60 57 54 53 53 51 50 51 51 50 51 51 51 51 51 54 59